GFSCGP_925_temp_000.txt.gz
Temp
37 37 37 38 39 39 39 38 38 38 38 37 37 35 34 35 34 34 34 33 33 33 32 31 29 28 28 27 26 26 25 24 24 24 23 23 23 23 23 23 23 23 22 22
36 36 38 39 38 38 38 38 38 37 36 37 35 35 35 34 35 34 34 33 33 33 33 31 29 29 29 28 27 26 25 24 24 24 23 23 23 24 24 22 22 22 22 22
37 38 38 37 37 37 38 38 38 37 35 37 35 34 33 34 34 34 34 34 34 33 33 32 31 30 29 28 27 26 25 24 24 23 24 24 25 25 26 25 25 24 22 21
38 37 37 37 38 38 38 38 38 37 35 35 36 36 34 34 33 33 34 33 34 33 33 33 32 30 30 28 27 25 24 24 23 23 24 24 25 25 24 24 23 21 22 21
37 37 37 37 38 38 36 37 37 36 36 36 34 35 37 35 34 34 34 34 34 33 33 33 33 31 29 27 26 25 24 24 23 23 23 24 24 24 23 22 21 21 21 20
38 39 39 39 38 38 36 35 35 36 37 35 37 36 37 37 35 36 35 35 34 34 33 33 32 30 28 27 26 26 24 24 23 23 23 22 22 22 22 22 21 22 22 22
37 37 38 38 36 36 37 37 35 34 35 35 35 35 36 38 35 36 36 35 34 33 33 32 32 29 27 27 27 26 24 23 23 24 23 22 22 21 21 21 22 20 22 22
37 35 37 38 38 37 37 38 36 33 35 36 33 34 36 36 36 37 36 36 35 33 33 32 30 29 27 27 26 26 24 24 24 23 22 21 21 22 22 22 20 21 21 21
37 37 38 39 38 39 37 36 38 36 36 35 37 36 36 36 35 34 34 35 35 33 33 32 30 29 28 27 26 25 24 24 23 23 22 21 21 21 21 20 20 21 20 21
38 36 38 37 37 36 37 39 36 37 33 33 35 35 36 36 36 35 34 34 34 33 33 32 31 29 28 27 26 25 24 24 23 23 22 22 22 21 20 20 20 20 20 19
39 37 36 36 36 37 36 36 37 37 36 34 34 36 37 36 36 36 35 34 34 33 33 32 31 29 28 27 26 25 24 24 23 23 22 22 21 21 20 20 20 20 20 19
38 37 36 36 37 37 39 38 37 35 34 35 34 35 37 37 37 36 36 35 34 33 33 33 31 29 28 27 27 26 25 25 24 23 22 22 21 21 20 20 20 20 20 20
38 36 35 36 36 35 36 37 38 38 37 34 34 35 36 36 35 35 36 35 33 33 33 32 31 29 28 27 27 26 26 26 25 24 23 22 21 21 20 20 20 20 20 20
34 37 36 36 36 37 35 36 37 37 36 35 35 35 36 36 35 35 34 34 33 32 32 31 31 30 28 28 26 26 26 26 25 24 23 22 21 21 21 20 20 20 20 20
36 34 36 37 38 38 37 36 36 36 36 35 36 35 36 35 34 34 35 34 32 31 31 30 31 30 28 27 26 25 25 25 24 23 23 22 21 21 21 20 20 20 20 20
34 34 35 36 36 36 36 37 36 36 36 35 35 34 36 35 34 34 34 34 32 31 30 30 30 29 28 27 26 26 25 25 23 22 23 22 22 21 21 21 20 20 20 20
34 34 33 34 35 35 34 35 36 36 35 35 33 34 35 34 33 34 33 33 32 31 30 30 30 29 27 27 27 26 25 25 23 22 22 22 22 21 21 21 21 20 20 20
33 33 35 35 33 31 35 36 36 35 35 35 34 34 34 34 33 32 31 31 31 31 31 30 30 29 27 28 28 26 26 24 23 23 22 22 22 22 21 21 21 21 21 20
32 33 34 33 33 35 33 32 33 34 34 35 34 34 34 34 32 33 31 30 30 30 30 30 30 28 28 28 28 26 25 24 24 23 23 23 23 22 22 21 21 21 20 20
31 31 33 33 32 32 35 36 35 34 32 35 34 33 34 33 33 33 30 30 30 30 30 29 28 29 28 28 28 26 25 24 24 24 23 23 23 22 21 21 21 21 20 20
31 31 32 33 32 33 33 33 34 31 32 34 34 34 33 32 33 30 30 29 29 29 28 28 29 29 28 28 27 26 25 25 24 24 24 23 22 22 21 21 20 20 20 20
31 31 32 32 31 30 32 32 31 30 32 33 33 33 33 33 32 31 30 30 29 29 29 28 29 29 28 26 25 25 24 24 24 24 23 22 21 21 23 20 20 20 19 19
30 30 31 31 31 29 31 30 30 30 29 30 30 31 32 32 32 31 31 30 30 29 29 29 29 28 26 25 23 23 23 24 24 22 21 21 22 21 21 20 19 19 18 19
28 28 30 29 29 29 29 30 29 29 29 29 29 30 30 30 31 30 29 29 29 28 28 27 26 26 25 24 23 22 23 21 20 21 20 20 21 21 20 19 21 21 21 20
29 27 29 29 28 28 29 27 27 27 28 28 28 29 30 30 29 29 28 28 28 27 26 25 25 25 24 22 22 21 20 20 21 21 20 21 21 21 20 18 17 18 15 16
29 28 28 28 25 25 26 26 26 27 28 28 28 28 29 29 29 28 28 27 26 25 24 24 23 23 22 21 20 19 19 19 20 21 21 22 21 21 21 20 16 13 13 14

GFSCGP_925_temp_003.txt.gz
Temp
39 39 39 40 40 41 41 40 40 40 40 39 39 37 36 37 37 36 36 35 35 35 34 32 31 30 30 30 29 28 27 25 25 24 24 24 23 23 24 23 23 23 22 22
38 38 40 41 40 40 40 40 40 40 40 39 38 38 37 37 37 37 36 35 35 35 34 33 31 31 31 30 29 28 27 26 25 26 24 23 24 26 27 26 25 24 24 23
38 39 40 40 40 39 39 39 40 39 39 39 37 37 37 37 37 37 37 37 37 36 35 34 32 32 31 30 29 28 27 27 26 25 25 25 25 25 27 27 26 26 24 24
39 40 39 39 39 39 38 40 40 39 38 37 39 37 36 37 36 37 37 37 37 36 36 35 34 33 32 31 29 28 27 26 26 25 26 25 25 27 26 25 25 23 23 23
38 40 39 38 39 40 39 41 39 39 39 38 37 37 35 35 36 36 37 37 37 37 36 36 35 33 32 31 30 28 27 26 26 25 25 26 26 26 26 25 23 23 22 22
40 41 40 40 41 40 40 39 39 39 39 37 38 35 38 35 36 37 37 38 37 37 36 36 35 33 32 30 29 27 26 25 25 25 25 24 24 24 24 24 23 24 24 24
39 39 41 41 40 40 39 38 36 36 36 36 39 38 38 40 40 39 39 38 38 37 37 36 35 33 31 30 29 28 26 25 25 25 25 25 24 23 23 23 24 22 24 24
37 37 39 40 40 38 38 39 37 35 36 38 38 36 38 40 40 39 39 39 38 37 37 36 35 33 30 30 29 28 26 25 25 25 24 23 23 24 24 24 22 22 23 23
38 38 40 40 41 40 38 38 40 38 38 37 38 38 39 39 38 38 39 39 38 37 36 36 35 32 31 30 28 28 26 25 25 25 24 23 23 22 22 22 21 22 22 23
41 38 40 40 41 41 39 40 37 38 35 35 37 37 37 37 38 38 38 38 38 38 36 36 35 32 31 30 29 28 26 26 25 25 25 25 24 23 22 22 21 21 21 21
40 40 39 40 38 38 38 38 39 39 38 36 36 37 39 38 38 38 38 38 38 38 36 35 35 33 31 30 29 28 27 26 25 25 25 24 23 23 22 22 22 22 21 21
40 39 37 38 40 40 40 38 38 37 36 37 37 37 40 39 39 38 38 38 37 37 36 35 35 33 31 30 29 28 28 27 26 26 25 24 23 22 22 22 22 21 21 21
40 38 37 37 39 39 38 39 40 39 39 35 36 37 38 38 38 38 37 38 37 36 35 35 35 34 31 30 29 29 28 28 28 26 25 24 23 22 22 22 22 21 21 21
38 38 37 37 37 39 37 38 39 39 38 37 37 37 37 38 37 37 37 37 37 36 36 35 35 34 31 30 29 29 28 29 28 27 26 25 23 22 22 22 22 22 21 21
38 36 37 38 39 39 39 38 38 38 38 37 38 36 37 37 36 36 36 36 37 36 35 35 34 34 31 30 28 28 28 27 27 27 25 24 24 23 22 22 22 22 22 21
37 36 37 37 39 39 39 39 39 38 38 38 38 38 38 38 37 36 36 36 36 36 35 34 34 33 31 29 28 28 27 27 26 25 25 24 24 23 23 22 22 22 22 22
36 36 36 35 38 38 37 38 38 38 39 38 37 37 37 36 36 36 35 35 35 35 35 34 33 33 31 29 28 28 27 27 26 25 24 24 24 23 23 23 22 22 22 22
36 35 36 36 36 34 37 39 39 38 38 38 37 37 36 36 36 36 35 35 34 35 35 34 33 32 30 29 28 28 28 27 26 25 24 24 24 23 23 23 22 22 22 22
36 35 35 34 35 36 37 36 37 37 36 38 37 36 36 36 36 35 36 35 34 34 34 34 33 32 30 29 29 28 28 27 26 25 24 24 24 24 24 23 23 22 22 21
35 34 34 34 33 33 34 36 37 37 34 37 37 36 35 36 34 33 34 34 33 33 33 32 32 31 29 29 30 29 28 27 26 25 25 25 24 24 24 23 22 22 22 21
33 33 33 34 33 35 37 36 36 32 33 35 36 35 35 34 35 34 34 33 33 33 32 31 31 30 29 29 30 29 28 27 26 26 25 25 24 24 23 23 21 18 21 21
32 33 33 34 33 32 36 36 34 32 34 34 34 35 34 34 35 35 34 33 33 32 31 31 30 30 30 29 29 28 28 27 26 25 25 25 24 23 24 22 21 21 21 20
32 32 32 31 28 32 34 32 32 32 32 32 32 33 33 33 34 35 34 33 33 32 32 31 31 30 30 29 28 27 26 25 25 25 25 24 23 23 22 22 21 21 21 20
30 32 32 32 31 31 31 32 31 31 31 32 32 32 33 33 33 34 34 33 32 32 31 31 31 30 29 28 26 24 24 24 24 24 23 22 22 22 22 21 22 22 21 19
32 31 31 31 32 30 31 29 29 30 31 31 32 32 32 32 33 33 32 31 31 30 30 29 28 28 27 25 25 24 23 23 22 23 23 22 23 22 22 20 19 19 17 17
32 31 30 30 27 27 27 28 29 29 30 30 31 31 32 32 32 32 30 29 29 27 27 26 26 26 25 24 23 22 22 22 22 23 23 23 23 23 23 17 17 15 15 14

GFSCGP_925_temp_006.txt.gz
Temp
38 37 37 40 40 41 41 40 38 39 38 37 36 36 37 38 37 36 36 35 35 35 34 33 31 30 30 29 29 28 27 27 26 25 24 24 24 24 24 24 25 25 24 24
38 37 40 41 41 41 41 40 40 40 41 40 36 35 37 38 37 37 36 35 35 35 34 33 32 32 31 30 28 28 27 26 25 24 24 24 25 25 25 25 25 25 24 24
37 39 41 41 41 40 40 40 40 40 40 40 39 35 31 36 38 38 37 36 36 35 34 33 32 32 32 30 29 28 27 26 25 25 25 25 25 26 26 26 26 24 24 24
38 40 40 40 40 40 39 41 40 41 39 37 39 36 32 35 37 37 37 37 37 36 35 34 33 32 32 30 29 28 28 27 26 26 26 26 26 26 26 26 25 24 24 23
38 40 40 39 40 41 39 41 40 40 39 39 39 37 35 37 36 37 37 38 37 37 36 35 34 33 32 30 30 28 27 26 26 25 26 25 25 25 25 25 24 24 24 23
40 41 41 40 41 41 41 40 40 40 39 37 38 38 34 33 36 36 37 38 38 38 37 36 35 33 33 31 30 28 26 26 25 25 25 25 25 24 24 23 23 23 24 24
39 40 41 41 40 41 40 39 36 36 36 36 40 38 37 38 39 37 30 28 38 38 37 36 35 33 33 31 30 27 26 25 25 25 25 25 25 24 23 23 23 23 24 24
37 37 40 41 40 40 39 39 37 35 36 38 40 37 38 40 40 38 37 36 39 38 37 36 35 33 32 30 29 28 25 25 25 25 25 24 23 23 23 23 22 22 23 23
38 38 41 41 41 41 39 38 40 39 39 38 38 39 40 40 40 40 40 40 38 38 38 37 36 33 31 30 29 27 25 25 25 25 24 23 23 23 23 22 22 22 22 22
40 38 40 41 41 41 40 40 37 38 36 35 38 38 38 37 38 39 39 39 39 38 38 38 36 33 31 30 29 27 26 25 25 25 24 24 24 23 22 22 22 21 21 21
41 40 39 40 39 39 39 39 39 39 38 37 36 35 38 38 38 38 39 39 39 39 37 37 36 33 31 30 29 28 26 25 25 25 25 25 24 24 23 22 22 22 22 21
41 40 38 39 41 41 41 39 39 37 36 37 37 37 40 39 39 39 38 38 38 38 37 37 36 33 31 31 29 28 27 26 25 25 25 24 23 23 23 22 22 22 22 21
40 39 37 38 40 40 39 40 40 39 39 36 36 36 39 39 39 39 38 38 37 36 37 36 36 34 32 31 30 29 28 27 26 26 25 24 24 23 22 22 22 22 22 21
39 39 37 37 38 39 38 39 39 39 37 37 37 36 37 38 38 37 37 37 37 36 36 35 34 34 32 31 30 29 29 29 28 26 26 25 24 23 22 22 22 22 22 22
40 37 38 39 39 39 39 39 39 38 38 37 37 35 34 34 37 36 36 36 37 37 36 34 34 34 32 30 29 29 29 29 29 28 26 25 24 23 23 22 22 22 22 22
39 36 37 37 39 39 38 39 39 39 39 39 39 38 35 37 37 37 36 36 36 36 36 36 34 33 31 30 29 27 28 28 28 27 26 25 24 23 23 23 22 22 22 22
37 37 35 35 37 37 37 38 39 40 39 39 36 38 37 36 36 36 36 35 35 35 35 35 34 30 31 30 28 26 28 27 27 26 25 25 24 24 23 23 23 23 22 22
36 35 36 35 36 34 38 40 40 40 39 40 38 37 35 36 36 36 36 36 35 35 35 35 35 34 31 30 29 28 27 27 26 25 25 24 24 24 23 23 23 23 22 22
25 32 34 34 35 36 37 38 35 33 35 39 38 37 37 37 36 35 36 36 35 35 34 34 35 34 32 30 29 28 27 27 26 25 24 24 24 24 23 23 23 22 22 22
32 29 28 34 33 33 36 37 36 34 33 34 34 34 36 35 34 32 34 35 34 34 34 34 34 33 31 30 28 27 27 26 26 25 25 24 24 24 24 23 23 22 22 22
34 34 33 33 33 35 37 36 34 29 28 29 33 33 33 33 34 34 34 34 34 34 33 32 33 32 30 30 29 27 27 27 27 26 25 25 24 24 24 24 23 22 22 21
33 32 33 34 33 33 36 33 32 32 32 34 34 33 34 34 34 34 35 33 33 33 33 32 31 29 29 29 28 27 27 27 27 26 26 26 25 24 24 23 22 22 21 20
33 27 26 28 25 24 33 32 32 33 32 32 32 33 33 33 33 34 33 33 33 32 32 32 31 29 29 29 29 28 27 26 26 26 25 25 25 24 23 22 21 20 20 20
27 28 29 25 21 20 29 30 31 32 31 32 32 33 33 32 33 33 33 33 32 29 31 31 30 29 28 28 26 25 24 24 24 24 24 24 23 22 22 22 21 21 20 19
25 20 22 28 21 28 28 29 30 31 31 32 32 32 32 32 32 32 32 32 29 28 26 24 23 21 19 18 18 21 23 23 23 23 23 23 22 22 22 18 16 19 17 17
31 27 27 26 26 27 27 29 30 29 30 30 30 31 32 32 32 32 30 27 27 26 25 23 22 19 18 17 18 21 23 22 22 22 23 23 23 22 21 18 14 15 16 16

GFSCGP_925_temp_009.txt.gz
Temp
34 32 31 32 34 35 36 36 34 36 36 34 33 33 33 33 33 32 31 30 30 30 29 29 29 29 29 28 28 28 27 27 25 25 24 24 24 24 24 25 25 25 24 24
33 31 34 36 36 37 37 36 33 35 36 33 33 33 34 30 31 33 32 31 31 29 29 29 28 28 28 28 28 27 27 26 25 25 25 24 24 24 25 25 25 24 24 23
32 34 37 36 37 37 36 36 35 35 36 36 33 31 27 30 31 33 33 32 32 30 29 28 28 28 28 27 27 27 27 27 26 26 25 24 25 25 25 24 24 24 24 24
34 36 37 36 37 37 34 38 39 38 34 30 33 27 27 28 30 33 33 32 32 30 30 29 29 29 27 28 28 27 27 27 26 25 25 24 25 25 25 24 24 24 24 23
34 35 36 36 37 38 36 38 38 37 35 34 33 30 29 28 28 32 33 33 33 31 30 30 30 30 28 28 28 28 27 26 25 25 25 25 25 25 24 24 24 25 24 24
35 37 37 37 38 38 39 38 36 35 32 29 32 31 27 29 31 34 34 34 34 32 31 31 31 31 28 28 28 28 27 26 25 26 25 25 25 24 24 23 24 24 23 23
35 36 37 38 36 37 38 34 30 29 30 29 32 32 29 33 35 34 31 31 31 33 32 31 30 30 28 27 27 27 26 26 25 25 25 25 24 24 23 23 23 23 23 22
31 32 36 38 35 34 34 31 28 30 30 32 34 33 32 35 35 34 33 33 34 31 33 31 30 30 28 27 26 26 26 26 25 25 25 25 24 23 23 23 22 23 23 22
32 33 37 38 39 36 34 32 33 32 34 31 33 35 35 34 33 34 33 32 33 33 32 32 30 30 29 27 25 26 26 26 25 25 25 24 24 23 22 22 22 22 22 22
33 31 36 38 38 37 34 35 33 28 31 30 32 33 31 32 32 32 31 30 31 30 33 33 30 30 29 27 25 26 26 26 25 25 25 24 23 23 23 22 22 21 22 22
35 32 35 36 35 34 34 33 33 30 29 29 30 31 33 32 32 32 33 32 31 31 30 28 29 30 28 27 25 25 25 25 24 24 25 24 23 23 23 22 22 21 21 21
35 32 33 35 36 37 35 33 31 28 31 30 28 30 36 33 33 32 33 32 33 31 30 30 31 30 28 27 25 24 24 24 24 25 24 24 24 24 23 22 22 22 22 21
35 34 31 33 36 37 36 35 33 32 30 30 29 31 33 33 33 32 31 32 31 33 31 28 24 28 28 27 25 24 24 24 25 25 25 24 24 23 23 22 22 22 21 21
33 32 31 31 33 35 34 36 35 32 29 30 30 32 30 30 31 33 32 32 31 30 29 30 29 29 29 28 25 25 25 25 25 25 25 24 24 23 23 22 22 22 22 21
34 30 32 33 36 37 37 36 36 33 31 30 33 30 29 31 31 32 32 35 35 34 30 28 28 29 28 28 25 25 25 25 25 25 25 24 24 23 23 22 22 22 22 22
35 30 33 35 36 37 36 37 36 36 35 34 33 31 32 32 30 30 32 32 32 32 32 31 28 27 28 28 25 24 25 25 25 25 25 25 24 23 23 23 22 22 22 22
31 30 29 31 35 34 32 35 35 35 36 34 32 32 29 29 30 29 30 32 33 33 33 32 31 26 29 27 26 25 24 25 26 25 26 25 24 24 23 23 22 22 22 22
27 28 28 29 33 30 32 36 35 31 31 31 32 31 32 30 31 30 29 30 31 31 31 31 28 27 28 27 24 24 23 25 25 25 25 25 24 24 23 23 22 22 22 22
26 25 23 26 28 32 34 35 32 32 29 31 30 30 33 32 28 29 31 30 29 31 30 29 32 29 28 25 25 24 25 25 24 25 25 25 25 24 23 23 23 23 22 22
25 24 23 21 23 27 31 33 32 33 27 30 30 29 28 30 26 27 30 30 31 31 31 31 33 30 27 25 24 24 23 24 23 25 25 25 24 24 23 23 23 23 22 22
25 25 24 22 23 24 28 28 32 26 27 30 29 28 29 27 27 27 29 31 30 30 31 32 32 28 27 26 23 22 23 24 25 26 25 25 24 24 24 23 23 23 22 22
26 25 24 25 24 24 26 29 28 27 26 28 28 29 28 28 29 29 29 31 28 29 30 31 28 27 27 26 25 22 23 24 25 25 25 25 24 24 24 23 23 23 22 19
21 21 25 23 23 22 21 21 24 26 25 26 27 28 28 28 28 29 29 29 27 26 28 30 26 21 20 22 22 18 17 19 18 25 25 25 24 24 24 23 22 20 19 17
23 20 21 22 21 21 21 21 21 21 24 25 26 27 27 27 27 28 27 26 22 22 19 18 18 16 15 15 20 20 21 21 17 17 23 23 23 23 22 21 19 19 18 18
20 20 20 20 20 22 22 23 23 25 25 26 26 26 26 27 27 28 25 21 19 19 19 19 19 18 20 18 19 21 23 25 20 19 22 22 23 23 21 20 18 19 19 17
21 19 19 17 18 18 19 20 26 25 25 25 25 25 26 26 27 24 22 20 19 18 19 18 17 18 18 20 20 22 24 23 19 20 21 21 22 22 19 17 16 15 15 15

GFSCGP_925_temp_012.txt.gz
Temp
31 29 29 30 30 31 33 32 32 34 33 31 30 29 30 30 30 30 29 29 29 28 28 28 28 28 28 28 28 28 27 26 25 25 24 24 23 24 24 24 24 24 24 23
30 28 30 32 33 33 33 33 33 33 34 31 30 30 31 31 30 30 30 29 29 28 27 27 27 27 28 28 29 28 27 26 25 25 25 24 24 24 24 24 24 24 24 24
28 30 33 34 33 33 33 32 34 32 33 32 31 29 28 30 31 30 31 30 29 27 27 27 26 27 28 28 28 27 27 27 25 25 24 24 24 23 24 24 24 23 23 24
29 32 33 33 32 33 30 34 36 33 33 29 31 28 27 30 30 30 30 30 29 28 28 27 27 26 26 27 28 27 26 26 25 25 24 24 24 24 23 23 24 24 24 23
30 32 32 32 34 34 33 34 34 34 32 30 30 27 31 27 29 29 29 30 30 28 28 27 27 27 27 27 28 27 26 26 26 25 25 24 24 24 24 23 23 24 23 23
31 33 32 33 35 34 35 36 30 29 27 27 29 30 27 26 30 30 29 31 30 29 28 28 28 27 27 27 27 27 26 26 26 25 24 24 24 23 23 23 23 23 23 23
32 33 34 35 33 33 35 29 28 29 27 27 26 29 31 28 31 31 30 31 31 30 29 28 27 26 26 26 26 26 26 26 26 24 25 24 24 24 23 23 23 23 23 22
27 30 33 34 33 32 30 29 26 29 28 29 29 30 32 30 32 31 32 32 32 30 30 28 28 27 26 26 25 25 25 26 25 25 25 25 24 24 23 23 23 22 22 22
26 29 33 34 35 33 33 29 29 28 29 28 29 31 31 32 31 32 30 32 31 30 30 29 29 28 27 26 25 25 25 25 25 25 25 24 24 23 23 22 22 22 22 21
29 29 31 34 34 33 33 31 30 25 29 30 28 30 29 30 30 31 31 31 30 31 30 29 29 29 27 27 26 25 24 25 25 25 24 24 24 23 22 22 22 22 21 21
29 28 31 34 31 32 31 31 29 28 25 27 27 28 28 29 30 30 31 31 29 29 30 30 28 29 27 27 26 24 23 23 25 25 24 24 24 23 23 22 22 22 21 21
28 26 30 31 32 34 31 30 28 27 29 26 26 27 31 30 30 31 30 30 27 27 28 30 29 29 28 26 25 24 23 22 25 25 24 24 24 23 22 22 22 22 21 21
30 26 29 29 30 32 32 31 28 25 24 27 27 28 29 30 29 30 29 29 27 26 26 27 29 28 27 26 24 23 23 22 24 24 24 24 24 23 23 22 22 22 22 21
31 25 28 30 29 31 33 32 30 28 26 26 27 30 30 29 29 28 28 28 26 27 27 27 27 27 27 26 24 24 23 23 23 23 23 24 23 23 23 23 22 22 22 21
31 28 27 28 33 32 34 35 31 30 29 31 30 29 27 28 29 29 28 28 28 27 26 26 27 25 26 26 25 24 23 22 23 22 23 23 23 24 24 23 23 22 22 21
26 28 28 31 33 33 34 34 34 33 31 32 30 29 27 30 29 28 30 29 29 29 27 25 25 26 27 26 25 23 23 22 23 23 22 23 23 24 24 23 23 22 22 21
27 28 26 30 31 32 32 33 34 34 32 33 29 30 27 28 29 27 28 28 28 29 29 26 25 26 27 27 26 23 23 22 23 22 22 23 23 23 23 23 22 22 22 22
24 25 24 28 29 30 30 33 33 30 29 28 31 29 30 29 28 27 27 27 28 29 29 28 25 24 27 27 26 24 22 21 23 22 22 23 23 23 23 23 22 22 22 22
23 23 22 25 27 29 32 28 30 30 29 28 26 29 28 27 27 28 27 28 28 27 27 27 30 30 28 27 25 22 21 22 21 20 22 23 23 23 23 22 23 23 22 22
24 22 24 22 27 28 27 26 26 28 26 28 27 27 27 27 25 24 27 27 27 27 29 30 31 29 26 25 23 22 21 20 19 21 22 23 25 24 22 23 23 23 22 22
21 20 22 21 23 23 23 24 28 25 25 27 27 27 27 27 25 26 27 29 27 28 30 31 30 27 25 24 22 20 20 20 20 21 23 24 23 22 23 23 23 23 22 20
19 21 20 20 23 24 23 24 24 23 22 25 25 24 24 24 26 27 26 28 28 28 28 28 22 21 23 22 20 18 19 20 21 21 20 19 20 22 24 24 23 21 21 18
21 20 20 19 19 19 19 21 20 19 22 23 24 24 24 25 25 25 24 24 24 25 22 20 18 17 19 21 21 20 19 20 20 20 20 21 19 17 17 21 22 20 18 17
20 19 19 20 21 19 20 21 20 21 21 21 22 22 23 23 23 24 24 22 20 18 17 17 17 17 16 19 19 18 18 19 20 19 21 20 20 20 21 19 20 19 18 18
19 19 19 19 19 19 21 21 21 22 22 22 22 23 23 23 23 23 21 19 17 17 17 17 17 16 15 16 18 19 20 21 19 19 20 20 20 19 18 18 18 18 17 17
18 18 18 18 18 18 19 19 22 22 21 23 22 24 23 23 23 22 21 18 18 18 18 18 17 17 18 19 19 18 19 20 20 20 19 18 18 18 16 15 14 14 15 15

GFSCGP_925_temp_015.txt.gz
Temp
29 28 27 28 29 30 29 29 29 30 31 29 28 27 28 28 28 27 27 27 28 27 27 27 26 26 26 26 26 26 25 25 25 24 24 24 24 24 24 24 23 23 23 23
28 27 29 30 30 30 31 30 30 32 30 29 27 27 29 28 28 28 28 28 28 27 26 26 26 26 26 27 27 26 26 25 25 25 25 24 24 24 23 23 23 24 24 23
26 29 30 31 31 31 30 30 30 30 30 29 28 27 27 28 29 29 29 29 28 27 26 26 26 26 26 26 26 27 26 26 27 25 25 24 23 23 23 23 24 23 23 23
28 30 31 31 31 31 30 31 32 31 30 28 29 25 26 27 28 29 29 29 28 28 27 26 26 25 25 27 27 27 27 27 26 25 24 24 23 23 23 23 24 23 23 23
28 30 30 31 31 32 31 31 31 31 30 28 28 26 26 27 26 28 29 29 29 28 27 27 26 26 26 27 27 27 27 26 26 25 24 24 23 23 23 23 23 23 23 23
29 31 31 31 32 32 33 33 27 25 25 26 28 28 26 26 29 29 30 29 29 28 28 27 27 27 26 26 27 28 27 26 26 25 24 24 23 23 23 23 23 23 23 23
30 31 32 33 32 31 31 28 26 27 26 25 26 27 29 28 30 31 30 28 29 29 28 27 27 26 25 25 26 27 27 26 25 25 24 24 24 24 24 23 23 22 22 22
26 28 30 32 30 30 28 27 24 27 25 27 25 27 30 31 31 32 31 30 29 28 28 27 27 26 26 26 25 25 25 25 25 25 24 24 24 24 23 23 23 22 22 22
24 26 31 31 32 30 30 27 28 26 25 25 25 28 30 30 29 31 31 30 29 29 28 27 27 27 27 26 25 25 24 24 24 25 24 24 24 24 23 23 22 22 22 22
27 27 28 32 31 31 31 28 29 23 27 28 27 30 28 32 29 28 30 29 29 29 28 28 27 27 26 26 26 25 24 23 24 24 24 24 25 24 23 23 22 22 22 21
25 26 29 31 29 31 29 28 26 25 24 26 26 27 26 31 28 27 28 30 30 30 28 28 27 27 26 26 26 25 24 23 23 24 24 24 24 24 23 23 22 22 21 21
26 25 28 29 29 31 29 29 28 29 26 23 25 26 29 28 27 29 29 29 29 30 28 28 28 28 27 26 26 25 23 23 23 24 24 24 24 23 23 22 22 22 21 21
25 23 25 26 28 30 30 28 26 24 22 24 26 27 28 28 27 27 28 26 26 27 27 28 28 27 28 26 26 25 23 23 22 23 24 24 24 23 23 23 22 22 22 21
28 22 29 29 29 28 31 30 26 28 25 25 25 29 30 28 27 26 26 25 26 27 27 27 27 27 28 27 26 24 23 22 21 22 23 24 23 22 23 23 22 22 22 21
29 26 24 30 31 29 31 31 28 28 29 30 30 27 28 27 27 27 28 26 25 26 26 26 27 27 26 26 25 23 23 22 22 22 21 22 22 22 23 23 23 22 22 21
25 26 25 27 28 30 31 31 31 30 28 30 28 28 27 29 26 27 28 27 26 24 25 26 26 24 23 25 24 23 23 22 21 21 20 19 18 20 20 22 23 22 22 22
24 27 24 29 29 29 29 30 31 30 30 30 29 28 25 28 27 27 26 26 27 26 24 23 23 22 23 25 24 23 23 22 20 20 19 18 20 20 20 20 21 22 22 22
24 26 23 29 27 28 31 30 30 28 29 28 28 29 27 29 29 28 26 26 25 26 25 24 23 23 26 26 25 24 23 22 20 20 18 19 18 17 19 19 21 22 23 21
20 22 21 26 26 30 28 27 26 27 29 27 27 27 27 26 28 28 27 27 26 25 24 24 27 27 28 27 26 24 22 21 19 19 19 20 19 18 18 19 21 22 21 22
21 19 23 21 26 27 26 24 24 22 25 26 26 26 25 27 29 25 27 27 27 26 26 25 27 26 27 27 26 23 20 19 19 19 18 18 19 19 19 20 21 22 23 22
19 19 20 21 22 24 22 21 23 27 25 21 23 24 25 24 23 24 24 25 26 26 27 26 27 28 27 24 23 20 19 19 19 19 19 19 19 19 19 19 18 18 20 21
19 20 18 19 20 23 22 22 24 22 21 23 22 21 21 21 22 22 22 22 23 24 25 25 23 21 22 22 23 19 18 19 19 20 20 20 19 19 20 20 20 20 17 16
21 20 20 18 19 19 18 19 19 19 19 21 22 22 23 23 22 22 21 21 21 20 20 20 20 18 19 20 21 18 17 18 19 19 19 19 20 20 21 20 21 20 17 15
20 18 19 19 21 20 19 19 19 20 20 20 20 21 22 22 22 21 20 19 19 17 17 17 17 16 15 17 18 18 17 19 20 19 19 20 21 20 19 20 20 18 15 15
19 19 18 18 20 19 20 19 19 19 20 20 21 21 21 21 22 22 21 19 18 17 17 17 15 15 15 17 19 19 19 20 19 20 21 21 21 18 18 17 16 15 15 15
18 17 17 18 18 18 19 19 21 20 20 21 21 21 20 21 21 21 21 19 18 17 16 16 16 16 17 17 17 18 19 20 21 20 19 18 17 17 18 16 14 14 14 15

GFSCGP_925_temp_021.txt.gz
Temp
30 31 31 33 34 36 35 34 34 32 32 31 31 31 30 29 29 30 29 28 29 28 29 27 26 26 25 24 24 23 23 23 22 22 22 22 23 23 22 22 23 23 23 23
29 30 32 33 33 33 33 34 34 32 31 32 31 31 31 30 29 30 29 29 29 29 29 27 27 26 25 24 24 23 23 23 24 23 23 23 23 23 23 22 22 23 23 23
30 32 31 31 32 32 33 34 33 34 32 32 32 32 31 30 30 30 30 30 30 29 29 28 27 27 26 25 24 24 24 24 25 23 22 21 22 22 22 22 22 22 23 23
30 32 31 31 32 33 33 33 34 34 32 32 32 32 32 32 30 30 30 30 30 30 30 30 28 27 26 25 25 24 24 24 24 23 22 22 23 24 24 23 22 22 23 23
30 30 30 32 32 32 34 33 33 34 33 33 30 31 35 30 30 31 31 31 31 31 31 30 29 28 27 26 25 25 25 25 25 23 23 23 23 24 23 22 23 23 23 22
31 30 32 32 34 33 32 32 31 31 33 30 33 32 34 32 31 33 32 32 32 32 31 31 30 29 27 26 26 25 24 25 25 23 23 22 23 23 22 22 22 21 21 21
30 31 32 33 33 33 33 33 31 30 29 31 33 31 34 36 35 35 35 33 32 32 32 31 30 29 27 26 26 25 24 24 24 23 23 23 22 22 22 23 22 21 21 21
29 29 31 33 34 32 32 34 33 30 30 32 29 30 33 35 36 34 34 35 33 32 32 31 30 29 28 27 26 25 24 24 24 23 23 22 22 22 23 23 22 22 22 21
29 29 30 32 33 34 32 31 36 33 29 32 33 31 32 34 34 35 35 34 33 33 32 32 31 29 28 27 26 25 25 24 24 24 23 22 22 22 23 23 23 23 22 21
29 29 32 32 33 32 33 34 32 32 31 31 32 31 35 34 35 35 35 34 34 33 33 32 32 30 29 28 27 26 25 25 25 24 23 23 22 23 23 22 23 22 23 22
31 31 30 31 32 33 31 31 31 34 33 33 32 33 34 36 36 37 37 36 35 34 32 32 31 30 29 28 27 26 25 25 24 24 24 23 22 21 23 23 23 23 22 22
30 31 30 31 33 32 34 33 33 33 30 31 33 34 35 35 37 36 35 36 34 33 32 32 31 30 29 28 28 27 26 26 25 25 23 22 21 22 24 23 23 23 22 21
28 29 29 30 31 31 31 32 34 34 34 32 32 34 33 32 32 33 33 35 32 30 30 30 31 30 29 28 28 27 27 27 27 25 23 21 20 22 24 24 24 21 21 21
29 29 30 30 31 32 31 31 31 32 32 33 32 34 35 35 34 34 32 32 32 29 30 30 30 29 29 28 27 27 27 27 26 25 23 20 19 21 23 22 23 21 23 20
28 27 28 31 32 32 32 32 32 31 32 33 34 32 35 36 36 35 35 33 30 29 29 29 29 29 28 27 26 26 26 26 26 24 22 21 19 21 20 21 21 22 22 21
26 28 27 29 31 32 32 33 33 32 33 32 34 33 35 36 33 32 33 33 31 30 30 29 29 29 28 27 26 26 26 25 25 23 22 20 18 20 19 19 19 21 21 20
26 28 27 29 31 30 30 32 32 33 33 32 32 33 35 32 31 32 33 32 32 31 31 30 29 28 27 27 26 26 25 24 23 22 21 19 18 19 19 19 18 18 19 18
25 25 26 28 28 27 31 33 34 33 33 33 34 33 33 33 33 32 31 32 31 32 31 30 29 29 27 27 26 25 25 23 22 21 20 19 19 19 19 18 17 17 17 17
25 24 26 27 28 30 29 29 31 32 32 32 31 33 31 31 30 31 28 29 30 29 28 28 29 28 26 26 25 24 23 23 22 21 20 19 19 19 18 18 17 18 17 18
22 23 27 24 27 27 30 25 25 26 31 28 27 29 29 29 32 33 27 28 29 29 28 27 26 26 26 25 24 24 23 22 22 21 20 19 19 19 18 18 18 17 17 17
25 22 24 23 25 28 23 23 24 28 31 25 25 28 28 29 27 25 26 27 27 27 26 26 27 27 25 24 24 24 23 23 22 21 20 19 18 18 18 18 17 17 17 17
25 24 22 23 23 26 22 24 26 24 24 25 25 26 25 25 25 25 25 25 25 26 26 25 24 23 22 22 23 23 22 22 20 19 19 18 18 18 18 17 17 17 17 17
24 24 20 19 22 21 21 21 22 23 23 24 25 26 26 26 26 26 25 24 24 24 24 24 24 22 21 21 22 21 19 20 19 19 19 18 18 18 17 17 17 17 17 18
21 21 20 21 22 21 21 22 22 23 22 23 23 24 25 24 26 25 25 24 23 23 23 23 24 23 21 20 20 20 18 18 19 19 18 18 18 18 18 18 18 18 17 17
17 20 20 19 17 20 21 21 21 22 22 22 22 23 23 23 21 22 22 22 23 22 20 19 20 20 19 18 18 18 17 17 19 18 18 18 17 17 15 16 16 17 16 17
15 16 21 20 19 19 20 19 20 20 19 20 21 21 22 23 22 22 21 21 21 21 19 20 19 20 18 17 17 17 17 18 18 18 18 18 17 16 15 16 14 15 15 16

GFSCGP_925_temp_024.txt.gz
Temp
34 34 34 36 38 38 39 38 38 38 37 36 36 36 36 34 35 35 35 33 33 33 33 31 30 29 29 28 27 26 25 25 24 25 25 26 25 24 25 25 24 24 23 23
34 33 36 38 38 38 38 38 38 38 36 36 37 36 36 36 34 35 35 34 33 34 33 32 31 30 29 28 27 26 25 25 24 25 25 26 26 27 27 26 25 24 24 24
34 35 37 37 37 37 37 37 38 38 36 36 37 36 36 37 36 35 35 35 35 34 34 33 31 30 30 29 27 27 25 25 25 25 25 25 25 25 25 26 25 25 24 24
34 37 35 35 35 37 37 38 38 38 36 35 36 36 38 38 36 35 35 35 35 35 34 34 33 31 30 29 28 27 26 25 25 25 26 25 26 27 28 27 26 25 24 24
34 34 34 34 35 37 37 39 38 38 37 37 36 35 38 38 37 37 36 36 36 36 35 35 34 32 31 30 29 28 26 25 25 25 25 25 25 27 27 26 25 24 24 23
35 35 35 35 36 37 38 37 37 38 37 35 37 36 37 38 37 38 38 37 36 36 36 35 34 33 32 31 30 29 27 25 25 25 24 25 26 26 27 26 25 26 25 24
33 34 35 36 35 37 36 36 34 34 35 35 38 36 37 39 40 39 40 39 38 37 37 36 35 34 32 31 30 30 28 26 25 25 25 24 25 25 25 25 25 26 26 25
32 32 34 35 36 36 36 37 35 33 34 35 37 35 37 39 40 40 41 40 40 38 37 36 35 34 33 32 31 29 28 26 26 26 25 25 24 25 25 25 26 26 26 25
33 33 36 36 36 37 36 36 38 37 37 36 37 37 38 39 39 39 40 40 39 39 38 37 36 34 33 32 31 29 28 26 26 26 25 25 24 24 26 25 24 25 25 25
34 32 35 35 36 36 37 37 36 37 34 34 36 37 37 38 38 39 40 40 41 40 39 38 37 36 34 33 31 29 28 27 27 27 26 26 25 24 25 24 23 24 23 23
35 33 34 35 34 35 35 35 37 37 37 35 35 36 39 38 39 40 41 41 42 41 40 39 37 36 34 33 32 30 29 28 27 27 26 26 26 25 24 24 23 23 21 21
34 34 32 33 36 36 37 35 36 35 34 36 36 37 41 40 40 40 41 41 42 41 41 40 38 36 35 33 33 32 30 29 28 28 26 26 26 25 23 23 22 22 21 22
34 33 31 32 35 36 35 36 37 37 37 36 35 36 40 39 39 39 40 40 40 38 37 38 38 36 35 34 33 33 31 31 30 29 28 27 26 24 23 23 22 22 23 21
31 33 32 33 33 34 33 34 36 37 36 36 36 37 38 39 39 39 40 40 40 38 36 36 36 36 34 33 32 32 32 32 31 30 29 27 25 23 23 23 21 23 22 22
32 31 33 33 35 35 35 34 34 35 35 35 36 36 37 38 39 39 40 41 40 38 35 35 35 35 34 33 32 31 31 31 31 30 29 27 25 23 22 23 21 23 22 22
31 30 31 32 34 34 34 35 35 35 35 35 36 36 39 39 39 39 39 40 40 38 36 35 34 34 33 32 31 30 30 30 29 29 28 26 24 22 23 22 21 21 21 22
30 30 30 30 33 33 33 34 35 35 36 35 35 36 38 37 38 38 39 39 39 39 38 36 34 34 33 32 31 30 29 29 28 28 27 25 24 22 22 22 21 20 20 21
30 29 31 31 32 30 34 36 36 35 36 37 36 36 37 37 38 39 39 39 39 39 39 37 36 35 32 32 31 30 29 28 27 27 26 25 23 22 22 22 21 20 20 20
30 29 30 30 32 33 34 34 34 34 34 36 37 37 37 38 38 36 37 37 37 38 38 37 36 35 32 32 30 29 28 27 27 26 25 24 23 22 22 21 21 21 20 20
30 28 29 30 30 30 29 29 28 29 31 36 37 36 37 37 35 36 38 34 34 35 35 34 33 33 31 31 30 28 28 27 26 26 25 24 23 22 22 21 21 20 20 19
27 28 28 30 30 32 26 27 28 29 31 29 36 37 37 36 37 33 32 32 33 33 33 32 32 31 30 30 29 28 27 27 27 26 25 23 23 22 21 21 20 20 19 20
27 28 29 31 29 29 25 28 29 26 28 29 30 31 33 34 30 31 30 30 30 30 30 30 29 28 28 27 27 28 27 26 25 25 24 22 22 21 20 20 19 18 18 18
28 30 31 29 29 25 25 24 25 26 26 28 29 30 30 30 30 30 30 30 30 30 30 29 27 26 26 26 26 26 24 24 24 23 22 21 20 20 20 19 19 18 18 18
26 27 28 25 23 24 25 24 25 26 26 27 29 30 30 30 30 29 29 29 29 30 30 29 28 27 25 24 24 23 22 22 22 22 21 19 19 19 18 18 18 18 18 17
20 22 25 24 23 22 22 23 24 25 26 26 27 28 27 27 27 27 27 28 27 27 26 27 27 26 25 23 22 22 21 22 21 20 20 19 18 17 17 17 18 18 18 19
15 16 25 26 24 23 20 20 22 22 23 24 24 25 26 27 27 27 26 25 25 24 25 24 24 24 22 22 21 20 21 21 22 21 21 21 20 20 21 19 16 16 16 17

GFSCGP_925_temp_027.txt.gz
Temp
36 35 35 37 39 39 40 40 39 40 40 39 38 38 38 38 38 37 37 36 36 35 35 34 33 32 31 30 29 28 27 27 27 26 27 27 27 26 26 26 25 26 24 24
36 35 38 39 39 39 40 40 40 41 40 39 39 39 39 39 38 38 38 37 36 36 36 34 33 32 32 30 29 28 27 27 26 27 27 28 28 29 28 28 27 26 26 25
36 37 38 38 39 39 39 40 40 40 40 40 39 38 39 40 39 38 38 39 38 37 36 35 34 33 32 31 30 28 27 26 26 27 27 27 27 27 28 28 28 28 26 26
37 39 38 38 38 39 38 40 40 41 37 37 39 37 39 39 39 39 38 38 39 38 37 37 35 33 33 32 30 29 27 26 26 26 27 28 28 29 29 29 29 28 26 26
36 38 38 37 38 39 39 41 40 40 39 38 39 38 39 40 39 39 39 39 39 39 38 37 37 35 33 32 31 30 28 26 26 26 26 27 27 29 29 29 28 26 26 25
37 39 39 39 39 39 40 40 40 40 40 37 39 37 39 37 40 40 41 40 40 40 39 38 37 36 34 33 32 31 28 27 26 26 25 26 28 27 29 29 28 27 27 25
36 37 38 39 37 39 38 38 37 37 37 37 38 38 35 41 41 41 41 41 41 40 40 39 38 37 35 34 33 32 30 27 26 26 26 25 26 27 27 27 27 28 28 28
35 34 37 38 37 37 38 38 37 34 36 38 40 38 40 42 42 42 42 43 42 41 40 39 38 37 36 34 33 32 31 28 27 26 26 26 25 26 27 27 28 28 29 28
36 35 38 38 38 38 38 38 40 38 39 38 40 40 41 41 41 42 41 42 42 42 41 40 39 37 36 35 33 32 31 29 27 27 26 26 26 26 27 27 26 27 28 28
36 35 38 38 38 38 38 40 38 39 36 36 39 39 39 40 40 41 41 41 42 42 42 41 40 38 37 35 33 32 31 29 28 27 27 26 26 25 26 27 27 27 27 27
37 36 36 38 37 36 37 39 39 39 39 37 37 39 42 40 40 40 41 42 43 43 43 42 41 39 37 36 35 33 31 30 28 28 28 27 27 26 25 26 26 26 26 25
37 36 35 36 38 38 38 37 38 39 36 38 39 39 43 42 42 41 42 43 43 43 44 43 42 41 39 37 36 34 33 31 29 29 28 27 27 27 26 26 26 25 24 23
37 35 34 35 37 38 36 37 39 39 39 37 38 38 42 42 42 42 41 42 42 42 41 41 42 41 40 38 36 35 34 33 31 29 29 28 27 27 26 26 26 25 24 22
33 35 34 35 35 37 36 36 38 39 38 38 38 38 40 41 40 41 41 41 42 42 41 40 40 42 40 38 36 35 35 34 33 31 30 29 27 27 27 26 25 24 23 22
34 33 35 35 36 37 37 37 37 37 38 37 38 38 39 40 41 41 41 41 41 41 42 40 38 40 39 37 36 34 35 34 34 32 31 30 28 27 26 25 25 24 23 22
33 32 34 34 36 36 36 37 37 37 37 38 38 38 41 41 41 41 41 41 41 41 41 40 38 38 38 37 35 34 34 34 34 33 32 30 28 27 26 25 25 23 23 22
32 33 32 32 34 35 34 36 37 37 37 37 36 38 39 39 40 40 40 40 40 40 41 41 39 37 37 36 34 34 33 33 33 32 31 30 28 26 25 24 24 23 22 22
32 31 32 32 33 31 35 37 37 37 37 38 38 38 38 39 39 40 40 40 40 41 41 42 41 38 37 36 35 33 32 32 31 31 30 29 27 26 24 24 24 23 22 22
33 32 31 31 31 33 35 36 36 36 36 38 38 38 39 39 39 39 40 41 41 41 41 42 42 40 37 36 35 33 32 31 30 29 29 28 27 26 25 24 24 23 22 22
31 31 31 31 30 31 34 34 34 35 34 37 37 37 38 39 37 39 40 40 41 41 41 41 41 41 37 35 35 32 31 30 29 29 28 27 26 25 25 24 23 23 22 21
29 29 29 31 31 33 31 33 33 32 33 32 33 34 35 36 38 39 39 40 39 39 38 37 38 39 35 34 33 31 31 30 29 28 28 26 25 25 25 23 23 22 21 20
29 29 30 31 30 27 29 32 32 30 31 31 33 33 34 34 38 39 36 35 35 36 36 36 36 36 33 33 31 30 30 29 28 28 27 26 25 25 23 22 21 20 20 20
30 31 31 31 32 30 30 29 29 30 30 30 32 33 33 34 36 35 34 33 33 33 34 34 34 32 31 30 29 29 28 28 27 26 26 25 24 24 22 20 19 20 19 20
31 32 33 29 28 28 28 28 29 29 29 31 32 33 33 33 33 33 32 32 32 32 31 30 30 30 29 28 28 26 26 26 26 25 24 23 22 21 21 20 19 20 19 19
16 17 28 27 26 26 27 27 28 28 29 30 30 31 29 30 31 31 30 30 31 31 30 29 28 28 27 26 25 25 24 25 24 23 22 21 21 21 19 17 18 19 18 19
15 16 22 28 26 27 24 25 26 26 27 27 28 27 27 26 27 27 27 27 28 28 28 27 26 26 25 25 24 24 24 24 23 22 21 20 20 20 21 19 17 17 18 18

GFSCGP_925_temp_030.txt.gz
Temp
36 35 35 36 37 38 39 39 39 39 32 39 36 31 27 31 37 37 37 36 36 36 36 35 34 33 32 31 30 29 28 28 27 26 26 26 26 26 26 27 26 26 26 25
35 34 36 38 38 38 38 39 40 39 34 37 39 33 31 32 38 38 37 37 36 36 36 35 34 34 32 31 30 29 28 28 27 27 27 26 26 27 26 26 26 27 25 26
35 36 38 38 37 37 38 38 39 39 39 40 40 38 39 39 39 39 39 38 37 37 36 35 34 33 33 31 30 28 27 27 26 27 27 27 27 28 26 27 26 26 26 26
36 38 37 37 37 38 37 40 40 40 39 37 40 37 38 40 38 38 39 39 39 38 37 37 35 34 33 32 30 28 27 27 26 27 27 27 27 27 29 29 29 28 27 26
36 37 37 37 38 39 38 40 40 40 39 38 36 36 38 39 38 39 39 39 39 39 38 38 36 34 34 33 31 28 27 26 26 26 26 27 27 28 28 29 28 27 27 26
37 39 39 39 39 39 40 40 40 40 40 37 37 35 35 38 38 38 40 40 40 40 39 38 38 36 34 33 32 30 27 26 26 26 26 26 27 28 29 29 27 27 26 25
36 37 39 40 39 39 39 38 37 36 38 37 39 36 36 39 39 38 37 39 40 40 40 38 37 37 34 33 33 31 28 26 26 26 25 26 26 27 28 27 28 27 27 25
34 35 37 39 38 38 38 38 37 34 36 38 40 38 37 39 38 35 35 36 41 41 40 39 37 37 35 34 33 32 29 27 26 26 26 25 26 26 27 27 27 28 28 28
36 35 39 39 39 39 38 37 39 38 39 38 40 40 42 42 39 37 38 40 39 39 41 40 39 38 37 35 33 32 29 27 27 26 26 26 25 26 26 27 28 27 28 28
37 35 38 39 39 39 38 39 37 37 35 35 39 39 39 39 37 39 38 41 40 40 41 41 40 38 37 36 33 32 31 28 27 27 26 26 26 25 26 27 27 27 27 28
37 36 37 39 37 37 37 37 38 38 38 37 36 39 42 40 39 40 40 41 42 43 42 41 40 39 37 36 34 32 31 29 28 27 27 26 26 26 25 26 27 27 27 27
37 36 35 37 39 39 38 37 37 36 35 38 38 39 43 41 41 41 41 42 42 42 43 43 41 40 38 36 35 33 32 31 29 28 27 27 26 26 26 26 27 27 26 26
38 35 34 35 38 39 38 38 38 38 38 36 37 38 41 41 38 39 41 41 41 40 41 42 41 39 38 36 35 34 32 31 31 29 28 27 27 26 26 25 26 26 26 25
36 36 34 35 35 37 37 38 38 38 36 37 38 38 39 40 38 39 40 41 42 40 39 40 40 39 38 37 35 34 33 33 31 30 29 28 27 27 26 26 25 26 25 25
36 33 34 36 36 37 37 37 37 37 37 36 38 39 39 40 39 40 39 41 41 41 41 38 39 39 37 37 35 34 34 33 33 31 29 29 28 27 27 26 26 26 25 24
35 32 33 33 36 36 36 38 38 38 37 37 38 38 41 41 41 39 39 38 39 40 40 40 37 37 37 36 34 34 34 33 33 32 30 29 28 27 27 26 26 25 25 23
33 33 32 32 34 35 34 37 37 38 38 37 36 38 40 39 39 39 39 38 39 39 39 40 38 36 35 37 36 34 34 34 33 32 31 30 29 28 27 26 26 25 24 23
32 31 32 32 33 31 35 38 38 37 38 39 38 38 39 39 39 39 38 39 38 40 40 39 40 38 37 38 37 35 34 34 33 32 31 30 29 28 27 26 25 25 24 23
33 32 31 31 31 33 35 36 37 37 36 39 38 38 39 39 39 38 39 39 39 39 39 39 41 41 38 37 37 35 33 33 33 32 31 30 29 27 26 25 25 24 24 22
33 32 31 31 31 31 34 36 38 38 34 38 38 38 38 38 36 37 38 39 39 39 39 39 40 40 40 36 36 33 33 32 32 31 31 30 28 27 25 24 24 24 23 22
30 31 30 30 30 32 35 37 37 32 33 34 35 35 36 35 36 35 36 38 39 38 38 39 39 38 38 36 36 33 32 31 31 31 30 28 27 26 25 24 24 23 23 22
27 28 29 30 30 30 35 35 33 32 32 32 33 34 34 34 35 36 37 38 37 36 37 38 37 36 35 35 33 32 31 30 30 29 28 27 26 26 25 24 24 23 22 21
26 28 29 30 31 27 27 30 31 31 31 32 32 34 34 34 35 36 35 34 35 35 35 35 36 33 33 32 31 30 29 29 28 27 26 25 25 24 23 22 21 20 20 20
25 21 26 29 30 31 30 30 31 31 31 32 33 34 34 34 35 35 33 33 33 33 33 33 32 31 29 29 29 28 28 27 27 26 25 24 23 21 21 21 20 20 20 20
17 18 21 25 30 29 29 30 30 31 31 31 30 31 30 29 30 30 29 30 32 31 30 30 29 29 28 27 27 27 26 26 25 24 22 22 21 21 19 19 20 20 20 20
17 16 19 22 18 19 27 28 29 28 28 29 28 27 26 28 28 27 27 27 26 27 27 27 25 25 25 25 25 25 25 25 23 22 22 21 19 19 18 18 18 19 19 19

GFSCGP_925_temp_033.txt.gz
Temp
31 29 29 30 32 33 34 34 34 36 35 31 31 30 32 32 31 31 32 32 32 32 31 32 32 31 30 30 29 29 28 27 26 25 25 25 25 26 26 26 26 25 25 25
30 30 31 33 34 34 34 34 34 34 35 34 31 31 30 32 32 31 33 32 32 32 32 31 32 31 30 29 29 29 29 28 26 26 26 26 26 26 26 27 26 26 26 26
30 32 34 34 33 34 34 33 34 33 35 33 34 31 29 33 34 33 33 33 33 32 32 31 31 31 30 29 29 28 28 28 27 26 26 26 26 26 26 26 26 26 26 26
31 33 34 33 33 34 32 35 36 34 33 30 34 30 29 31 32 33 33 34 34 33 33 32 31 31 30 29 29 28 28 28 27 26 26 26 26 26 26 26 26 26 26 25
32 33 33 33 34 35 34 36 36 36 32 33 34 30 30 30 31 32 35 35 34 34 33 32 32 32 31 29 28 28 28 28 27 27 26 27 26 26 27 27 27 26 26 25
33 35 34 34 36 36 36 35 35 35 34 28 34 30 30 31 33 34 35 36 35 35 34 34 33 32 32 30 28 27 27 27 27 27 27 26 26 27 28 28 27 26 26 26
32 34 35 36 34 35 35 33 31 31 31 30 31 32 32 34 34 36 36 36 36 35 35 34 33 32 31 30 28 26 26 25 26 26 26 26 26 27 28 27 27 26 26 26
30 30 34 36 35 33 34 33 32 28 30 32 33 31 32 36 36 36 37 36 35 35 36 35 34 33 32 31 29 27 25 25 25 26 26 27 26 26 27 27 26 26 26 26
30 31 35 36 36 36 33 33 34 31 32 30 33 34 34 37 33 32 34 36 34 35 35 34 34 34 32 31 29 28 25 25 25 25 25 26 27 26 26 27 27 27 27 27
32 29 34 35 36 35 35 34 32 33 30 31 33 32 32 34 31 33 34 33 34 32 35 36 35 34 32 32 30 29 26 25 25 25 25 25 26 26 26 26 26 27 27 27
33 31 32 34 34 34 32 33 31 32 33 30 30 33 35 33 33 32 34 34 36 36 36 35 36 35 33 32 31 30 26 26 25 25 25 25 24 25 25 26 26 27 27 27
33 32 30 31 34 36 35 33 31 30 29 29 32 33 35 37 35 35 34 35 36 36 37 37 36 35 34 32 31 30 27 26 26 25 25 25 25 24 24 25 25 26 27 27
33 32 29 30 32 34 34 35 33 33 29 30 28 32 36 36 34 34 34 34 36 35 32 37 37 35 33 32 31 31 29 27 26 26 25 25 25 24 24 24 25 26 26 27
30 33 32 30 31 32 32 34 34 33 32 31 32 32 32 34 34 34 34 37 36 33 34 32 37 35 34 33 31 31 30 29 27 26 26 25 25 25 25 24 24 26 26 26
28 28 32 33 33 34 34 34 35 34 33 31 32 32 32 34 33 33 32 34 35 34 33 32 35 34 33 33 31 31 30 30 28 27 26 26 25 25 25 25 24 25 25 26
21 25 29 30 33 34 34 35 35 35 35 34 33 32 33 33 34 33 34 37 34 35 34 32 31 32 32 32 31 31 30 30 30 28 27 26 26 25 25 25 24 24 24 25
20 23 26 28 31 31 29 33 34 34 35 34 33 33 33 33 34 34 34 32 38 36 33 32 31 30 30 32 32 31 31 30 30 29 28 27 26 26 25 25 24 24 24 24
22 23 25 26 28 27 31 34 35 34 34 34 34 32 32 31 33 33 34 35 36 34 35 32 33 30 31 33 32 32 31 31 30 29 28 27 27 26 25 25 24 24 24 24
26 24 25 26 27 29 31 32 34 32 32 33 34 33 33 33 34 33 33 34 34 36 34 33 32 33 34 33 32 31 31 30 30 28 28 27 27 26 26 25 25 24 23 23
27 27 26 25 26 27 30 33 34 33 29 33 34 33 32 33 30 28 32 33 33 32 33 32 36 37 34 34 32 31 30 30 29 29 28 28 27 26 25 25 24 24 24 23
24 24 26 25 26 28 31 33 34 30 29 30 30 29 29 29 28 30 32 32 33 30 31 36 36 33 33 35 32 30 30 30 30 30 29 28 27 26 25 24 24 24 23 23
21 20 24 25 26 27 29 32 30 27 28 29 29 30 29 31 31 32 28 28 29 29 29 31 28 29 35 36 32 29 29 30 30 30 28 26 25 24 24 24 24 23 22 21
20 21 19 22 25 25 25 26 27 28 27 29 31 32 31 32 33 29 27 28 30 30 29 31 28 26 29 31 31 28 28 30 29 28 25 24 24 23 24 23 22 22 21 20
18 17 19 20 20 19 27 24 23 28 29 28 27 27 27 25 26 25 25 26 26 26 26 26 26 25 25 28 28 27 27 27 25 24 23 23 22 21 21 21 21 21 20 20
16 16 17 19 18 19 22 18 25 29 27 25 26 26 26 25 24 24 23 23 24 24 24 26 24 24 24 25 25 25 26 25 24 23 21 20 20 20 20 20 20 21 21 21
15 15 16 17 16 17 17 16 17 23 24 23 23 24 24 24 23 23 22 22 22 22 23 22 23 24 24 24 24 24 23 23 21 20 20 18 18 18 19 19 18 19 20 20

GFSCGP_925_temp_036.txt.gz
Temp
28 26 27 27 27 29 29 29 29 32 33 33 31 30 31 31 30 29 29 29 29 30 30 29 27 27 27 26 27 27 25 26 27 26 26 25 26 26 25 25 26 25 25 25
27 27 27 29 29 30 30 30 30 33 34 32 30 31 33 30 30 30 30 29 30 30 29 29 28 27 27 27 26 26 26 27 26 26 26 26 26 26 26 25 26 26 26 26
27 28 30 30 30 30 30 30 30 32 33 32 31 30 30 31 30 30 30 30 30 30 29 29 29 28 28 27 26 26 26 27 26 26 26 25 25 25 25 25 26 26 26 27
27 29 30 30 30 30 28 32 32 32 31 31 32 30 28 31 29 29 30 30 31 30 31 30 30 28 28 27 27 27 27 27 26 26 25 25 25 24 25 26 26 26 25 25
28 30 30 30 31 31 30 32 31 32 30 30 31 27 28 28 30 29 30 31 31 31 31 30 30 30 29 28 27 27 27 27 27 26 25 25 25 26 26 26 25 26 26 25
30 31 31 31 32 32 32 31 31 31 27 28 30 30 27 28 29 31 32 31 32 32 31 31 31 31 29 28 27 26 26 26 27 26 26 26 25 26 26 26 26 26 26 25
30 30 31 32 30 31 31 28 26 27 27 28 28 28 30 32 31 31 33 32 33 33 32 31 31 30 30 28 27 26 26 25 26 26 26 26 26 26 26 26 26 26 25 25
27 27 30 31 31 30 28 30 28 26 26 27 28 29 30 32 34 33 34 34 34 33 33 32 31 31 30 29 27 26 25 25 25 25 25 26 26 27 26 26 26 26 27 26
25 27 31 33 32 32 29 29 29 26 27 26 28 29 30 32 32 33 34 35 34 34 33 33 32 31 31 29 27 26 25 25 25 25 25 25 26 26 26 26 27 26 26 26
28 26 29 32 32 32 32 28 30 24 28 28 28 29 29 31 32 32 33 34 35 34 34 34 33 32 31 30 28 27 26 26 25 25 25 25 25 25 26 26 26 26 26 26
30 27 29 30 30 30 30 30 28 28 27 29 28 31 29 31 30 31 33 35 35 33 33 34 34 33 32 31 29 26 26 26 25 25 24 24 24 25 25 26 26 26 26 26
28 28 28 29 29 31 32 31 29 30 26 25 31 31 34 32 31 31 33 35 35 33 34 34 35 34 32 30 30 27 26 26 25 25 25 24 24 24 24 25 26 26 26 26
24 27 27 26 28 30 29 30 32 24 25 30 26 28 31 32 32 31 31 32 31 31 31 32 34 33 32 31 30 29 27 26 26 25 25 24 24 24 24 24 25 26 26 26
20 22 26 29 29 30 28 31 31 31 29 29 30 30 32 32 30 29 31 31 31 30 32 29 31 33 32 31 30 30 28 26 26 25 25 24 24 24 24 24 24 25 25 26
16 18 24 25 30 31 30 31 32 30 32 31 30 28 29 30 30 30 29 31 33 34 31 34 34 34 33 31 30 30 29 27 26 25 25 25 24 24 24 24 24 24 24 24
14 16 19 24 28 31 32 32 32 32 32 32 29 29 29 30 28 30 30 31 32 31 31 31 33 34 33 32 31 30 29 28 27 26 25 25 25 24 24 24 23 23 23 24
14 15 17 20 28 30 30 32 31 32 31 31 29 29 28 30 30 30 29 30 30 33 30 29 29 33 33 32 31 30 29 29 27 26 26 25 25 24 24 24 23 23 23 23
15 17 17 19 24 27 31 33 34 30 31 31 31 30 31 31 30 29 30 30 29 32 33 30 29 31 32 32 31 30 30 29 28 27 26 25 25 24 24 23 23 23 23 23
17 18 18 19 21 27 31 30 29 29 30 30 30 30 30 30 29 32 29 28 29 30 30 30 30 31 32 32 31 30 29 28 28 27 27 26 25 24 24 23 23 23 23 23
21 20 21 22 22 24 28 32 30 30 28 30 29 29 30 27 30 26 30 33 30 29 29 29 31 31 32 32 31 30 28 28 28 27 27 26 25 25 24 24 23 23 23 22
19 19 20 22 22 23 27 31 31 28 26 29 28 28 26 27 25 28 29 31 31 29 28 32 32 30 31 34 31 29 28 28 29 28 28 27 26 25 25 24 24 23 22 22
17 17 18 21 22 24 22 23 29 25 27 28 28 28 26 26 26 26 26 26 26 27 28 30 27 28 32 31 29 28 27 29 29 28 27 26 26 25 25 24 23 22 22 21
17 18 18 19 19 18 18 16 17 23 26 27 28 29 28 27 26 25 25 25 26 27 27 27 27 26 30 30 29 28 29 29 28 28 27 26 25 25 24 23 22 22 21 20
16 16 18 20 19 17 18 16 17 18 23 23 23 24 24 23 23 22 23 23 23 23 24 24 25 25 25 27 29 29 29 27 27 27 25 24 24 23 23 22 22 21 20 19
16 17 16 17 17 17 18 16 16 20 23 23 23 23 22 22 21 21 21 21 22 22 22 23 22 22 22 24 25 27 26 26 24 23 23 22 21 21 20 19 19 20 19 19
15 15 16 16 15 16 16 15 16 19 20 20 21 21 21 20 20 21 20 19 20 21 21 21 21 22 22 22 22 23 23 23 22 21 20 19 18 16 16 15 15 18 20 22

GFSCGP_925_temp_039.txt.gz
Temp
25 25 24 25 25 27 28 29 29 30 31 32 31 27 28 29 28 27 27 27 27 27 27 27 26 26 25 25 24 24 24 25 25 24 24 24 24 25 25 25 25 26 25 25
25 25 25 27 26 27 27 28 27 30 31 30 30 28 29 29 29 29 28 28 28 28 27 26 27 26 26 25 25 25 24 25 25 25 24 24 25 25 26 26 25 26 25 25
25 26 27 27 27 27 27 27 28 29 31 30 29 29 28 29 29 29 29 29 29 29 28 26 27 26 26 25 25 25 25 25 25 25 25 24 25 25 25 25 25 25 25 25
25 27 28 26 27 28 25 28 30 30 28 27 29 26 27 28 28 28 29 29 29 29 29 28 26 26 26 26 25 25 24 24 24 25 24 24 25 24 25 25 25 25 25 25
26 26 27 27 29 28 28 30 29 30 28 28 29 27 27 30 28 28 29 29 29 29 29 29 28 27 27 27 25 25 25 25 24 25 25 24 24 26 26 25 25 25 25 25
28 28 29 29 29 29 30 30 28 28 25 25 29 28 30 26 30 30 29 30 30 30 30 30 29 28 27 27 26 25 24 24 24 25 25 25 24 25 25 25 25 25 25 25
27 28 29 29 27 28 28 25 24 24 24 27 27 26 31 29 30 31 31 30 30 30 30 30 29 29 28 27 27 25 24 23 24 24 24 24 25 25 26 26 26 25 24 24
25 25 28 28 28 27 26 27 21 23 23 26 25 26 31 32 32 31 32 31 31 31 31 30 30 29 29 28 27 26 24 24 23 23 23 24 25 25 26 26 26 26 25 26
24 25 28 30 29 29 26 26 27 25 24 24 25 26 29 30 30 31 30 31 31 31 31 31 30 30 30 28 27 26 25 25 24 23 23 24 24 24 25 26 26 26 26 26
26 26 26 29 30 28 29 26 27 20 25 26 25 26 28 28 31 29 29 30 32 32 31 32 31 30 30 29 28 27 26 25 25 24 24 24 24 24 25 26 26 26 26 26
24 25 28 28 27 29 26 27 26 25 22 27 25 28 27 29 29 29 30 31 32 33 32 32 32 32 31 30 28 27 26 25 25 24 24 24 23 24 24 25 26 26 26 26
21 21 26 28 28 30 30 29 27 25 25 23 29 27 31 32 30 29 29 31 32 33 33 33 32 32 31 30 29 27 26 25 25 25 24 24 24 24 24 25 26 26 25 26
17 17 22 24 26 27 27 27 29 28 24 29 25 26 28 30 30 28 29 28 29 31 31 33 33 32 31 30 29 27 26 26 25 25 24 24 24 23 24 24 24 25 25 25
16 15 19 24 25 26 26 28 28 28 26 28 29 29 30 30 29 29 27 28 27 29 30 32 32 32 31 30 29 28 27 27 26 25 24 24 24 23 24 25 24 24 24 24
13 14 17 20 21 24 26 29 30 26 29 28 30 27 29 27 28 29 29 27 28 28 30 31 31 31 28 29 29 29 27 26 26 25 24 25 24 24 24 24 24 24 24 23
12 14 15 18 23 24 26 28 30 30 30 28 27 27 27 29 27 28 28 27 27 29 31 30 31 31 31 30 29 29 28 27 26 25 25 24 25 24 23 23 23 23 23 23
12 12 14 16 20 21 25 28 29 30 29 30 27 28 28 28 27 27 27 27 28 29 31 29 28 30 32 33 31 29 29 28 25 25 25 24 24 24 23 23 23 22 22 22
12 13 14 15 18 22 27 30 31 30 29 28 29 27 28 29 29 28 26 27 27 27 29 29 29 29 31 33 33 31 29 28 26 26 25 25 24 24 24 23 23 23 22 22
13 13 14 16 17 21 26 29 29 28 27 28 29 28 27 27 29 28 26 26 27 27 27 30 30 31 31 32 31 30 29 28 26 26 25 25 24 24 24 23 23 23 23 22
14 15 17 16 19 20 22 20 21 23 29 28 27 27 28 26 26 30 28 26 27 25 27 27 28 29 29 30 31 29 27 27 26 26 26 25 25 24 24 23 23 23 23 23
14 14 14 17 18 20 18 19 21 25 27 23 26 29 26 26 27 29 26 27 27 25 26 29 28 26 29 31 29 28 27 27 27 27 26 26 25 24 24 24 23 23 23 23
15 15 14 16 18 19 18 19 18 16 16 17 25 25 24 26 25 26 26 26 26 26 26 27 23 25 29 29 29 27 26 28 28 27 26 26 25 24 24 24 23 23 23 23
15 15 16 18 18 17 17 17 16 16 16 16 22 24 23 23 25 24 24 25 25 25 24 25 25 25 28 27 27 27 28 28 28 27 26 26 26 25 24 23 23 22 23 23
15 15 16 18 19 18 17 17 16 16 17 21 20 23 24 23 23 22 22 22 22 22 22 22 22 21 21 23 25 26 26 27 27 26 26 26 25 24 24 23 23 23 23 22
11 14 17 18 17 19 18 16 16 16 17 19 20 20 19 21 20 21 21 21 21 21 21 21 21 21 21 21 22 23 25 27 27 26 26 25 24 24 21 17 18 20 21 21
14 15 16 17 16 17 15 15 16 16 16 17 17 18 18 18 19 19 19 19 19 20 20 20 21 21 20 20 20 21 22 24 24 23 22 21 19 17 16 16 16 18 19 19

GFSCGP_925_temp_042.txt.gz
Temp
22 22 22 24 24 26 26 27 28 29 30 29 28 27 26 27 27 26 26 25 25 25 25 25 24 24 23 23 23 23 23 23 23 23 23 22 23 24 24 24 26 26 26 25
22 23 24 24 25 26 27 27 27 27 29 30 28 28 26 27 27 26 26 26 26 25 25 25 25 24 24 23 24 23 24 24 23 24 24 23 24 24 24 25 25 26 26 25
25 24 25 25 24 25 25 26 26 28 29 29 28 27 25 27 27 27 27 27 26 26 26 25 25 25 24 23 23 23 25 24 24 24 23 23 23 23 23 24 24 25 25 25
23 26 26 24 25 25 22 26 27 28 28 26 28 25 25 26 26 27 27 27 27 27 27 26 26 25 25 24 24 23 23 24 24 24 23 23 23 22 23 24 25 25 25 25
25 25 25 26 27 26 26 27 27 28 26 27 28 25 25 26 26 27 27 27 28 28 28 27 26 26 26 25 24 24 24 24 24 24 23 23 23 24 25 25 25 25 25 25
26 26 26 25 27 27 27 27 24 22 23 24 26 25 25 24 27 27 28 28 28 28 28 28 27 26 26 26 25 24 23 24 24 23 24 23 23 23 24 25 25 25 25 25
26 26 27 27 26 26 26 24 22 23 22 25 25 24 29 27 29 29 29 29 29 29 29 28 28 27 26 26 25 24 23 23 24 23 23 23 24 24 25 25 26 25 25 24
23 24 26 26 26 25 25 23 20 22 21 27 23 25 27 30 29 30 30 30 30 29 29 29 28 28 27 26 25 24 23 23 23 23 23 23 23 24 25 25 26 26 26 26
22 24 27 27 27 28 23 24 24 22 22 22 22 24 29 29 29 28 30 31 30 30 30 29 29 29 28 27 26 25 24 23 23 23 23 23 23 23 24 25 26 26 26 26
25 24 25 27 28 27 25 25 25 20 24 23 23 25 26 27 28 28 27 28 30 30 30 30 30 29 29 28 26 26 25 24 24 23 23 23 24 24 25 25 26 26 26 26
17 23 26 25 25 27 24 24 23 24 20 23 22 24 24 27 28 31 32 30 30 29 29 30 30 30 29 29 27 26 25 24 24 23 23 23 23 23 24 24 26 26 26 26
17 16 22 24 26 28 29 27 22 25 22 21 21 25 27 28 29 27 28 29 28 28 29 30 30 30 29 29 28 26 26 25 24 24 23 23 23 23 23 24 25 26 26 26
16 16 20 23 25 26 26 26 24 23 21 26 23 25 28 27 29 29 27 27 27 26 27 29 30 29 29 29 28 27 26 25 25 24 23 23 23 22 23 24 24 25 26 26
15 14 16 19 20 20 22 26 25 26 25 27 27 27 29 29 26 26 26 26 27 26 26 28 29 29 29 29 28 27 26 26 25 25 24 23 23 23 23 24 24 24 25 25
13 14 16 17 18 20 21 22 24 26 27 26 28 26 26 27 28 29 26 26 27 27 26 25 29 29 28 28 28 28 27 26 25 24 24 24 23 23 23 23 23 23 24 24
10 14 14 16 19 21 21 23 24 25 26 27 27 26 26 27 25 27 27 26 26 26 26 26 27 27 27 28 27 27 27 26 25 24 24 24 24 23 23 23 23 23 23 23
11 12 13 15 17 18 20 24 25 25 25 27 26 27 27 26 25 26 27 26 25 26 26 25 26 26 27 28 28 27 27 26 25 25 24 24 23 23 23 23 22 23 23 22
10 11 12 14 16 19 22 23 25 27 27 26 26 27 29 29 29 28 27 29 26 25 25 26 27 27 28 29 29 28 28 26 25 25 25 24 23 23 23 23 22 22 22 22
11 11 12 14 15 20 22 21 20 19 24 27 26 27 27 29 28 26 24 24 26 26 25 27 29 29 30 30 31 29 28 27 25 25 25 24 23 23 23 22 22 22 22 22
11 12 14 12 15 17 21 19 20 19 20 17 16 25 28 25 25 28 26 24 24 24 24 23 27 28 28 29 30 29 27 26 25 24 24 24 24 23 23 23 23 23 23 22
10 11 12 14 15 17 18 18 19 22 23 17 17 16 16 24 28 28 27 25 24 25 25 26 26 25 28 30 29 27 26 25 27 26 25 24 24 23 23 23 23 23 23 22
11 11 10 12 14 16 18 19 21 18 16 17 18 17 16 19 24 25 26 26 24 24 25 25 23 22 24 25 26 25 24 29 26 26 25 24 24 23 23 23 23 23 22 22
12 12 13 14 15 16 16 16 16 15 17 17 17 18 19 19 23 24 24 22 22 22 21 22 21 21 22 25 26 24 24 26 26 26 25 24 24 23 24 23 23 22 22 22
11 12 13 13 16 17 17 16 15 16 17 17 17 19 19 21 21 20 20 21 21 21 21 21 21 21 20 21 23 25 25 26 27 26 25 25 24 24 24 23 23 22 22 22
10 10 11 13 13 16 16 16 15 16 17 17 17 18 21 21 21 21 21 21 21 21 20 21 21 21 20 21 21 22 24 24 25 24 23 24 24 23 20 20 21 22 21 22
10 10 10 12 14 14 15 15 15 16 16 16 16 19 18 20 20 20 20 20 19 19 20 20 20 20 20 20 21 22 23 24 22 20 20 19 17 17 18 17 15 17 18 17

GFSCGP_925_temp_045.txt.gz
Temp
26 26 26 27 28 29 29 30 31 33 33 33 33 33 33 31 31 30 29 28 28 28 28 26 25 25 24 24 23 22 22 21 21 21 22 22 23 22 22 23 24 25 25 25
25 26 28 28 28 27 28 29 30 31 32 32 33 33 32 31 30 30 30 28 29 29 28 27 26 25 25 24 23 22 22 22 21 22 22 23 23 23 23 23 24 25 25 26
27 29 28 27 27 27 28 29 31 31 31 32 32 33 30 30 30 30 30 30 29 29 29 28 27 26 25 25 23 23 22 23 23 22 22 22 22 22 23 23 23 24 25 25
27 29 28 27 28 28 28 30 30 30 30 31 32 32 30 31 29 29 30 30 30 30 29 29 28 27 26 25 24 23 22 22 23 23 22 22 24 24 24 24 24 24 25 25
27 28 27 27 28 28 29 30 30 30 30 31 32 31 34 31 30 30 30 30 31 31 30 30 29 28 27 26 25 24 23 22 22 22 23 22 23 24 25 24 23 23 23 25
30 28 29 29 29 29 30 30 29 29 31 29 31 31 33 32 31 32 32 31 31 32 31 31 29 29 28 27 26 25 23 22 22 22 22 23 23 24 24 23 24 24 24 23
29 28 29 30 29 29 30 30 29 28 28 29 33 30 32 34 34 34 33 32 32 31 31 31 31 30 28 27 26 25 23 23 22 22 22 23 23 23 23 23 24 25 24 24
28 27 29 29 30 29 29 30 30 28 30 31 30 30 32 34 35 34 35 35 33 32 32 31 31 30 28 27 26 25 24 23 23 23 23 23 23 23 23 24 25 25 25 25
28 29 30 29 31 31 29 29 32 31 27 29 32 32 32 33 35 35 34 34 34 33 32 32 31 31 30 28 27 26 25 23 23 23 23 22 23 23 24 24 23 24 24 25
28 28 30 30 31 31 30 31 27 30 28 28 31 30 33 32 34 34 34 34 34 34 33 33 32 31 30 29 27 26 25 24 24 23 23 23 23 23 23 23 23 24 24 25
23 27 27 29 29 30 28 29 30 31 30 30 30 32 32 33 34 34 35 35 35 35 34 34 33 32 31 30 28 27 25 25 24 23 23 23 23 23 23 23 23 24 25 26
20 24 28 28 31 32 31 30 30 29 27 29 31 32 32 33 34 34 35 35 35 35 35 34 34 33 32 30 29 28 27 25 25 24 24 23 23 23 23 23 23 24 24 26
20 22 26 27 29 29 30 31 31 31 32 29 29 31 34 33 33 33 33 34 33 32 32 33 33 33 32 30 29 29 27 27 26 25 24 24 23 23 23 23 24 23 24 24
19 20 23 28 27 24 25 28 30 30 30 30 30 32 33 34 34 34 34 33 33 32 32 32 32 32 31 30 29 28 28 28 27 26 25 24 23 23 23 23 23 23 23 24
18 19 19 20 21 22 22 24 25 27 30 30 31 31 32 33 33 34 34 33 32 32 31 31 32 31 30 30 28 28 28 27 27 26 25 25 24 24 23 23 23 23 23 23
16 19 18 20 21 23 23 24 25 26 27 28 29 30 33 33 34 34 35 35 34 33 33 33 31 31 30 30 28 28 27 27 27 26 25 25 24 24 23 23 23 23 23 23
15 17 18 20 21 22 23 25 26 26 27 28 28 30 31 31 31 32 32 32 32 32 33 33 31 30 30 30 29 28 27 27 26 26 25 25 24 24 23 23 23 23 23 23
15 15 17 20 20 20 26 27 26 28 29 29 29 30 31 31 32 32 32 33 34 34 34 33 33 32 30 30 30 29 28 27 26 26 25 25 24 24 23 23 23 23 23 23
14 16 17 19 20 22 23 25 25 25 27 28 29 30 31 32 32 32 33 32 32 33 34 33 34 33 32 31 30 28 28 27 26 26 25 25 24 24 23 23 23 23 23 23
14 14 16 18 19 20 24 26 27 23 25 23 23 25 26 28 30 32 33 32 31 32 32 32 32 31 31 29 30 28 28 27 26 26 26 25 25 24 24 24 23 23 23 23
12 13 14 16 17 20 23 23 22 23 26 23 22 22 22 23 27 29 27 29 30 31 31 30 29 30 29 29 28 27 28 27 27 27 26 25 25 24 24 24 23 23 23 24
14 13 13 15 16 16 22 23 23 23 22 22 22 22 21 21 22 23 25 26 29 29 29 29 28 28 27 26 26 27 27 28 27 27 26 25 25 24 24 23 23 23 23 23
14 15 16 16 18 19 20 20 20 20 20 21 21 21 21 20 21 23 25 26 29 28 28 27 26 25 24 25 25 27 27 26 25 25 25 25 24 24 24 23 23 23 23 22
15 15 14 15 17 18 19 20 20 20 20 21 21 20 20 20 21 24 25 27 27 26 26 25 25 23 22 22 24 25 24 25 26 25 25 25 25 24 24 24 24 24 24 24
14 14 14 14 15 15 17 19 20 20 20 20 21 19 18 21 24 25 26 24 23 22 22 23 23 23 22 22 22 23 23 24 25 25 25 24 25 23 21 22 23 24 24 24
13 13 13 14 16 15 16 16 17 18 19 19 19 17 18 21 23 23 22 21 22 21 22 22 21 21 22 22 22 21 22 23 23 23 22 19 18 18 18 18 18 21 22 23

GFSCGP_925_temp_048.txt.gz
Temp
29 29 30 32 32 34 35 35 35 36 37 36 36 37 37 37 35 35 33 33 32 32 32 30 29 28 28 27 26 25 25 24 24 24 24 25 25 25 25 26 25 24 24 24
30 29 32 33 33 33 34 33 35 36 36 35 36 37 37 38 36 35 35 33 33 33 32 31 29 29 28 27 27 25 25 24 23 24 25 26 26 26 26 26 26 25 25 24
31 32 32 32 32 31 32 33 34 35 36 36 36 36 37 37 36 36 36 35 34 34 33 32 30 29 29 28 27 26 25 24 24 25 25 25 25 25 26 26 26 25 25 25
31 33 32 32 31 32 32 33 34 34 34 34 36 35 37 37 36 36 36 36 35 34 34 34 32 30 30 29 28 26 25 24 24 24 25 25 26 27 27 27 27 27 25 25
30 31 31 31 31 33 32 35 33 33 34 34 35 34 36 38 37 36 36 36 36 35 35 34 34 31 30 29 29 27 26 24 24 24 25 25 25 27 27 27 27 26 26 25
32 33 33 33 33 33 33 33 33 33 34 33 34 35 36 37 36 37 37 37 36 36 36 35 34 33 31 30 29 28 26 24 24 24 23 25 26 26 27 27 27 27 26 26
31 32 32 33 32 33 33 32 32 31 32 32 36 35 36 38 39 38 38 38 37 36 36 36 34 34 32 31 30 29 27 25 24 24 24 24 24 25 26 26 27 27 28 27
30 30 32 33 33 32 32 33 33 31 33 34 36 34 36 38 39 38 39 40 38 37 36 36 35 34 33 32 31 29 28 25 25 25 24 24 24 25 26 26 27 27 28 28
32 32 34 33 33 34 32 32 35 35 36 34 37 36 37 38 38 38 38 39 39 38 37 36 36 35 33 32 31 29 28 26 25 25 24 24 24 24 26 26 26 26 27 28
32 32 34 33 33 34 34 34 33 34 32 32 35 35 36 37 36 38 38 39 39 40 39 37 37 36 34 33 31 30 28 27 26 26 25 25 25 25 25 26 25 26 27 26
30 32 33 33 32 32 33 33 33 35 34 34 34 36 39 37 37 37 39 39 40 40 40 38 38 36 35 34 33 31 29 28 26 26 26 26 25 25 25 25 25 25 25 26
29 30 31 32 34 35 34 33 34 33 32 34 35 37 38 38 38 38 39 39 40 40 41 40 39 38 36 35 34 32 31 29 28 27 26 26 26 26 26 25 25 25 25 25
25 28 30 31 33 33 33 34 34 34 35 33 33 35 37 37 36 37 38 39 39 39 39 39 40 39 37 36 34 33 32 31 30 28 27 27 26 26 26 25 25 25 25 25
21 27 29 32 32 33 31 33 34 34 34 34 34 35 37 36 37 37 36 37 37 37 37 37 38 38 38 36 34 32 33 32 31 30 28 27 26 26 26 26 25 25 25 25
23 25 25 29 27 27 30 33 33 33 34 33 35 35 35 36 37 37 37 37 37 36 36 37 37 38 36 35 34 32 32 32 32 30 29 28 27 26 26 26 25 25 25 25
21 23 23 24 26 26 27 28 29 32 33 34 34 34 37 37 36 36 36 36 37 37 38 38 37 37 36 35 33 32 31 31 30 31 29 28 27 26 26 26 25 25 25 25
19 22 22 25 27 27 26 28 29 30 31 32 31 33 34 34 34 34 34 35 36 37 37 37 37 37 36 35 33 32 31 30 30 30 29 28 27 26 26 26 25 25 25 25
19 19 22 24 25 23 29 32 31 30 30 31 31 32 33 34 34 35 35 35 35 36 37 37 38 39 37 36 36 33 32 30 29 29 29 28 27 26 26 26 25 25 25 25
19 19 22 22 24 27 29 28 28 29 30 32 32 32 33 34 34 34 35 36 36 36 37 38 39 39 38 37 36 34 31 31 29 28 28 28 27 27 26 26 25 25 25 25
20 18 20 22 22 23 27 29 29 29 27 30 29 30 31 32 33 34 36 36 36 37 36 37 37 37 37 36 36 34 32 31 29 29 28 28 27 27 26 26 26 25 25 25
18 18 18 20 21 24 27 27 26 25 26 27 27 27 27 28 30 30 30 31 32 32 32 33 34 34 35 35 34 34 32 31 30 30 29 28 28 27 26 26 26 25 25 26
18 17 19 19 20 20 25 25 24 23 24 25 25 26 26 26 27 28 28 29 30 31 31 32 34 33 33 32 31 32 30 30 30 29 29 29 27 27 27 26 26 25 25 25
17 19 19 20 21 23 23 23 24 24 23 23 24 25 25 26 27 27 28 28 29 30 31 32 33 32 31 30 29 30 30 29 29 29 29 28 27 27 27 26 25 25 25 26
18 19 18 18 20 21 21 22 22 22 22 23 24 24 25 26 27 26 26 28 29 30 31 32 31 31 31 29 28 28 28 28 28 28 28 28 27 27 26 27 26 27 27 27
18 18 17 18 19 19 20 21 21 22 20 21 22 24 25 25 25 24 25 28 29 30 29 29 30 29 27 27 27 28 27 27 28 28 28 28 28 26 27 26 27 28 28 28
16 16 16 17 19 19 20 21 21 19 19 19 20 21 24 24 22 20 24 28 26 25 26 27 26 26 27 24 23 26 26 27 28 28 28 28 30 27 27 24 20 22 24 25

GFSCGP_925_temp_051.txt.gz
Temp
32 32 32 33 35 36 38 38 38 39 39 38 38 37 37 38 38 37 36 35 34 34 34 33 32 31 30 29 28 27 27 27 26 26 26 26 27 27 27 27 27 27 26 26
32 31 34 35 36 35 36 37 38 39 38 39 38 38 39 39 39 38 38 36 35 35 35 33 32 32 31 30 29 27 26 26 25 26 26 27 27 28 27 27 27 26 26 26
33 34 34 35 35 35 35 36 37 38 39 39 38 37 38 40 40 39 39 37 37 36 35 34 33 32 31 30 29 28 26 26 25 26 26 27 27 27 28 28 28 27 26 26
34 36 35 35 35 36 35 37 37 37 38 37 38 36 38 39 39 39 38 39 38 37 36 35 34 32 32 31 29 28 26 26 25 25 27 27 27 28 28 28 28 28 27 26
33 35 35 34 35 36 35 37 36 37 37 37 37 37 39 39 39 39 39 39 39 38 37 36 35 33 32 31 30 29 27 26 26 25 26 27 27 28 29 29 29 28 27 26
35 36 36 36 36 36 37 36 37 36 36 35 36 38 38 39 39 40 40 40 39 39 38 37 36 34 33 32 31 30 27 26 25 25 24 26 27 27 29 29 29 29 28 27
34 35 36 36 35 36 35 35 34 34 34 34 37 37 37 40 41 41 41 40 40 40 39 38 37 36 34 33 32 31 28 26 25 25 25 24 26 26 27 28 28 29 29 29
33 32 35 36 35 35 35 35 34 32 34 35 37 36 38 40 41 42 42 42 41 40 40 38 37 36 35 33 32 31 30 27 26 25 25 25 25 26 26 27 29 29 29 30
34 33 36 36 36 36 35 35 37 37 38 38 38 38 40 41 41 41 40 41 41 40 40 39 38 37 36 34 33 32 31 28 26 26 25 25 25 25 27 27 27 28 29 30
34 34 36 36 36 36 36 37 35 36 35 36 38 38 39 39 39 41 41 40 41 41 40 40 39 38 37 35 34 32 31 29 27 26 26 26 25 25 26 27 27 28 28 28
34 35 35 37 35 35 35 36 36 37 37 36 37 38 41 40 40 40 40 41 41 42 41 40 40 39 37 36 35 33 31 30 28 27 27 26 26 26 25 26 27 27 27 27
33 33 33 36 37 37 36 36 36 35 34 37 38 39 41 41 41 41 40 41 42 42 42 41 41 40 39 37 36 34 33 31 30 28 28 27 27 27 26 26 27 27 27 27
29 30 31 33 36 36 35 36 37 37 37 36 36 38 39 40 39 40 40 41 41 41 42 42 42 40 39 38 37 36 34 33 32 30 29 28 27 27 27 27 26 27 27 26
22 28 31 34 35 36 34 35 37 37 36 36 37 38 38 38 38 38 39 40 41 41 41 42 42 41 40 39 37 36 36 35 33 32 30 29 28 27 27 27 27 27 27 26
26 26 30 32 35 35 36 35 36 36 37 36 38 37 38 39 39 39 39 38 38 38 39 39 39 40 40 39 38 36 35 36 35 33 32 30 28 28 27 27 27 27 27 27
25 25 28 30 32 31 31 35 36 37 36 37 37 38 40 39 39 38 38 38 38 38 38 39 39 39 39 39 38 37 35 35 34 34 32 31 29 28 27 27 27 27 27 27
22 25 26 27 30 30 29 32 33 35 37 36 36 37 39 38 38 37 36 36 37 38 38 39 39 39 38 39 37 36 35 34 34 33 32 31 30 28 27 27 27 27 27 27
21 22 24 26 28 27 31 34 33 33 34 35 36 36 37 37 37 37 37 36 36 37 37 38 40 40 40 39 39 36 35 33 32 32 32 31 30 29 28 27 27 27 27 27
22 22 23 25 28 30 32 32 33 32 32 34 34 34 35 35 35 35 36 37 36 37 38 38 39 40 40 41 39 38 35 34 32 31 31 31 30 29 28 27 27 27 27 27
23 22 22 24 25 27 30 31 32 31 30 34 34 34 35 35 34 35 36 36 35 36 37 37 38 38 39 39 39 39 36 34 32 31 31 30 30 29 28 28 27 27 27 27
21 21 21 23 23 27 30 30 30 27 27 28 31 31 31 31 31 30 31 32 32 33 33 33 33 34 35 35 36 37 37 35 33 32 31 30 29 29 28 28 27 27 27 28
20 21 22 22 23 23 29 28 27 25 26 25 26 27 27 28 29 30 30 31 31 31 32 32 33 33 34 35 34 35 35 35 33 32 31 30 29 29 29 28 27 27 27 26
20 20 22 23 24 25 27 26 27 26 25 25 25 26 26 27 28 29 29 29 29 30 31 31 32 33 34 33 33 33 32 33 32 31 31 30 29 29 29 28 27 27 27 27
21 22 21 21 22 23 24 25 25 25 25 24 25 25 25 25 27 28 28 28 27 29 31 32 33 33 33 32 31 30 30 31 30 30 30 30 29 29 28 29 28 28 29 28
19 20 20 20 21 22 22 23 23 24 24 24 24 24 24 24 25 26 27 26 26 28 31 31 32 32 32 32 30 30 29 29 30 30 30 29 29 28 28 28 26 29 29 28
19 18 19 19 21 21 21 22 23 23 23 24 23 22 23 24 24 25 25 24 24 26 28 28 29 31 30 29 29 29 29 29 29 29 29 30 31 30 29 27 21 20 22 23

GFSCGP_925_temp_054.txt.gz
Temp
33 33 33 34 34 35 36 37 36 38 40 38 39 32 30 26 25 24 35 35 34 34 34 33 32 32 31 30 29 28 28 28 26 25 25 26 26 26 27 27 28 26 26 26
33 32 34 35 35 35 36 36 38 39 40 36 37 34 29 27 26 27 34 34 35 34 34 33 32 32 31 30 29 27 27 27 26 26 26 26 27 27 27 27 28 27 26 26
32 33 35 35 35 35 35 35 37 38 37 37 38 36 32 29 31 35 36 34 36 35 35 34 33 32 32 30 29 27 27 27 26 26 26 26 27 27 27 27 27 27 27 26
33 35 34 34 34 35 34 36 37 38 36 35 38 33 36 39 39 39 38 36 37 36 36 35 34 33 32 31 29 27 27 26 26 26 26 26 26 27 27 28 28 27 27 26
33 34 34 34 34 36 35 37 37 37 37 38 36 37 38 39 39 39 39 39 38 38 37 36 35 33 33 31 30 28 26 26 26 25 26 26 27 27 28 28 28 28 27 27
34 36 35 36 36 37 37 37 37 37 37 36 37 36 37 39 39 40 40 40 39 38 38 37 35 34 33 32 30 29 27 26 25 25 26 26 26 27 27 28 28 28 28 27
34 34 36 37 36 37 37 36 34 34 34 34 37 37 38 40 40 40 40 40 40 39 39 37 36 35 33 33 31 30 27 26 25 25 25 26 26 27 27 28 28 29 28 28
32 32 35 37 36 36 36 36 34 32 34 34 36 36 37 40 42 42 42 41 41 41 39 37 36 35 33 33 32 31 28 26 25 25 25 24 25 26 27 27 28 28 29 29
33 33 36 37 37 37 36 35 37 36 37 36 37 37 39 40 41 41 42 42 41 41 40 39 37 36 34 33 32 31 29 26 26 25 26 25 24 25 26 26 27 28 29 29
33 33 36 37 37 37 37 37 35 36 33 34 36 37 38 38 40 41 41 41 42 41 41 39 38 37 35 34 33 31 30 27 26 26 25 25 25 24 26 27 27 27 28 29
33 33 34 37 36 35 35 36 36 36 36 35 35 38 42 39 39 40 41 41 42 42 41 40 39 38 36 34 33 32 31 29 27 26 26 26 25 25 25 26 27 27 27 28
32 33 32 34 38 37 37 36 36 35 34 36 37 38 40 42 41 41 41 41 42 41 42 41 40 38 37 36 34 33 32 31 28 27 27 26 26 26 25 25 26 26 27 27
25 29 30 32 35 38 36 36 36 37 37 35 35 37 40 40 41 41 41 41 40 40 40 40 40 39 37 37 35 34 33 32 31 28 27 27 26 26 26 26 25 27 26 26
23 25 29 32 33 36 35 36 36 36 36 36 37 38 38 39 39 40 40 40 41 40 40 40 40 39 38 37 36 35 34 33 32 31 29 28 27 27 26 26 26 26 27 27
25 25 29 31 35 36 36 36 36 36 37 36 37 38 38 38 38 39 38 39 39 40 40 40 41 39 38 37 35 35 35 34 34 32 31 29 28 27 27 27 27 26 26 26
22 24 27 28 31 33 34 37 36 36 37 37 38 39 40 39 38 38 38 38 38 38 39 39 39 39 39 37 36 35 35 35 34 33 32 31 29 28 27 27 27 27 26 26
21 22 25 26 29 31 31 34 36 36 37 38 37 38 40 38 37 37 37 37 38 38 39 39 39 39 38 39 37 36 35 35 35 33 32 31 30 29 28 27 27 27 27 26
21 22 23 25 27 27 32 35 35 35 38 38 39 39 39 39 39 37 37 37 37 37 37 37 38 39 39 38 39 38 36 35 34 34 33 32 30 29 28 27 27 27 27 27
22 21 23 24 26 29 31 33 34 33 34 35 36 39 37 37 37 36 37 37 37 37 37 37 38 39 39 39 38 37 36 35 33 32 32 32 31 30 28 28 27 27 27 27
23 23 22 24 25 27 30 33 35 34 32 30 35 35 36 36 34 32 32 33 33 33 33 33 34 34 34 33 36 35 34 34 32 32 31 31 31 30 29 28 27 27 27 27
22 21 21 23 24 27 27 30 32 30 24 26 28 28 30 31 30 30 31 31 31 31 31 32 32 33 33 33 34 33 34 33 33 32 31 31 30 30 29 29 28 27 27 27
19 21 21 22 23 23 26 28 25 25 26 25 26 26 26 27 28 29 29 29 30 30 29 30 31 32 33 33 33 33 32 34 33 33 31 30 30 29 30 28 28 27 27 26
18 19 22 23 24 24 24 25 26 26 26 25 24 25 26 26 26 27 27 28 28 28 27 28 30 31 32 32 32 32 33 33 33 32 31 30 29 29 29 29 27 27 27 27
19 20 18 20 22 23 24 24 25 25 25 25 25 25 25 25 25 25 26 26 27 27 26 27 29 31 31 32 32 32 32 31 31 31 31 30 29 29 28 29 28 27 27 27
19 19 19 19 21 22 23 23 24 24 24 24 25 25 25 24 24 24 24 24 25 25 24 25 27 28 29 31 32 31 31 30 29 30 30 30 30 29 28 27 26 27 28 27
17 16 16 16 18 18 18 19 21 23 24 24 24 24 25 24 23 23 23 23 24 24 22 24 25 27 28 29 30 28 28 30 29 29 29 30 30 30 29 21 19 22 23 24

GFSCGP_925_temp_057.txt.gz
Temp
29 28 28 29 30 31 32 33 33 35 36 35 33 28 27 27 29 29 28 26 27 30 30 30 29 29 28 28 28 28 27 26 26 25 25 25 25 25 27 27 27 26 26 25
28 28 30 32 32 32 32 32 32 35 36 35 31 28 28 27 26 27 27 26 26 31 31 31 31 30 29 28 28 28 28 26 26 25 25 25 25 26 26 27 27 26 26 25
28 30 32 32 32 32 31 31 32 33 35 35 32 28 28 28 26 26 27 27 29 31 31 30 30 30 29 27 27 28 28 27 26 25 25 25 25 26 26 26 27 26 26 26
29 31 32 31 31 32 30 33 34 34 34 30 34 29 26 28 28 27 28 28 29 32 32 31 30 30 29 27 27 28 28 27 26 25 25 25 25 25 26 27 27 27 27 26
29 31 31 31 32 33 32 33 33 33 33 33 33 32 28 29 29 28 29 29 29 31 32 31 31 31 30 28 26 26 27 27 26 26 26 25 25 26 27 27 27 27 27 27
31 33 32 32 33 34 34 33 32 33 32 30 31 32 30 31 30 30 30 30 30 32 33 32 31 31 30 28 27 25 26 26 26 26 26 26 26 26 26 27 27 27 27 27
30 31 32 33 32 33 33 30 28 28 29 30 30 32 30 34 34 33 33 31 31 34 33 32 31 31 30 29 27 26 25 25 25 26 26 25 26 26 26 27 27 27 27 27
27 27 31 33 32 31 31 31 27 26 27 30 31 31 32 34 38 38 37 34 35 34 34 33 32 31 31 30 28 26 25 25 25 25 25 26 25 25 26 27 27 27 27 27
27 28 33 33 34 33 31 31 31 29 30 29 30 32 33 35 35 37 37 36 36 35 34 34 32 32 31 30 29 27 25 25 24 24 24 24 25 25 25 26 27 27 28 28
23 27 30 33 34 34 33 32 30 30 27 28 31 30 32 33 34 34 36 37 37 36 35 34 33 32 31 31 29 28 26 25 24 24 24 24 24 25 25 25 27 27 27 28
19 23 28 30 32 32 32 31 32 29 27 26 27 31 33 33 35 35 35 34 37 36 36 35 33 33 31 31 30 29 27 25 24 24 24 24 24 24 24 25 26 27 28 28
19 19 24 28 31 33 33 32 30 30 27 28 27 31 33 35 36 36 35 36 34 37 36 35 34 33 32 31 31 29 28 26 25 25 24 24 24 24 23 24 25 26 27 28
17 17 20 27 29 31 32 33 33 30 28 27 29 30 37 33 36 37 34 35 35 34 36 35 34 33 32 32 31 30 29 27 26 25 25 24 24 24 24 23 24 25 26 27
17 17 18 20 26 30 30 33 33 32 29 29 31 32 33 34 33 34 34 33 33 32 36 36 35 34 33 32 32 31 30 29 27 26 25 25 25 24 24 24 24 24 25 26
15 17 20 23 26 29 30 33 33 32 32 30 31 30 32 34 33 32 31 32 33 33 33 35 36 34 34 33 32 31 31 30 30 27 27 26 25 25 25 25 24 24 25 26
15 17 20 22 27 29 30 32 34 34 33 33 32 33 32 32 32 31 32 32 31 31 32 32 32 34 34 34 32 32 31 31 30 30 28 27 26 25 25 25 25 24 24 25
13 17 18 21 26 28 26 29 31 34 34 34 32 32 32 31 31 31 30 31 31 31 31 31 31 31 33 34 33 32 32 32 31 30 29 28 27 26 26 25 25 25 25 25
13 16 18 19 24 24 27 30 31 33 34 33 33 34 33 31 30 29 29 30 30 30 30 30 29 29 33 34 33 33 32 31 31 31 29 29 28 26 26 26 25 25 25 25
17 18 17 19 23 25 28 28 28 30 24 25 27 29 34 30 29 27 28 28 27 27 27 27 29 30 31 33 33 32 32 32 31 30 29 29 28 27 26 26 26 25 26 25
19 20 17 20 21 24 20 24 26 28 21 24 25 26 29 30 25 25 26 27 26 26 26 26 29 30 31 32 33 32 31 31 32 31 31 31 29 28 27 26 26 26 26 26
18 18 18 20 20 19 20 22 25 24 20 23 23 23 24 24 23 24 25 25 25 25 25 26 27 27 29 31 32 31 32 32 30 31 33 32 31 29 28 27 26 26 26 25
15 15 18 19 19 18 19 22 20 21 22 22 22 22 22 23 23 23 23 23 23 23 23 24 24 25 26 29 31 30 30 33 33 33 31 31 31 30 28 27 26 26 26 25
12 13 12 14 13 16 19 20 20 22 22 21 21 21 21 22 21 21 21 21 21 22 22 23 22 24 25 27 28 29 31 31 32 32 31 31 31 30 29 28 26 26 26 26
16 15 13 13 16 17 17 20 17 17 17 21 21 21 21 21 21 20 20 19 20 20 21 22 22 22 23 25 26 28 30 31 31 31 30 29 29 29 29 29 27 26 26 25
14 13 11 12 14 12 16 15 16 16 17 18 18 21 22 21 22 21 19 18 18 19 21 21 21 22 22 23 25 27 28 30 30 30 29 29 29 28 27 27 26 26 27 27
13 11 9 9 10 9 10 12 13 13 13 15 16 18 20 21 21 19 18 18 18 18 19 20 21 21 22 23 24 25 25 26 26 28 28 28 28 27 26 24 22 23 25 25

GFSCGP_925_temp_060.txt.gz
Temp
24 23 24 25 25 26 28 28 28 30 32 29 27 27 27 27 25 27 26 26 26 26 27 27 26 26 27 26 25 25 25 26 26 26 26 26 26 26 26 25 26 26 26 25
24 25 26 27 27 28 28 28 29 31 32 33 29 28 28 26 26 27 27 26 26 26 26 27 27 27 27 26 25 25 25 26 26 26 26 26 26 26 26 26 26 26 26 25
25 27 28 28 28 29 28 28 29 29 32 31 29 26 26 26 27 27 29 27 28 27 27 27 27 27 27 26 25 24 25 26 26 26 26 25 26 26 25 26 26 26 25 25
26 28 29 28 28 29 27 30 31 31 30 29 30 24 25 26 26 26 26 28 28 28 29 28 28 27 27 27 25 25 25 26 25 25 25 25 24 24 25 26 26 26 26 25
27 28 28 28 28 30 29 30 30 30 29 29 31 27 25 27 26 27 28 27 28 27 30 29 29 28 28 28 26 25 25 25 25 25 26 25 24 24 25 25 26 26 26 25
27 29 29 29 30 30 31 30 29 29 27 26 28 30 27 26 27 29 29 28 28 28 30 30 30 29 28 27 26 26 24 25 25 25 25 25 24 25 25 25 26 26 26 26
26 28 29 30 28 30 30 27 25 24 26 26 27 27 30 29 29 30 29 30 29 29 28 31 30 29 28 27 26 26 25 24 24 25 24 25 25 25 25 25 26 26 26 26
21 25 27 30 29 28 27 28 25 25 24 27 27 27 30 30 32 31 30 31 30 30 29 30 30 30 29 27 26 26 25 25 24 25 24 25 25 25 25 25 26 26 27 27
13 21 29 30 30 30 28 27 29 25 25 25 26 29 31 31 30 32 31 31 31 31 30 30 31 30 30 27 26 25 25 25 24 24 24 25 25 25 25 25 26 26 27 27
14 13 21 27 30 31 30 28 28 23 26 25 26 28 31 30 31 30 32 32 31 31 31 31 32 30 30 28 27 26 25 25 25 24 24 24 24 25 25 25 25 26 27 26
14 13 18 22 26 28 29 29 28 27 23 27 25 29 29 29 30 30 31 33 32 31 31 32 32 31 30 29 28 26 25 25 24 24 24 24 24 24 24 25 25 26 26 26
15 14 14 19 25 28 29 27 28 28 25 23 25 30 32 31 30 31 31 34 33 32 32 33 32 32 30 30 28 27 25 25 24 24 24 23 23 23 23 23 24 25 26 26
13 14 14 19 24 28 27 28 26 24 25 24 28 30 31 30 30 30 33 31 34 33 33 33 33 31 30 30 29 28 26 25 25 24 24 23 23 23 23 23 24 24 25 26
13 12 13 14 16 18 20 22 28 26 26 26 28 31 30 32 30 30 31 31 33 34 34 33 32 31 31 30 30 28 27 26 25 24 24 23 23 23 23 23 24 24 25 25
11 11 12 14 17 19 21 22 26 28 29 29 29 26 29 29 30 29 29 29 31 33 34 33 32 31 31 30 30 29 28 27 26 25 24 24 23 24 23 23 23 24 24 24
9 11 11 12 19 21 22 26 28 29 30 28 28 28 29 29 29 29 29 28 30 33 34 33 32 32 31 31 30 29 29 28 27 25 25 25 24 23 23 23 23 23 23 24
8 10 10 13 20 22 25 23 27 29 30 29 30 29 31 31 26 24 28 29 28 28 31 33 33 32 32 32 31 30 29 28 27 26 26 25 25 24 24 24 23 23 23 23
10 10 9 13 19 22 22 22 23 23 23 23 23 25 27 25 25 25 25 26 27 27 27 26 26 27 33 33 31 31 30 29 28 27 26 26 25 24 24 24 24 23 23 23
13 11 11 14 19 23 20 20 20 20 21 22 22 26 26 26 25 23 24 24 23 23 23 24 25 27 30 31 32 31 30 29 29 28 28 26 26 25 24 24 24 24 24 24
14 11 10 14 18 20 15 17 21 22 19 22 22 21 22 26 21 20 21 22 22 22 22 23 25 25 27 28 30 30 29 29 29 29 28 28 27 26 25 25 25 25 24 24
12 11 11 15 18 17 15 16 20 19 18 20 20 20 20 19 19 20 21 21 21 21 21 21 22 23 24 26 29 28 29 29 29 29 29 27 27 27 26 26 25 25 25 25
11 12 12 12 15 15 14 15 14 15 17 17 17 19 19 19 19 19 19 19 20 19 21 21 21 22 23 24 25 25 26 29 30 30 30 29 28 27 26 26 25 25 25 25
11 10 10 10 12 12 13 13 13 15 15 15 15 16 17 19 18 18 18 18 18 19 20 20 20 21 22 23 24 24 24 27 29 30 30 29 29 29 28 26 26 25 25 25
12 12 10 10 13 11 11 13 13 13 13 14 14 14 16 17 18 17 17 17 17 18 18 19 20 20 20 21 23 23 24 25 27 29 30 29 28 28 27 26 26 25 25 25
9 11 9 10 11 10 12 13 12 11 12 12 13 14 14 16 16 17 16 16 16 17 17 18 18 19 20 20 22 23 23 25 25 25 26 27 27 27 26 26 25 25 25 25
8 8 9 9 9 9 9 10 11 11 11 11 12 13 14 15 16 17 17 16 16 16 18 18 19 20 20 21 21 22 22 23 24 24 24 25 25 26 25 26 24 23 25 25

GFSCGP_925_temp_063.txt.gz
Temp
22 21 22 23 22 25 26 27 27 28 30 29 29 27 25 24 24 24 24 24 25 25 25 25 25 25 24 24 24 24 24 24 24 24 24 24 25 25 25 25 25 24 25 25
21 21 23 24 24 24 25 25 25 28 30 28 28 28 26 25 25 25 25 24 25 25 25 26 25 25 25 24 24 24 24 25 25 24 24 25 26 26 25 26 25 25 25 25
22 23 25 25 24 25 24 24 26 27 29 29 28 27 27 26 25 26 26 25 25 25 25 25 25 26 26 24 24 24 25 25 25 24 24 25 26 26 26 25 25 26 25 25
23 26 26 25 25 26 23 26 28 28 28 28 28 24 24 27 26 25 26 26 25 25 26 26 26 25 26 25 25 25 25 24 24 24 24 25 25 24 25 25 26 26 26 25
25 25 25 25 26 27 26 28 27 28 27 27 28 25 25 26 26 25 26 27 27 26 26 26 26 26 26 26 24 24 24 24 24 24 25 25 24 25 25 25 25 25 26 25
24 27 26 27 28 28 28 28 27 27 27 26 27 27 26 24 26 27 27 27 27 27 27 27 27 26 26 26 26 24 24 24 24 24 24 25 25 25 24 25 25 25 25 26
18 24 26 27 26 27 27 24 23 23 24 25 25 25 29 27 29 29 28 28 28 28 28 28 27 27 26 26 26 24 23 23 23 24 24 24 25 25 26 25 25 25 25 25
14 21 25 27 26 25 26 25 22 22 22 26 25 24 28 29 29 30 29 29 29 28 28 28 28 28 28 27 27 25 23 23 23 23 23 24 24 25 26 25 25 25 26 26
13 16 18 21 22 27 25 25 26 23 23 22 25 25 28 30 28 29 29 29 29 28 29 28 29 29 29 27 27 25 24 23 23 23 23 23 24 24 25 25 25 25 25 26
14 13 17 19 21 26 26 25 26 21 24 23 24 26 29 28 28 27 28 29 29 29 29 29 29 29 28 27 27 26 25 24 23 23 23 23 24 25 25 25 25 25 25 26
14 13 15 17 20 23 25 26 25 25 22 26 23 26 25 28 28 28 29 29 30 30 29 29 29 30 29 28 26 25 25 24 24 23 23 23 23 23 24 24 25 25 25 25
13 12 13 15 18 19 19 20 25 25 23 21 23 28 29 28 28 28 28 31 31 30 30 30 29 30 30 29 27 25 25 24 24 24 23 23 23 23 23 24 24 25 26 26
13 12 12 17 19 18 17 18 19 21 22 23 25 28 29 28 29 29 28 27 29 30 30 30 30 30 30 29 28 26 25 25 25 24 24 23 23 23 23 23 23 24 25 25
13 11 12 14 13 14 14 16 16 18 21 27 26 29 28 28 28 28 27 27 29 30 31 30 30 31 30 30 29 27 25 25 25 24 24 23 23 23 23 24 24 24 24 24
11 11 12 11 12 13 14 15 17 18 20 23 28 26 27 26 28 28 27 27 28 32 31 30 30 31 30 30 29 28 26 25 25 24 23 23 23 23 23 23 23 24 23 24
8 11 10 12 14 15 15 16 19 21 22 23 27 27 27 24 23 23 22 25 28 31 31 31 31 31 31 30 29 28 27 26 25 24 24 24 23 23 23 23 23 23 23 23
7 10 10 11 14 14 19 20 21 21 20 21 25 25 22 22 22 21 21 22 26 31 32 31 31 31 31 31 29 29 27 26 25 24 24 24 23 22 22 22 22 22 22 22
8 9 10 10 13 16 18 18 20 20 19 19 20 22 23 22 21 21 21 20 21 22 27 31 32 32 31 31 30 29 28 27 25 25 24 24 23 23 22 22 22 22 22 22
10 9 10 11 12 17 18 16 15 17 18 16 18 20 21 23 23 21 20 20 20 20 21 22 24 28 30 31 30 29 27 27 25 25 25 24 24 23 23 22 23 23 23 22
10 9 10 11 12 18 14 14 15 17 17 16 16 15 19 20 19 18 19 19 19 20 20 21 23 24 27 28 30 29 27 27 26 26 25 25 24 24 23 23 23 23 23 23
9 10 10 11 12 14 13 12 16 18 15 16 14 14 14 17 17 17 18 18 18 19 20 20 21 21 21 24 28 28 27 27 28 27 27 26 25 25 24 24 24 23 23 23
10 11 11 11 13 15 11 12 14 12 15 14 14 13 14 15 18 17 17 17 18 18 18 19 19 19 20 22 24 23 24 26 28 28 28 28 27 26 25 25 25 24 24 23
10 9 10 9 10 12 12 10 12 11 12 12 12 13 14 15 16 16 16 16 16 16 17 18 18 19 19 21 22 22 23 26 27 27 27 27 28 27 26 25 24 24 24 24
10 10 10 9 11 11 10 10 11 11 10 11 12 13 13 14 15 15 15 15 15 15 16 17 17 18 18 20 21 21 23 24 25 25 25 25 25 25 25 26 25 24 24 24
8 8 8 9 11 10 12 11 11 11 11 11 12 12 13 14 15 14 14 14 14 15 16 17 16 16 17 19 20 21 21 22 23 24 24 24 24 24 24 24 24 24 25 24
7 8 9 9 9 9 9 10 10 10 11 10 11 12 12 13 13 15 13 14 15 15 16 16 17 17 18 19 20 21 21 21 22 22 23 23 24 24 24 24 23 23 23 24

GFSCGP_925_temp_066.txt.gz
Temp
20 19 21 21 21 23 24 25 26 27 28 27 26 25 23 23 23 23 23 23 23 23 24 24 23 23 22 22 22 23 23 24 23 23 23 23 23 24 25 25 25 25 24 24
19 20 21 22 22 23 23 24 24 26 28 27 26 27 24 23 23 24 24 24 23 24 24 24 24 23 23 22 23 23 23 24 24 24 24 24 24 24 25 25 25 25 25 24
20 21 23 23 22 22 22 22 24 26 28 28 27 25 24 24 24 24 24 25 24 24 24 24 24 24 24 23 23 23 24 24 24 24 24 23 23 23 24 24 25 25 25 25
21 23 23 23 22 23 19 24 25 26 26 26 26 23 23 24 23 24 24 24 24 24 25 24 24 24 24 23 23 24 24 24 24 24 24 24 23 23 24 25 25 25 25 25
21 23 23 23 24 24 24 25 25 25 25 26 26 24 24 24 24 23 24 24 25 25 25 25 25 25 25 24 23 23 24 24 25 24 24 24 23 24 25 25 25 25 25 26
22 24 24 24 25 25 25 26 24 24 24 25 26 25 24 23 25 25 25 25 26 25 25 25 25 25 25 25 24 23 23 24 24 24 24 24 23 24 24 24 25 25 25 25
17 22 25 26 24 24 25 22 20 21 23 24 24 24 28 26 26 28 27 26 26 26 26 25 25 25 25 25 24 23 23 23 23 24 23 23 24 24 25 25 25 25 25 25
14 21 21 19 23 23 22 22 19 20 20 24 22 23 27 29 29 27 28 28 27 27 26 26 26 25 25 25 25 23 23 23 23 23 23 24 24 24 25 25 25 26 25 26
12 16 18 20 19 21 23 23 23 22 21 21 22 23 26 28 28 27 27 27 27 27 27 27 26 26 26 25 25 24 23 23 23 24 24 23 23 24 24 25 25 26 26 25
13 13 17 17 19 21 22 23 23 18 22 22 22 24 26 26 29 27 26 27 27 27 27 28 27 27 27 26 25 25 24 23 23 23 23 23 24 24 24 25 25 25 26 25
13 12 14 16 19 20 18 22 22 22 21 24 21 24 23 26 27 28 27 27 28 28 28 28 28 28 27 27 26 25 24 23 23 22 23 23 23 23 23 24 25 25 25 26
12 10 11 13 17 18 17 18 18 20 21 20 22 25 28 27 27 26 27 26 28 28 28 28 29 28 28 27 27 26 24 23 23 23 23 23 23 23 23 23 24 25 25 25
12 10 10 15 16 15 15 16 13 13 14 21 23 24 27 28 27 26 27 25 25 27 27 28 28 28 28 27 27 26 25 24 23 23 22 22 22 22 23 23 24 24 25 25
12 9 10 12 12 12 14 16 15 15 14 17 23 26 28 27 26 26 26 26 26 25 27 28 28 28 29 27 26 25 25 24 24 23 23 22 22 22 23 23 23 24 25 25
9 9 10 10 12 13 13 14 17 15 15 16 20 22 24 25 26 25 22 22 24 25 25 26 28 28 28 28 26 25 25 24 24 24 23 23 22 23 23 23 24 24 24 25
7 9 10 10 12 13 14 16 18 18 18 17 18 20 22 21 20 19 19 20 20 22 26 27 28 28 28 28 27 25 25 24 24 24 23 23 23 23 23 23 23 23 23 23
8 9 10 9 12 13 15 17 19 17 15 17 20 20 19 20 19 18 18 19 19 20 21 26 28 28 28 29 28 26 25 24 24 24 23 23 23 22 22 22 22 22 22 22
8 8 9 10 10 14 17 17 19 17 16 15 15 15 20 19 19 19 19 18 18 20 20 24 29 29 30 30 28 27 25 24 24 23 23 23 22 22 22 22 22 21 21 22
8 8 10 10 11 14 16 14 13 14 16 15 14 14 16 20 21 20 20 19 19 19 19 20 27 29 30 29 28 27 25 24 23 23 23 23 23 22 22 22 22 22 21 21
7 8 9 11 10 14 13 12 13 14 16 15 13 13 13 18 18 19 19 19 19 19 19 20 21 26 28 28 28 26 25 24 23 24 24 23 23 23 22 22 22 22 22 22
9 9 9 10 11 13 10 10 12 15 14 14 12 12 12 13 14 18 18 18 18 18 19 18 19 20 20 26 27 25 24 24 25 24 24 24 24 24 24 23 23 22 22 22
9 10 10 10 10 13 9 10 11 10 11 13 12 11 12 13 15 16 17 17 17 17 17 18 19 19 19 23 26 24 24 25 26 25 25 25 25 24 23 24 23 23 23 22
9 8 10 9 10 9 9 9 10 10 11 11 11 12 12 13 13 15 15 15 15 15 16 17 17 18 18 18 21 21 22 26 27 26 25 26 26 24 24 23 23 22 22 22
8 9 9 9 10 9 10 10 10 10 11 11 11 12 13 13 14 14 13 14 14 15 15 16 17 17 17 17 19 19 21 23 24 24 24 25 25 24 24 23 23 23 22 22
8 8 8 9 9 9 10 10 10 10 10 11 12 12 13 13 13 14 13 13 13 14 15 16 15 16 16 18 18 19 20 21 22 22 22 23 23 24 24 24 24 23 24 24
8 7 8 9 8 8 9 9 10 10 11 12 12 12 13 13 13 13 13 12 13 13 15 15 16 16 17 18 19 19 19 20 20 20 21 21 22 23 23 23 23 23 24 24

GFSCGP_925_temp_069.txt.gz
Temp
23 24 24 26 26 27 27 27 29 29 31 31 31 31 28 26 26 26 26 25 25 26 26 25 24 24 23 22 22 21 21 21 21 21 22 22 23 23 23 25 25 25 25 24
22 24 26 26 25 26 27 27 28 30 30 30 31 31 30 26 26 26 26 25 26 26 26 25 24 24 23 23 22 21 21 21 21 22 22 22 23 23 23 25 25 25 25 25
24 25 25 24 25 25 26 27 27 29 30 31 30 30 28 27 27 27 27 27 26 26 26 26 25 24 24 23 22 22 22 22 22 22 22 22 23 23 23 23 25 26 25 25
24 26 24 25 25 25 26 27 27 27 28 29 31 30 29 29 27 26 27 27 27 27 27 27 26 25 25 24 23 22 22 23 22 22 22 22 24 24 24 24 24 25 25 25
24 25 25 24 25 26 26 27 27 27 27 28 29 29 32 29 28 28 28 28 28 28 28 27 27 26 25 25 24 23 22 23 23 22 23 23 23 24 24 23 24 25 25 25
26 25 26 26 26 26 27 27 27 28 28 27 28 29 31 30 30 30 30 29 28 28 28 28 27 26 26 25 24 24 22 23 23 22 23 23 23 23 23 23 24 24 24 24
22 25 26 27 26 27 27 27 26 25 26 27 30 28 30 32 32 33 31 30 29 29 29 28 28 27 26 25 25 24 23 22 23 23 22 23 23 23 23 23 24 24 24 24
21 23 25 24 26 27 26 27 27 25 27 28 29 28 30 32 33 32 32 32 31 29 29 28 28 27 26 26 25 24 23 22 22 22 22 23 24 23 23 23 24 24 24 24
19 22 20 21 22 25 26 26 29 27 26 28 30 29 31 31 33 34 33 32 31 30 29 29 28 27 27 26 25 24 24 23 22 23 23 23 23 23 23 24 24 24 24 24
17 19 20 20 21 23 26 28 26 26 25 26 28 29 30 31 32 33 32 32 32 32 30 30 29 28 27 26 25 25 24 23 23 23 23 23 23 24 24 23 23 24 25 25
17 17 21 20 22 25 23 25 26 27 27 27 27 29 31 32 32 33 34 33 33 32 31 31 30 28 27 27 26 25 24 23 23 23 23 23 23 23 23 23 23 23 25 25
15 16 17 20 20 20 19 23 25 26 26 27 28 29 32 32 33 32 32 33 33 33 32 31 31 29 28 27 27 26 25 25 24 23 23 23 23 23 23 23 23 23 24 26
15 15 17 21 20 19 20 19 19 20 22 25 26 28 31 32 33 33 32 33 32 31 31 31 31 30 29 28 27 27 26 26 25 24 23 23 23 23 22 23 23 23 24 26
15 14 15 19 17 16 17 18 18 20 23 26 27 28 30 31 32 31 30 30 30 29 30 31 31 30 29 28 27 27 27 27 26 25 24 24 23 23 23 23 23 23 24 25
14 14 15 16 16 15 16 16 18 18 20 23 27 26 28 29 26 25 25 26 27 28 28 30 30 30 29 28 28 27 27 26 26 25 24 24 23 23 23 22 22 22 23 24
12 14 13 15 16 16 16 17 18 18 20 20 21 23 25 24 24 24 23 23 24 25 26 27 29 30 29 29 27 27 26 26 25 24 24 24 23 23 22 22 22 22 22 22
12 13 13 15 15 15 17 18 19 20 20 21 22 23 20 24 23 22 22 22 22 23 23 24 26 29 29 29 27 27 26 25 25 24 24 24 23 23 22 22 22 22 22 22
11 10 11 13 14 15 19 18 22 20 18 18 18 19 18 21 22 22 21 20 21 21 22 22 24 26 29 29 28 27 26 25 24 24 24 23 23 23 22 22 22 22 22 22
12 12 12 12 14 17 17 13 13 15 17 17 16 17 16 18 21 23 20 20 19 19 20 21 22 24 29 30 29 27 26 25 24 24 24 23 23 23 22 22 22 22 22 22
11 12 12 13 12 15 12 12 12 13 17 16 15 15 15 20 24 21 18 19 19 19 19 20 24 28 30 29 29 26 25 25 25 25 24 24 23 23 23 22 22 22 22 23
9 9 10 12 12 14 10 10 11 14 15 12 14 14 14 17 17 17 18 17 18 18 19 20 22 27 29 29 28 26 26 25 25 25 24 23 23 23 23 23 22 22 22 23
10 10 10 10 11 12 9 10 10 10 11 12 13 14 14 16 16 17 16 16 17 17 18 19 20 20 24 26 26 26 25 25 24 24 24 23 23 24 24 23 23 22 22 23
10 8 10 10 12 10 10 9 9 10 10 11 12 13 14 15 15 15 15 15 17 17 17 18 19 19 19 20 24 25 24 24 24 24 24 24 23 23 24 23 23 23 23 24
7 7 8 8 10 9 10 10 10 9 10 11 12 13 13 14 14 15 15 15 15 16 17 17 19 18 18 19 19 20 21 23 24 24 24 24 24 23 24 24 24 24 25 25
7 7 7 8 8 8 10 10 10 10 11 12 13 13 13 13 14 14 14 14 15 16 16 17 17 18 18 18 18 19 19 21 23 24 24 23 24 23 24 25 25 25 25 25
7 7 8 9 8 8 9 10 10 9 10 11 11 12 13 13 13 13 13 14 15 16 16 17 17 17 17 18 18 18 18 19 21 22 23 22 24 24 24 25 23 24 24 24

GFSCGP_925_temp_072.txt.gz
Temp
28 27 28 30 31 33 32 33 34 34 35 34 34 35 33 31 31 31 31 30 30 30 29 28 27 27 27 26 25 24 24 24 23 24 24 25 25 25 25 26 25 24 24 24
27 27 30 31 31 30 31 31 32 35 35 34 35 34 35 32 31 32 32 30 30 30 30 29 27 27 27 26 25 24 24 23 23 24 25 26 26 26 26 26 25 25 24 24
28 30 30 29 29 28 30 31 32 33 34 33 34 34 34 34 32 32 32 32 31 31 30 30 28 28 27 27 26 25 24 23 23 25 24 24 25 25 25 26 26 25 25 25
27 30 28 29 28 29 30 31 31 31 31 32 34 33 34 35 32 32 32 32 32 31 31 31 29 28 28 27 26 25 24 24 23 23 25 25 26 27 27 27 27 26 25 25
28 28 28 28 29 30 30 32 31 31 31 32 33 33 35 36 33 33 33 33 33 32 32 32 31 29 28 28 27 26 24 24 24 23 25 24 25 27 27 27 26 25 25 25
28 30 29 29 30 30 30 30 30 31 31 30 32 33 35 34 34 34 34 34 33 33 33 32 31 30 29 28 27 27 25 24 23 24 23 24 26 26 27 26 27 26 26 26
27 28 29 30 29 30 29 29 29 29 30 30 34 33 34 36 36 36 35 34 34 34 34 33 32 31 29 29 28 27 26 24 24 24 24 24 24 25 25 25 26 27 27 27
27 27 28 29 29 29 29 30 30 29 31 32 33 32 34 36 35 36 37 37 36 34 34 33 32 31 30 29 28 27 26 24 24 24 24 24 24 25 25 25 27 27 27 28
25 26 26 26 29 30 30 29 32 32 33 32 34 33 35 36 36 35 36 36 36 36 35 34 33 31 30 29 28 27 27 24 24 25 24 24 24 24 26 26 26 26 26 27
23 23 26 27 26 27 28 31 29 30 29 29 32 33 33 34 34 36 36 36 37 37 36 35 34 32 31 30 29 28 26 25 25 25 25 25 25 24 25 25 25 26 26 26
22 22 25 24 26 28 28 28 29 31 31 30 31 33 36 35 35 35 36 37 38 38 37 36 35 33 31 31 30 28 27 26 25 26 25 25 25 25 25 25 25 25 25 25
21 21 22 25 25 25 25 28 30 29 29 30 31 33 35 35 36 36 36 37 38 38 38 37 36 33 32 31 30 29 28 27 26 26 25 25 25 25 26 25 25 25 25 24
20 21 20 23 25 25 25 27 27 30 31 30 30 31 35 35 34 35 35 35 35 35 36 37 36 35 33 32 31 30 29 28 28 27 26 26 25 26 25 25 25 25 25 24
17 20 20 22 22 22 21 23 24 27 28 29 30 31 33 34 34 33 32 32 32 33 33 35 36 35 33 32 31 30 30 30 29 28 27 26 25 25 25 25 25 25 25 25
18 17 19 20 21 20 20 21 22 23 25 27 30 30 32 33 32 30 30 30 30 31 32 33 34 35 34 32 31 29 30 30 30 29 28 27 26 25 25 25 25 25 25 25
18 16 17 18 20 21 20 22 22 22 23 24 26 27 31 31 30 30 29 28 29 29 30 30 31 33 34 33 31 30 29 29 29 29 28 28 26 25 25 25 25 25 25 25
15 16 17 17 20 19 19 22 23 23 24 24 24 27 30 27 29 28 26 26 27 27 28 28 29 30 32 33 32 30 29 29 29 28 28 27 26 25 25 25 25 25 25 25
15 15 16 17 18 17 23 21 21 23 24 25 25 27 25 24 26 26 25 24 24 25 25 26 27 28 29 31 33 31 30 29 28 28 27 26 26 25 25 25 25 24 25 25
17 14 15 16 18 21 21 15 15 15 22 22 22 23 22 22 23 25 24 23 23 22 23 24 25 26 27 29 31 32 30 29 28 27 27 26 26 26 25 25 25 25 25 25
17 16 13 15 16 17 14 12 12 13 15 17 18 19 19 20 23 26 22 22 21 21 21 22 24 25 28 29 30 32 30 29 28 27 27 26 26 26 25 25 25 25 25 25
12 12 12 13 14 17 15 14 12 13 14 14 15 16 17 17 20 21 22 21 18 19 18 21 23 25 28 31 31 32 30 29 28 27 27 26 26 25 25 25 25 25 25 26
10 10 11 12 12 14 14 15 12 11 11 12 13 14 15 16 18 20 20 19 18 18 18 19 21 22 25 31 31 30 29 28 27 27 27 26 26 26 26 25 25 25 25 25
11 11 12 13 15 14 12 12 12 11 10 11 11 12 13 15 16 18 19 17 17 18 16 17 20 22 22 25 30 28 28 27 27 27 27 26 26 25 27 25 25 25 25 26
8 6 9 11 14 12 10 12 12 11 11 11 12 12 13 14 15 16 17 16 16 16 16 16 18 20 20 21 22 23 25 26 26 26 26 26 26 25 26 26 26 26 27 27
8 7 8 9 11 9 10 10 10 11 11 11 11 12 12 14 14 15 15 15 15 15 16 15 16 16 18 19 20 21 22 25 26 26 26 26 26 25 26 27 28 28 28 29
7 7 8 8 8 8 8 10 10 10 10 11 11 12 12 13 13 14 14 14 14 15 16 15 15 15 16 17 18 19 20 22 25 26 26 27 28 27 27 28 27 26 25 27

GFSCGP_925_temp_075.txt.gz
Temp
29 29 31 33 33 35 36 37 36 38 39 37 36 36 28 34 36 35 34 33 33 33 33 31 30 30 29 29 28 27 26 26 25 25 25 26 27 27 28 28 27 26 26 25
31 29 32 34 34 34 35 35 36 38 39 38 37 36 36 35 35 35 35 33 33 33 32 31 30 30 30 29 28 26 26 25 25 25 26 27 28 28 28 28 26 26 26 25
31 32 33 33 33 33 33 34 35 36 37 38 37 36 35 28 33 36 36 35 34 33 33 32 31 30 30 29 28 26 26 25 24 26 26 26 27 28 28 28 27 26 26 26
31 33 32 32 32 33 32 34 34 35 36 34 36 35 37 31 25 35 36 36 35 34 34 33 32 31 30 29 28 27 25 25 24 25 26 26 27 28 29 28 28 27 27 27
30 31 31 31 32 33 32 34 34 34 34 35 36 35 37 38 35 36 36 36 36 35 34 34 33 31 31 30 29 27 25 25 25 24 26 26 27 28 28 29 28 28 26 27
31 33 32 32 32 33 33 33 33 34 34 32 34 36 37 37 37 36 37 37 36 36 35 35 33 32 31 30 29 28 26 25 24 24 25 26 26 28 29 28 28 27 28 26
30 30 32 32 31 32 32 32 31 31 31 32 35 35 37 39 37 37 38 37 37 37 36 35 34 33 31 31 30 29 27 25 24 24 24 25 26 26 28 27 28 28 29 29
29 29 31 33 31 32 31 32 31 30 32 34 35 34 36 39 38 36 38 38 38 37 37 36 35 34 32 31 30 30 28 25 25 25 25 24 25 26 27 27 28 28 29 29
28 29 32 32 32 32 32 31 34 34 36 35 36 36 38 38 38 36 31 38 38 38 37 36 36 34 33 32 31 30 29 26 25 25 25 24 24 25 27 28 27 28 29 29
27 26 30 31 31 31 32 34 31 32 31 32 36 36 36 37 37 38 37 38 39 39 38 38 37 35 34 32 31 30 29 27 26 26 25 25 24 25 26 27 27 27 28 28
26 25 27 29 28 29 30 30 31 33 33 32 33 36 39 37 37 38 38 38 39 39 39 38 38 36 34 33 32 31 29 28 26 26 26 26 25 25 25 26 26 26 27 27
25 25 25 27 30 31 31 31 31 30 31 33 34 35 39 39 39 38 38 39 39 39 39 39 39 37 35 34 33 32 30 29 27 27 26 26 26 26 26 26 26 26 26 26
23 23 23 25 27 29 28 29 30 32 33 32 33 34 37 37 37 38 38 38 39 39 39 39 39 38 36 34 33 32 31 30 29 27 27 27 26 26 26 26 26 26 26 25
20 21 22 24 26 26 27 28 29 30 30 32 33 34 35 36 36 36 35 34 35 35 36 37 39 38 36 35 34 33 32 31 30 29 28 28 26 26 26 27 26 26 26 26
20 19 21 23 24 24 25 25 26 27 28 28 32 33 34 35 36 33 33 33 32 33 34 35 37 38 37 35 34 33 32 32 31 30 29 29 27 26 26 27 27 26 26 26
19 18 18 20 21 23 23 24 25 25 26 27 28 29 32 31 32 33 33 32 31 32 32 33 34 35 37 36 34 33 32 32 32 31 30 29 28 27 26 26 26 26 26 26
17 16 17 17 21 23 22 24 25 25 27 27 27 29 31 31 31 30 29 29 29 30 30 30 31 32 33 35 34 33 32 31 31 31 30 29 28 27 26 26 27 26 26 26
18 17 15 15 19 18 24 26 26 25 26 27 28 28 29 30 28 28 29 27 27 27 27 27 28 29 31 32 34 34 33 31 31 31 30 29 28 27 26 27 26 26 26 26
20 19 14 15 18 21 23 19 19 20 24 24 28 28 29 26 25 27 28 26 25 24 25 25 25 26 28 28 30 32 33 32 30 30 30 29 29 28 27 26 27 26 26 26
20 20 18 17 15 17 17 17 17 18 21 20 20 20 20 22 24 25 24 25 24 23 22 23 23 26 28 28 30 31 33 32 31 30 30 29 29 28 27 27 27 26 26 26
15 15 15 16 16 19 19 19 17 17 18 16 16 16 17 17 19 20 23 24 22 21 20 21 22 23 25 26 29 31 32 33 31 30 30 29 28 28 27 27 27 26 26 28
13 13 14 14 14 15 18 18 17 16 17 15 15 14 14 15 17 18 20 22 22 20 19 20 21 21 21 25 27 31 30 32 31 30 29 29 28 27 27 27 26 26 26 26
12 9 10 13 16 19 17 16 16 16 15 14 14 15 14 15 16 18 19 21 20 19 18 18 19 21 19 20 24 31 31 31 30 29 29 28 28 27 28 27 26 26 26 27
11 9 9 11 16 17 15 16 14 13 13 13 14 14 13 13 15 17 17 19 19 17 16 17 18 18 18 18 19 21 21 29 29 28 28 28 27 27 27 27 27 27 28 28
8 8 8 9 12 10 13 11 10 10 11 12 13 14 13 13 14 15 16 17 17 15 15 17 17 17 17 17 16 17 18 21 27 28 28 28 28 27 27 28 29 28 29 30
7 6 8 8 7 7 7 9 10 10 10 11 12 13 14 13 13 14 15 15 15 14 15 16 16 16 16 16 15 15 16 17 21 26 27 28 29 28 28 28 27 28 28 29

GFSCGP_925_temp_078.txt.gz
Temp
31 30 29 31 32 34 35 36 37 38 39 38 37 31 28 26 26 23 29 33 33 31 32 32 32 31 30 29 28 27 27 26 25 25 25 26 26 27 27 26 26 26 26 25
31 29 32 33 34 34 34 34 36 38 39 39 38 31 27 26 27 23 25 33 34 33 31 32 32 31 30 29 27 27 27 25 25 25 25 26 27 27 28 28 27 26 26 25
30 32 33 33 33 34 34 34 35 36 38 39 38 31 26 26 29 28 30 35 35 34 31 32 32 31 30 29 27 27 26 25 25 26 26 26 27 28 28 27 26 26 26 26
31 33 33 33 33 34 33 35 35 35 36 35 38 35 29 26 25 31 31 28 35 35 33 32 32 32 31 29 28 26 26 25 25 26 26 26 27 28 28 27 27 27 26 26
31 32 32 32 33 34 33 35 35 35 34 35 36 36 37 31 31 30 26 28 35 35 34 33 33 32 31 30 28 26 26 25 25 26 26 26 27 28 28 28 28 27 27 27
31 33 33 33 34 34 34 34 34 34 34 33 35 36 36 32 31 29 31 31 33 36 35 35 33 32 31 30 29 27 25 25 25 25 25 26 26 28 28 29 27 26 27 27
30 31 33 34 32 33 33 32 30 30 31 32 35 35 36 38 34 31 31 34 36 36 36 35 34 33 32 31 30 28 25 25 24 24 25 25 26 27 27 29 28 27 27 26
29 29 32 33 32 32 32 32 31 29 31 33 35 34 36 38 39 37 36 38 37 37 35 35 34 33 32 31 30 29 26 24 24 24 25 25 26 26 26 27 28 28 28 29
27 29 33 33 33 33 32 31 33 32 34 33 35 36 37 39 39 37 32 31 34 27 36 36 35 34 32 31 30 29 27 25 24 24 24 25 25 26 27 27 28 28 29 29
26 25 30 31 33 33 32 34 31 33 30 31 34 36 36 37 38 38 36 28 26 25 29 37 36 35 33 32 31 30 28 25 25 24 24 24 25 25 27 27 27 27 28 29
26 25 26 29 29 30 31 31 32 32 33 31 32 35 39 37 38 39 36 28 24 24 25 33 37 36 34 33 32 31 29 26 25 25 25 24 24 25 26 26 27 27 27 28
24 24 24 27 30 32 31 30 31 30 29 32 33 35 38 38 39 39 39 35 33 29 22 22 33 36 35 34 33 31 30 29 26 25 25 25 25 24 25 26 26 26 27 27
21 22 23 24 27 30 29 30 30 31 32 30 32 34 38 38 39 39 39 39 37 36 27 26 32 37 35 34 33 32 31 30 28 26 26 25 25 25 25 25 26 26 26 26
21 21 21 22 25 25 26 29 30 30 30 31 31 33 35 35 30 35 34 34 35 35 36 36 35 37 36 35 33 33 32 31 30 28 27 26 25 25 25 25 25 26 26 25
20 19 20 22 23 23 24 26 28 28 29 29 30 32 25 24 27 26 34 34 33 33 34 32 34 31 33 34 33 33 33 32 31 30 28 27 26 26 26 26 26 25 26 26
20 18 19 18 21 22 23 24 26 27 27 28 29 28 24 24 26 29 27 31 31 31 31 30 30 30 28 28 33 33 33 32 32 30 29 28 27 26 26 26 26 26 26 26
19 14 17 17 20 21 21 23 25 26 27 27 26 28 30 27 27 22 25 26 28 28 28 28 28 29 29 29 25 33 32 32 32 31 30 29 28 27 26 26 26 26 26 26
19 19 15 16 17 15 21 25 26 26 26 28 28 28 29 26 24 25 26 26 26 25 25 26 27 27 27 27 29 29 33 32 32 31 30 29 28 27 27 26 26 26 26 26
21 19 16 14 17 16 19 20 20 20 25 24 22 23 21 23 25 21 22 25 25 24 24 24 24 24 25 26 27 29 29 31 31 31 30 29 29 28 27 26 26 26 26 26
18 19 18 18 15 16 17 20 20 21 21 20 19 18 18 21 24 19 20 22 24 23 22 21 22 24 24 24 24 27 29 30 31 30 31 30 29 28 27 26 26 26 26 26
15 12 13 17 17 19 17 17 20 17 18 19 19 18 17 17 18 19 20 21 21 22 21 20 21 21 21 20 21 22 26 29 30 31 30 30 29 28 28 27 26 26 26 26
13 13 13 15 15 16 18 19 17 17 18 18 18 18 17 17 17 18 19 20 21 21 20 19 19 20 20 19 18 19 22 21 28 31 30 30 29 29 28 27 26 26 26 26
12 10 10 12 13 16 15 13 12 17 17 18 16 16 16 16 16 17 17 19 19 20 19 19 19 19 18 17 16 17 17 18 21 30 30 29 29 29 29 27 27 26 26 26
13 11 10 11 15 13 12 13 11 11 12 13 14 15 15 16 15 16 17 18 18 18 18 18 18 19 18 17 15 15 15 17 20 29 29 29 28 28 28 28 27 26 26 26
11 10 10 11 12 8 13 9 10 10 10 11 13 14 15 15 15 15 16 16 17 17 17 17 18 18 17 16 15 14 14 15 17 25 29 29 28 28 27 27 27 27 27 27
9 8 8 9 8 7 7 8 8 8 9 10 10 11 12 14 15 15 15 15 16 16 16 16 17 17 16 16 14 14 15 14 15 21 22 27 28 28 27 27 27 28 27 28

GFSCGP_925_temp_081.txt.gz
Temp
28 26 25 27 27 29 30 30 30 32 34 34 33 26 26 25 24 24 24 25 29 30 30 31 30 29 28 27 27 27 26 25 25 25 26 25 26 26 26 26 25 25 25 25
26 25 28 30 30 30 30 30 30 31 34 33 28 27 26 26 25 26 26 26 24 30 30 29 30 28 27 27 27 27 26 25 25 25 26 25 26 27 26 26 25 25 25 26
26 28 30 30 29 30 30 28 30 30 33 33 28 26 24 26 26 25 25 24 23 26 30 30 30 29 27 26 27 27 26 25 25 25 26 25 26 27 26 26 26 26 26 26
27 30 31 30 30 30 27 31 33 33 30 28 31 26 25 26 25 23 25 23 22 22 28 30 29 29 28 26 27 27 26 25 25 25 26 25 26 26 27 26 26 26 26 25
27 29 29 30 30 31 30 32 31 32 30 29 30 28 26 26 26 25 23 22 22 23 28 30 30 29 28 26 26 27 26 25 25 25 26 26 26 27 27 27 27 26 26 26
28 30 30 30 32 32 33 31 29 29 28 25 28 29 26 25 28 28 26 25 23 28 30 30 31 30 28 27 26 26 25 25 25 25 25 26 26 27 26 27 27 26 26 26
27 28 29 31 29 30 31 29 24 24 24 25 27 28 29 28 30 30 29 29 31 29 31 30 30 30 29 27 26 25 25 24 25 25 25 26 26 27 27 27 26 26 26 26
24 24 29 31 29 28 28 27 24 25 24 26 28 28 29 31 32 31 30 31 29 30 31 30 30 30 30 28 26 25 24 24 24 25 25 25 26 27 27 26 27 27 27 27
22 24 27 28 29 30 28 27 28 26 27 27 28 29 31 32 32 32 31 30 30 31 31 32 31 31 30 29 27 26 24 24 24 24 25 25 25 26 27 27 27 27 27 27
22 21 25 27 27 29 28 29 26 26 25 24 27 28 28 30 33 31 31 30 27 27 27 26 24 31 30 30 28 27 24 24 23 23 24 25 25 26 26 27 27 28 28 28
20 19 21 24 25 25 26 27 27 27 26 26 25 26 31 31 31 31 31 30 28 24 25 27 23 23 23 30 29 27 24 24 23 23 23 24 24 25 26 26 27 27 28 27
19 19 18 21 24 26 26 26 26 24 24 25 25 27 27 26 27 29 31 30 28 26 24 22 22 22 21 21 30 28 25 24 24 23 23 23 24 24 25 26 27 27 27 27
18 17 16 19 22 23 22 23 24 26 25 24 24 26 27 27 26 25 28 27 27 25 23 22 22 21 22 21 27 29 27 25 24 24 23 23 23 24 24 24 26 27 27 27
20 17 16 16 18 20 20 22 22 23 24 24 26 27 25 24 25 23 23 26 26 24 24 22 21 20 21 22 24 30 29 26 25 24 24 24 23 23 24 24 25 26 26 26
18 16 16 17 19 20 20 21 21 21 24 24 25 26 24 23 22 21 22 23 23 24 24 22 23 21 20 21 24 30 30 29 26 25 24 24 24 24 23 23 24 25 25 26
17 16 15 16 18 19 19 20 22 22 24 24 25 26 27 22 21 19 19 21 22 22 22 23 22 22 20 21 21 25 28 29 28 26 25 25 24 24 24 24 24 24 25 25
16 13 14 15 17 18 17 19 20 22 23 23 23 21 24 21 20 18 19 19 21 21 21 21 21 22 22 21 20 21 21 23 28 27 26 25 25 24 24 24 24 24 24 25
16 15 13 13 13 13 18 19 20 21 19 19 19 20 21 18 17 17 17 18 20 20 20 20 20 21 22 21 22 24 21 22 23 27 27 26 25 25 24 24 24 24 24 24
16 15 14 12 13 15 17 18 18 17 17 18 17 18 18 18 19 18 18 18 19 20 20 19 20 21 20 19 20 21 23 21 22 27 27 26 26 25 25 24 25 24 24 24
14 14 12 14 13 14 15 18 19 19 16 17 18 17 16 17 17 15 17 19 18 19 19 19 19 19 19 18 17 19 19 21 19 20 27 27 26 26 25 25 25 25 25 25
11 12 12 12 13 16 14 15 18 15 12 12 16 16 15 14 15 16 17 17 18 19 19 19 18 18 18 17 16 16 17 17 17 20 22 27 27 27 26 25 25 25 25 25
12 10 10 11 13 13 12 14 12 11 12 13 13 14 14 14 15 16 15 16 17 18 18 18 17 17 18 17 15 15 15 16 16 18 21 24 28 27 26 26 25 25 25 25
11 10 9 10 12 13 11 10 10 11 11 11 11 11 12 13 13 14 15 15 16 17 17 17 17 17 18 17 15 14 14 15 17 17 18 23 28 27 27 25 25 25 25 25
11 11 9 10 13 10 10 8 8 9 9 9 10 11 11 11 13 13 13 15 15 16 16 16 16 16 17 16 15 14 13 15 16 16 17 23 27 27 27 26 25 25 25 25
9 9 10 9 11 8 10 8 8 8 8 9 10 10 10 10 11 12 13 13 15 15 16 16 16 16 16 16 14 13 13 13 16 15 16 20 27 28 28 27 26 26 26 25
9 8 7 8 8 7 7 8 8 7 7 8 7 8 9 10 10 11 11 13 14 14 15 15 15 16 15 14 13 13 13 13 14 15 15 15 19 24 27 28 27 26 26 26

GFSCGP_925_temp_084.txt.gz
Temp
25 23 23 24 25 25 27 27 26 28 30 31 28 24 25 24 25 25 25 26 27 28 27 28 27 26 25 25 25 26 26 26 25 26 25 25 25 25 25 25 25 25 25 25
24 23 25 27 27 27 26 26 26 27 30 31 25 24 25 24 24 24 24 25 27 28 28 28 28 26 25 25 26 26 26 26 25 26 25 25 25 25 26 26 25 25 25 25
23 25 27 27 27 27 26 26 26 27 29 26 26 25 24 24 25 24 24 26 27 28 28 28 28 26 25 25 25 26 26 26 26 26 25 25 25 25 25 25 25 25 25 25
24 27 28 27 27 27 24 27 29 29 28 27 28 24 23 24 23 24 25 26 25 25 27 28 28 27 25 25 26 26 26 26 26 26 25 25 25 25 25 25 25 25 25 25
25 27 27 27 28 28 27 29 28 30 28 26 28 25 23 24 24 23 25 25 25 26 26 26 28 27 26 25 25 26 26 26 26 26 26 25 25 26 26 26 25 25 25 25
26 28 28 27 29 29 30 29 25 24 23 23 25 26 24 24 26 26 26 25 26 26 26 26 28 28 26 26 25 25 25 25 25 26 26 26 25 25 26 26 25 25 25 25
25 26 26 28 28 27 29 23 21 23 22 23 23 25 25 26 28 28 27 25 27 28 28 26 27 28 26 26 25 24 24 24 25 25 25 26 26 25 26 26 25 26 26 25
21 23 23 26 25 26 26 23 21 24 23 24 24 26 27 27 28 29 28 27 27 26 27 27 27 28 27 26 25 24 23 24 24 25 25 26 26 25 26 26 26 26 26 26
19 22 24 25 25 26 25 25 23 22 23 22 23 26 28 26 26 27 29 27 28 27 26 28 29 29 27 26 25 25 23 23 24 24 25 25 26 25 26 26 26 27 27 26
18 19 21 23 24 23 22 23 25 20 23 24 24 25 25 23 23 24 28 28 27 27 28 28 28 28 28 26 25 25 24 24 23 24 24 25 25 25 26 26 25 25 27 27
17 17 18 21 20 20 21 19 19 21 20 21 23 23 24 22 22 22 25 29 28 27 27 28 27 28 27 27 26 25 24 24 23 23 24 24 25 25 25 26 26 26 26 27
17 14 16 19 20 21 22 19 18 17 20 20 21 23 24 23 22 22 23 28 29 28 25 25 24 23 23 26 26 25 24 24 23 23 23 23 24 25 25 25 26 26 26 26
18 13 13 15 16 17 18 20 18 17 16 21 22 22 23 21 21 21 21 21 21 22 21 21 21 22 22 22 23 25 24 23 23 23 23 23 23 24 24 25 25 26 26 26
16 12 13 12 15 16 17 18 19 18 15 17 20 21 20 20 19 19 20 21 21 21 21 20 20 21 20 21 21 23 24 24 23 23 23 23 23 23 24 24 25 25 26 26
14 14 16 15 16 17 17 18 19 18 18 18 19 21 18 18 18 18 19 20 20 19 20 19 19 20 20 20 22 23 24 24 23 22 22 23 23 23 24 24 24 25 25 26
12 14 14 14 16 16 17 17 18 19 19 20 20 22 19 19 19 18 18 18 19 18 19 19 18 19 18 19 20 20 23 26 24 23 22 23 23 23 23 23 23 24 25 25
13 11 11 13 14 15 14 15 17 17 17 18 18 17 16 17 16 16 17 18 18 18 18 18 18 18 17 17 18 19 20 21 23 24 24 23 22 23 23 23 23 23 23 24
13 11 10 10 13 13 14 17 18 16 17 16 16 17 16 16 15 15 16 17 17 18 18 18 18 17 17 17 17 17 19 20 22 23 22 23 23 22 22 22 22 23 22 23
11 10 10 11 10 13 16 13 14 14 15 14 12 16 16 16 17 15 16 17 17 17 16 18 18 18 17 17 16 16 17 19 20 19 20 22 22 23 22 23 22 22 22 22
10 10 10 10 12 12 11 13 13 15 14 13 13 14 14 15 13 13 14 16 17 17 17 17 17 17 17 16 16 15 16 16 16 18 17 21 21 22 23 23 23 23 23 23
8 8 9 9 10 12 11 12 13 13 12 11 12 11 11 11 12 12 14 15 15 16 16 16 16 16 16 16 16 15 15 15 15 16 17 21 21 21 24 23 23 24 23 23
10 7 6 7 10 11 10 12 11 10 10 10 11 10 10 11 12 13 13 14 15 15 16 16 15 16 16 16 15 14 14 14 15 15 16 19 18 19 25 24 24 24 24 23
10 8 7 8 8 9 9 8 8 7 7 8 8 9 9 9 10 11 11 12 13 14 15 15 15 15 16 16 15 14 14 14 14 14 15 17 19 21 24 24 24 24 24 24
10 9 7 8 10 8 7 7 8 7 6 7 8 8 9 10 10 9 10 11 12 13 14 15 15 14 15 15 14 14 13 13 13 13 15 16 17 22 24 25 24 24 24 24
7 7 7 7 8 9 8 7 7 8 6 7 7 8 8 8 7 8 9 10 11 11 13 14 14 14 14 14 14 13 13 13 12 13 14 15 16 18 22 24 24 24 24 24
6 6 5 6 7 7 7 7 7 7 7 7 6 7 7 7 7 8 8 9 10 10 12 13 14 14 13 14 13 13 13 12 12 12 13 14 16 17 18 21 24 25 25 25

GFSCGP_925_temp_087.txt.gz
Temp
24 22 22 23 24 25 26 25 26 26 27 27 25 25 25 23 24 24 24 25 26 27 26 26 25 25 24 23 25 25 24 24 24 25 25 24 24 24 24 24 25 24 24 24
22 22 24 26 25 26 26 26 25 26 28 26 25 24 25 23 23 24 24 25 26 27 25 26 25 24 24 23 24 24 25 25 25 25 25 25 25 25 25 25 25 24 24 24
22 25 26 26 26 26 25 25 25 26 27 25 25 25 24 23 23 24 24 26 26 26 25 26 26 25 24 23 24 25 25 25 26 25 25 25 24 24 24 24 24 25 24 24
24 25 26 26 25 25 24 25 26 27 26 25 26 23 24 24 23 23 24 23 25 26 26 26 26 24 24 24 25 25 25 25 26 26 25 25 25 24 24 25 25 25 24 24
24 26 25 25 25 26 25 26 26 27 25 25 26 24 23 23 23 23 24 24 24 26 27 26 27 25 24 24 24 24 25 26 26 25 26 25 25 25 25 25 25 25 24 24
25 27 26 26 28 26 28 27 23 21 21 22 25 24 23 22 24 25 25 25 25 26 25 27 27 26 25 24 23 24 24 25 26 26 26 25 25 25 24 25 25 25 24 24
23 24 24 24 26 25 24 22 21 23 22 22 22 24 25 24 24 25 26 26 26 26 26 26 27 27 25 24 24 23 23 24 25 26 26 26 26 25 25 25 25 25 25 24
20 23 22 24 24 25 25 22 20 23 21 22 20 25 23 23 23 23 25 27 27 26 26 27 25 27 26 25 24 23 23 23 24 25 26 26 26 25 25 25 25 25 25 25
19 22 22 23 23 23 24 21 23 19 20 22 22 25 23 23 22 22 22 24 27 26 26 27 26 27 26 25 24 23 23 23 24 25 25 26 26 26 25 25 25 25 25 25
18 20 20 21 22 21 20 21 21 19 22 23 22 21 20 21 20 21 21 22 24 25 26 26 26 26 26 26 25 24 23 23 24 24 25 25 26 26 26 25 25 25 25 25
16 17 19 19 18 18 17 17 16 17 18 20 21 20 22 21 20 20 20 20 23 25 25 25 26 27 26 25 25 24 23 23 23 23 24 24 25 26 26 25 25 25 25 25
15 13 15 18 17 19 18 17 15 16 19 17 18 19 20 20 20 20 20 19 20 20 20 20 21 21 21 24 25 24 23 23 23 23 23 24 24 25 25 26 25 25 25 25
17 11 13 17 16 15 16 17 16 14 13 15 18 19 20 19 19 20 20 19 19 19 18 19 19 19 21 21 21 23 23 23 23 22 23 23 23 24 24 25 26 25 25 26
14 10 12 13 15 15 16 17 17 14 14 15 17 18 17 18 17 18 19 20 19 19 18 18 17 18 19 19 21 21 22 23 23 23 22 22 22 24 24 25 25 26 26 25
13 13 15 14 14 16 16 16 17 18 18 17 17 17 16 18 17 16 18 19 19 18 18 17 18 17 18 18 19 20 22 23 22 23 22 22 22 23 23 24 24 25 26 26
11 12 14 14 15 15 16 16 17 18 18 19 18 15 16 16 16 16 16 17 17 17 18 18 17 18 17 17 17 17 19 20 22 21 21 22 22 22 22 23 23 23 25 25
11 10 10 13 12 14 14 15 15 15 14 15 15 15 15 16 15 14 14 15 17 16 16 17 16 17 17 16 15 16 18 19 20 21 21 21 22 22 22 23 23 23 23 24
10 10 8 10 12 13 14 13 16 15 14 13 13 14 16 16 16 15 15 15 16 16 15 15 16 16 16 16 16 15 16 18 19 20 20 21 21 21 22 22 22 23 23 23
9 9 9 10 10 12 14 12 12 12 14 12 12 12 12 14 17 16 14 15 15 15 15 14 15 16 16 16 16 15 14 15 17 18 18 19 20 20 20 21 21 22 22 22
9 8 10 9 12 12 12 12 13 12 11 11 11 10 10 12 14 14 13 14 15 15 15 15 14 15 15 15 15 15 13 14 14 14 15 17 19 20 20 20 20 22 21 22
6 6 8 8 9 11 11 11 12 12 11 9 10 9 9 9 10 11 12 13 13 13 14 15 14 14 15 15 15 14 14 12 13 15 15 15 17 18 20 21 22 20 22 21
8 6 5 6 10 11 10 11 13 9 8 8 8 8 8 8 9 10 10 11 11 12 13 13 14 14 14 15 15 14 14 14 14 15 16 17 16 17 18 22 21 21 21 21
8 8 7 8 8 9 9 10 8 6 6 7 6 6 7 7 8 9 10 10 10 10 11 12 13 14 14 14 14 14 14 14 14 15 15 16 15 16 17 18 19 21 21 21
9 7 6 9 9 8 7 7 7 6 6 6 6 6 7 7 8 9 9 9 9 9 10 11 12 13 13 14 13 13 14 15 14 14 15 16 15 15 15 17 20 21 21 21
7 7 7 6 7 8 8 6 6 6 6 6 6 6 7 7 7 7 7 7 7 8 9 9 10 11 12 14 13 13 13 14 14 13 13 13 14 15 15 17 20 21 22 22
6 6 6 6 7 8 8 6 6 6 6 6 7 7 8 8 7 7 7 8 8 7 8 9 9 10 12 13 13 12 12 13 13 13 13 13 12 14 15 16 17 21 22 23

GFSCGP_925_temp_090.txt.gz
Temp
22 20 20 22 22 24 25 25 25 26 26 25 25 24 23 23 24 23 24 24 24 25 25 24 24 24 24 23 23 24 24 24 24 23 23 23 24 24 24 24 23 24 24 23
21 21 22 24 23 25 25 25 25 25 26 25 24 24 23 22 23 23 24 24 24 25 24 25 24 23 23 24 24 24 24 25 24 23 24 25 25 25 25 24 23 24 24 24
22 24 24 25 25 25 24 24 25 26 25 24 24 23 23 22 23 23 23 24 24 25 25 24 24 24 23 23 23 24 24 25 24 24 24 25 24 24 23 24 24 24 24 24
24 25 26 25 25 24 24 24 25 26 25 24 25 23 23 22 22 23 23 22 24 24 25 25 24 24 23 23 23 24 24 25 24 24 24 25 25 24 24 25 24 24 24 24
24 25 24 25 25 25 24 24 25 25 25 24 25 23 23 22 22 23 23 22 23 24 24 25 25 24 23 23 23 24 24 24 25 24 24 25 25 25 25 25 25 24 24 24
24 25 25 25 26 25 26 23 21 19 20 22 25 24 21 21 21 23 25 23 23 25 25 25 26 25 23 23 23 23 23 24 25 24 24 25 25 25 25 25 25 25 24 24
22 23 22 23 26 25 23 21 19 22 21 22 19 22 21 21 21 21 21 23 24 24 25 25 25 25 24 24 23 23 23 24 24 25 25 24 25 25 25 25 25 25 25 25
19 21 20 22 22 23 23 22 19 22 19 22 21 22 22 21 21 21 21 21 22 25 25 24 26 26 25 24 23 23 23 23 24 24 25 25 25 25 25 25 25 25 25 25
19 21 20 22 20 21 23 20 20 18 18 21 21 22 22 22 21 20 19 20 19 23 26 26 26 26 25 24 23 23 23 23 23 25 25 25 25 25 25 25 25 25 25 25
17 19 20 19 20 19 19 19 20 18 21 23 20 19 19 21 20 20 19 19 19 20 25 26 26 26 25 24 24 23 23 23 24 24 25 25 25 25 26 25 25 25 26 25
16 17 20 17 16 15 16 15 15 16 17 19 18 19 20 20 20 20 19 19 19 19 20 24 25 25 25 25 24 23 23 23 23 23 24 24 25 25 25 25 25 25 25 25
15 12 14 16 17 16 16 16 13 17 19 15 16 18 18 18 19 19 19 18 18 18 18 18 19 20 22 24 24 23 22 22 23 23 23 24 25 25 25 25 25 26 25 25
16 11 13 16 16 15 15 16 15 12 12 15 17 17 18 18 18 18 18 19 18 18 18 18 17 18 18 19 21 23 23 22 22 22 22 22 23 24 25 25 25 25 25 25
13 9 12 13 15 13 15 16 16 13 14 14 16 18 17 17 17 16 17 18 18 18 17 17 17 17 17 16 18 20 22 22 22 22 22 22 23 24 24 25 25 25 25 25
12 12 13 13 15 15 15 16 16 17 16 17 17 18 16 16 15 15 16 17 16 17 17 16 16 16 16 16 15 17 18 19 21 22 22 22 23 23 23 23 24 25 25 25
10 11 14 13 14 14 15 15 16 15 15 17 15 14 16 16 15 14 14 14 16 15 16 16 16 16 16 15 15 15 16 18 19 20 21 22 22 22 22 23 23 23 24 24
10 9 10 12 12 14 14 14 14 14 13 14 14 14 16 16 14 13 13 13 14 14 15 15 15 15 15 15 15 14 15 16 18 19 19 20 21 22 22 22 22 22 23 23
10 8 7 10 11 13 13 13 15 14 13 12 13 13 13 13 15 14 13 13 13 13 13 14 14 14 15 15 15 16 15 16 15 16 19 19 20 20 20 21 21 22 22 22
8 8 8 10 10 12 13 13 12 13 12 11 11 11 12 12 14 14 12 13 12 13 13 13 14 14 14 15 14 15 16 15 16 14 14 16 17 19 19 20 21 21 21 21
8 7 9 8 12 12 13 12 12 12 11 10 11 10 9 10 12 13 10 11 12 12 12 12 13 14 14 14 14 14 15 15 14 15 14 14 15 17 19 20 20 20 21 21
6 6 8 8 9 11 11 11 11 12 12 9 9 9 8 8 9 9 9 10 10 11 11 11 11 12 13 14 14 14 14 14 14 15 16 15 14 15 17 18 19 20 20 21
8 7 6 7 10 11 11 11 12 9 8 8 7 8 7 6 7 7 8 8 9 10 10 10 10 10 11 13 14 13 13 14 15 16 16 16 15 14 16 17 18 18 19 20
7 7 7 8 8 8 9 10 7 6 7 7 6 6 6 6 6 6 7 7 8 8 8 8 9 9 10 11 13 13 13 13 14 14 15 15 16 14 15 15 17 17 18 20
8 6 6 8 8 8 8 8 7 6 6 6 6 5 6 5 6 6 7 7 7 7 7 7 8 9 9 10 11 12 13 13 13 14 14 15 14 13 14 15 16 17 18 20
7 6 6 6 7 7 7 7 7 6 6 6 6 6 6 6 6 7 8 8 8 7 7 7 7 7 8 9 9 11 12 12 12 13 15 13 14 14 15 16 15 16 17 19
5 6 6 7 8 8 8 8 6 6 6 6 6 6 6 6 6 7 8 8 7 7 7 7 7 7 7 8 9 10 11 11 11 12 13 13 12 14 14 14 15 16 18 19

GFSCGP_925_temp_093.txt.gz
Temp
25 26 26 27 28 28 29 29 29 29 29 28 29 29 27 26 26 26 26 26 27 27 26 26 25 24 24 23 22 22 22 22 22 21 22 22 23 22 23 22 23 23 23 23
25 26 26 27 26 28 28 29 29 29 28 29 28 28 27 27 27 26 26 26 26 27 27 26 26 25 24 24 23 22 22 22 23 22 22 22 23 23 23 22 23 23 24 24
26 27 26 27 26 27 28 28 28 29 28 27 28 28 26 25 26 26 26 27 27 27 27 27 26 25 25 24 23 23 23 22 23 22 23 24 24 24 23 23 23 23 23 23
27 27 27 27 27 28 28 28 28 28 29 30 28 31 27 26 26 25 26 26 27 27 28 28 27 26 25 25 24 23 23 23 23 23 22 23 25 25 25 24 23 23 24 23
26 27 27 27 28 28 28 28 28 28 29 29 28 31 27 26 26 26 26 26 26 27 28 28 28 27 26 25 25 24 22 22 23 23 23 23 24 24 24 24 24 24 24 24
26 26 26 28 27 28 28 27 27 27 28 29 28 30 26 25 23 24 25 26 26 26 26 28 28 27 26 26 25 24 23 23 23 24 23 23 23 24 24 24 24 24 24 23
26 25 25 25 27 26 28 28 27 28 28 29 26 29 23 23 23 22 23 24 25 27 27 27 28 27 26 26 25 25 23 22 23 23 23 23 23 24 25 25 25 24 24 24
25 24 24 24 24 27 28 29 29 27 27 29 26 26 22 23 23 23 23 22 23 24 26 28 27 28 26 26 25 23 23 23 22 22 23 23 23 23 24 24 25 25 25 24
24 23 23 23 23 23 25 27 25 26 24 29 28 24 23 24 24 23 21 20 20 23 25 28 28 27 27 26 25 24 24 23 22 23 23 23 23 24 23 24 25 24 25 24
21 23 22 22 23 24 25 23 27 27 26 28 25 24 24 22 22 22 20 19 20 20 26 27 28 27 27 26 25 24 24 23 24 23 23 23 23 24 24 24 24 25 26 25
21 23 22 22 20 20 23 24 23 25 25 28 26 24 21 19 19 20 19 18 18 19 19 21 22 27 27 25 24 24 24 23 23 23 23 23 23 24 24 24 23 24 25 26
18 21 20 20 19 19 20 20 21 27 24 23 27 22 20 19 19 19 19 19 18 18 18 18 18 18 20 23 23 23 24 24 24 23 22 23 23 23 23 24 25 24 24 25
19 19 21 20 21 20 20 20 20 20 22 23 27 22 19 18 17 17 18 18 18 18 17 17 17 17 16 17 19 21 24 25 24 22 22 22 22 22 23 23 25 25 24 24
18 17 19 23 20 19 20 19 20 21 24 22 23 19 18 16 15 16 17 18 19 19 17 16 16 16 15 15 15 16 20 22 23 23 22 22 22 22 23 23 23 24 25 24
19 18 18 17 18 18 18 19 19 20 20 22 21 18 16 16 15 15 16 17 17 18 18 17 16 16 16 15 14 15 16 17 20 21 23 23 22 22 22 22 22 22 22 24
16 17 17 17 17 18 18 18 19 19 19 19 20 17 16 16 17 17 17 17 16 16 17 17 17 15 15 15 14 14 14 17 18 19 20 21 22 22 21 22 22 22 22 22
17 16 17 17 16 17 18 18 18 17 17 19 20 17 16 15 15 16 16 16 16 16 16 17 17 16 15 14 14 14 14 16 16 17 18 20 20 21 21 21 21 21 21 22
16 16 15 17 17 17 17 16 17 17 16 17 17 16 16 16 16 15 15 15 15 15 15 15 16 16 16 14 15 14 14 15 16 16 16 17 18 20 21 21 21 21 21 21
15 17 15 17 17 16 16 16 16 18 15 15 16 15 15 15 17 15 14 14 14 14 14 14 14 14 15 15 15 15 15 14 14 15 16 16 16 17 18 20 20 20 21 21
14 15 17 15 16 17 17 15 16 16 17 15 15 15 15 16 18 18 13 13 13 12 13 13 12 13 14 14 14 14 15 14 14 13 14 15 17 16 17 17 18 19 20 20
14 14 16 16 16 17 15 15 15 16 16 14 14 14 13 14 14 13 12 12 11 11 11 11 11 12 12 12 13 14 14 14 14 13 13 14 17 17 16 16 17 18 19 20
15 14 14 14 15 16 15 14 15 14 13 14 13 13 12 12 12 12 12 11 10 10 10 10 10 10 11 11 11 13 14 14 13 13 14 14 14 16 17 17 17 17 18 18
13 14 14 15 16 13 15 14 13 14 13 12 12 12 11 11 12 11 11 11 11 10 10 9 9 9 10 10 10 11 12 13 13 13 12 14 14 15 16 16 16 16 17 18
12 11 13 13 15 14 13 12 12 12 13 12 12 11 11 11 12 12 12 11 11 11 10 9 9 9 9 10 9 10 10 11 12 13 13 12 13 13 15 17 15 15 16 17
12 11 12 13 13 12 13 13 13 12 11 11 11 11 11 11 11 11 12 10 10 10 10 9 9 9 9 9 9 9 10 10 12 13 13 13 12 12 12 16 16 14 16 16
11 11 12 14 15 14 14 14 13 12 11 11 11 11 11 10 11 10 10 10 10 9 9 9 9 9 9 9 9 9 9 10 11 12 13 13 12 12 13 13 18 15 16 16

GFSCGP_925_temp_096.txt.gz
Temp
29 29 30 31 33 34 34 34 34 33 32 32 33 33 30 30 30 29 29 29 30 30 30 29 28 28 27 27 25 25 24 24 24 24 25 25 26 24 24 24 23 23 23 23
28 29 31 32 32 32 33 33 33 32 33 33 32 33 31 30 30 30 30 29 29 30 31 30 29 28 28 27 26 25 24 23 24 25 25 26 25 25 25 24 24 24 23 23
29 31 31 30 30 31 32 33 33 33 32 33 31 32 30 29 31 29 29 29 30 30 31 31 29 29 28 27 26 25 24 24 24 25 24 24 25 24 25 24 24 24 24 24
30 31 30 30 31 32 32 33 32 32 33 33 33 30 30 31 29 27 28 28 29 29 30 31 30 29 29 28 27 26 25 24 24 23 25 25 27 28 28 26 25 25 24 24
30 30 30 30 31 31 32 32 32 33 33 33 33 34 30 31 29 29 29 28 29 30 30 31 31 30 30 29 28 27 25 24 25 24 24 24 26 27 27 27 24 23 24 24
30 31 31 31 31 31 31 31 31 32 34 32 34 34 30 29 26 29 29 30 29 28 29 29 31 31 30 29 28 28 26 24 24 24 24 24 25 27 26 26 25 25 25 24
29 29 29 29 30 31 31 32 30 30 31 33 34 33 27 27 26 26 27 27 29 30 28 29 31 31 30 30 29 28 27 25 24 24 24 24 24 24 25 25 26 27 27 27
28 27 28 28 29 30 31 32 32 30 31 33 33 31 25 27 27 25 22 23 24 26 29 28 27 31 30 30 29 28 27 25 25 24 24 24 24 25 25 26 27 26 28 27
29 27 27 27 28 28 31 30 33 33 34 34 32 27 28 28 27 25 21 20 21 24 30 30 30 30 30 30 29 28 27 26 25 25 24 24 24 24 26 26 25 26 27 27
28 26 27 27 27 28 30 31 30 32 30 31 31 28 27 25 24 23 21 19 19 21 24 29 28 29 30 30 29 28 27 25 25 25 25 25 24 24 24 25 25 26 26 26
28 28 26 27 27 27 29 30 30 32 32 32 31 28 23 22 21 21 19 18 18 19 20 22 19 21 28 29 29 28 28 27 25 25 26 25 25 25 24 25 24 25 25 25
25 28 27 26 24 24 26 27 29 30 30 32 32 24 21 20 20 20 19 19 18 18 18 19 20 19 19 23 27 28 27 27 27 26 25 25 24 24 25 25 25 25 25 25
25 27 26 25 26 25 26 26 27 28 31 31 31 24 19 20 20 20 20 20 19 19 18 18 18 17 16 16 18 21 25 27 28 27 26 25 24 24 24 25 25 25 25 25
23 25 25 27 25 26 25 25 25 28 30 31 30 20 17 18 19 19 20 20 20 21 20 20 18 17 16 15 14 16 18 22 25 26 25 24 24 24 24 24 24 24 24 24
25 24 24 24 23 23 24 24 25 26 27 28 27 21 19 18 18 19 20 21 20 20 21 21 21 19 17 17 16 14 14 16 19 23 24 25 24 23 23 23 23 24 24 24
23 22 23 23 22 23 23 24 24 25 25 27 22 17 19 19 19 19 19 20 20 20 20 21 21 20 20 18 18 17 15 14 16 18 21 23 23 23 24 23 24 24 24 24
22 22 22 23 21 22 22 24 24 24 24 26 23 21 19 20 20 20 20 20 20 20 19 20 20 20 19 19 18 18 18 15 14 15 16 18 19 21 22 23 23 23 24 24
21 21 22 23 21 21 22 23 24 23 22 23 22 20 21 20 20 20 19 19 19 19 19 19 19 19 18 19 18 18 18 18 16 15 14 15 16 18 19 20 21 22 23 23
21 22 21 21 22 21 21 20 21 22 21 22 22 21 21 21 21 19 18 18 18 18 17 17 17 17 17 17 18 18 18 18 18 17 15 14 14 15 17 17 18 20 21 22
20 20 21 21 21 21 22 22 22 22 21 21 21 21 20 20 22 21 18 18 17 17 16 16 16 16 17 16 16 16 18 18 18 18 16 15 14 14 15 16 16 17 19 20
19 19 19 20 20 22 20 20 21 19 21 21 21 20 19 20 19 17 17 17 16 15 15 14 15 15 15 15 14 15 16 17 17 16 16 16 15 14 14 14 15 16 18 18
18 18 18 19 19 19 20 19 19 19 19 19 19 18 18 18 17 17 17 16 15 15 15 14 14 14 14 14 14 14 15 15 15 15 16 16 16 16 16 15 15 16 16 18
17 19 18 19 20 18 19 18 18 19 18 18 18 17 17 17 17 17 16 16 15 15 15 14 14 14 13 13 13 13 13 13 13 14 15 16 16 15 16 16 15 16 16 16
18 17 17 17 20 18 19 17 17 18 18 17 17 17 16 16 16 16 16 16 15 15 14 13 13 13 13 13 12 12 12 12 12 13 14 16 17 16 15 16 17 16 16 18
18 17 17 17 18 17 18 18 17 16 17 16 16 16 16 16 16 16 16 15 14 14 13 13 12 12 12 12 12 12 12 12 12 13 14 16 17 17 17 17 15 14 15 15
16 15 15 17 19 18 19 18 18 16 16 16 16 16 15 14 15 15 15 14 14 13 12 12 11 10 10 10 10 11 11 11 12 12 14 16 17 17 18 17 18 17 16 16

GFSCGP_925_temp_099.txt.gz
Temp
31 31 32 34 35 37 38 37 37 36 36 32 26 26 26 28 30 30 30 31 32 32 32 31 31 30 30 28 27 27 27 25 26 26 27 27 25 26 26 26 25 25 24 24
31 31 34 36 36 36 37 37 37 36 35 27 24 27 24 29 30 31 30 29 30 31 32 31 31 30 30 29 27 26 26 25 25 27 28 27 26 26 26 26 26 25 24 24
32 33 35 34 35 34 36 37 36 35 35 34 33 30 29 31 32 31 31 29 30 29 31 32 31 31 30 29 27 26 26 25 26 27 26 26 26 27 27 27 26 25 25 25
32 35 34 33 34 34 35 37 37 36 35 34 32 27 26 32 29 30 29 29 29 28 29 33 31 32 31 29 28 27 26 25 25 26 26 25 27 28 26 27 27 26 26 25
32 33 32 32 33 35 35 37 35 36 35 34 31 31 23 32 31 29 30 30 29 29 31 32 33 32 32 30 29 27 26 25 26 26 26 26 26 27 27 25 25 26 25 26
34 34 33 34 35 35 35 35 34 35 36 35 34 32 29 26 31 30 30 30 30 31 30 32 31 32 32 31 30 29 26 25 25 25 25 26 27 27 28 26 26 26 26 26
32 32 34 33 34 34 34 33 32 32 33 34 36 32 26 29 29 26 26 27 30 31 32 33 31 31 31 32 31 30 27 26 25 25 25 25 26 26 26 26 27 25 27 27
30 29 31 33 33 33 33 34 34 31 34 35 38 32 29 31 26 24 23 23 25 28 32 33 30 32 31 32 31 31 28 26 26 26 26 25 25 26 26 27 28 28 25 28
31 31 31 31 33 32 33 33 37 36 37 36 34 29 30 31 29 24 21 21 22 26 31 32 29 29 30 32 31 30 29 27 26 26 26 25 25 25 27 28 27 28 28 26
31 29 31 31 31 32 32 35 34 35 33 34 33 30 31 27 26 24 21 20 21 24 27 32 29 26 29 30 31 31 29 28 27 27 26 26 26 25 25 27 26 27 28 28
31 31 29 30 30 31 32 32 33 35 36 35 33 30 29 26 23 23 20 19 19 21 22 24 23 21 22 24 22 31 30 29 27 27 27 27 26 26 25 26 26 26 26 27
30 31 29 30 30 30 31 32 33 32 33 35 35 22 25 25 24 22 20 20 19 19 20 22 20 19 16 17 18 24 23 28 27 26 26 27 27 26 26 26 26 26 26 26
29 30 29 28 29 30 30 32 32 34 35 33 34 22 24 24 23 22 21 20 20 20 20 21 19 19 17 15 16 18 20 20 23 27 28 27 27 26 26 26 26 26 26 26
25 30 29 28 29 31 29 29 30 32 32 33 33 21 22 23 22 21 21 21 22 21 21 20 20 19 18 16 15 15 16 17 19 23 26 28 26 26 26 26 26 26 26 25
28 27 28 28 28 28 29 29 29 30 31 31 28 23 23 24 23 23 22 22 22 22 22 22 21 21 20 19 18 16 16 15 18 19 23 24 25 25 25 25 26 26 25 25
27 26 26 27 27 27 27 28 28 29 30 30 26 21 23 23 24 24 23 23 23 23 23 23 23 22 21 21 20 20 17 16 16 16 17 18 20 22 23 24 25 25 25 25
25 26 25 25 28 27 26 28 28 29 30 30 26 23 22 22 23 23 23 23 23 22 22 23 23 22 21 21 20 20 19 17 17 16 15 15 16 18 20 22 24 24 24 25
24 24 25 26 26 23 28 28 30 29 29 28 26 23 24 23 23 23 23 23 22 22 22 22 22 21 21 21 20 20 20 20 19 18 16 15 15 16 16 18 21 22 22 23
24 24 25 25 25 26 24 25 26 26 26 27 25 24 24 23 23 22 22 22 21 21 21 20 20 20 20 20 20 19 20 20 20 20 19 18 16 16 16 16 17 19 20 20
24 24 24 25 23 24 25 26 26 26 24 26 26 25 24 24 23 22 21 21 21 20 19 19 19 20 20 19 19 18 19 19 20 19 18 18 18 16 16 15 15 16 18 19
22 22 22 23 23 25 24 24 24 22 24 25 25 25 24 23 22 21 21 20 19 19 19 18 18 18 18 17 17 17 18 18 17 17 17 18 18 18 18 16 16 15 16 17
22 21 21 22 22 22 24 23 22 22 24 24 24 23 23 21 21 21 20 20 19 19 18 18 18 17 17 16 16 16 16 16 15 15 16 16 17 18 19 18 17 16 16 16
19 22 21 23 21 22 23 22 22 23 22 22 22 21 21 21 21 20 20 19 19 18 18 17 17 16 16 16 15 15 15 14 14 15 15 15 16 17 18 18 18 18 19 19
21 22 20 21 22 21 22 21 21 21 21 21 21 21 20 20 20 19 19 19 18 18 17 17 16 16 15 15 15 14 14 14 14 14 15 15 16 17 18 19 19 20 20 19
21 21 19 20 21 21 21 21 20 20 20 20 20 20 20 19 19 19 19 18 17 17 16 16 15 15 14 13 13 13 13 13 13 14 15 15 16 17 19 19 20 20 20 19
21 18 18 19 21 21 21 21 20 19 19 19 19 19 19 18 19 18 18 17 16 16 15 15 14 14 13 12 11 11 11 12 12 14 15 16 17 18 19 20 20 20 20 19

GFSCGP_925_temp_102.txt.gz
Temp
31 30 31 33 34 36 37 37 35 35 33 31 29 25 24 25 26 31 32 33 33 32 32 32 31 31 30 28 27 27 26 26 25 26 27 26 26 26 26 25 24 25 24 24
32 31 34 35 36 35 36 35 35 30 31 29 28 26 26 25 26 29 32 32 31 29 31 32 32 31 30 28 27 27 25 26 25 26 26 26 25 26 26 25 25 25 25 24
32 33 35 35 35 36 36 37 34 26 31 29 27 24 24 22 23 23 31 33 32 30 29 32 32 31 30 28 27 26 25 25 25 27 26 26 25 25 26 26 25 25 25 25
33 35 34 35 35 36 35 37 33 33 31 29 30 26 28 26 23 22 27 29 31 30 28 32 31 31 30 28 27 26 25 25 25 25 27 26 26 25 27 26 26 25 25 25
33 34 34 34 35 36 35 38 37 37 36 31 32 31 28 25 23 24 25 30 30 30 30 32 32 32 30 29 28 26 26 25 26 26 26 26 25 25 25 26 26 26 25 25
34 35 35 35 36 36 37 36 37 36 36 33 33 34 27 23 23 30 30 30 30 30 31 31 31 32 30 30 28 26 26 25 25 26 25 25 25 24 24 25 25 25 26 26
32 34 35 35 34 36 36 34 32 33 33 34 35 34 28 24 24 22 26 25 26 28 30 31 32 31 31 30 29 27 26 25 25 25 25 25 26 24 23 25 26 27 26 26
31 31 34 35 34 34 34 34 33 31 33 34 36 29 27 27 24 22 24 25 25 24 22 28 31 30 30 31 30 28 26 25 25 25 25 25 25 25 25 26 27 27 26 26
31 32 34 34 35 33 34 33 36 35 36 36 30 27 27 27 25 24 23 23 24 25 29 23 28 30 29 29 30 28 26 25 25 25 25 25 25 26 27 28 28 27 26 24
31 30 33 33 33 33 33 35 33 34 32 33 30 29 28 26 24 23 21 21 21 23 24 27 24 22 22 24 24 24 27 26 26 26 25 25 25 25 26 26 27 27 25 24
31 30 31 32 31 31 32 32 33 35 35 34 29 27 29 27 25 22 21 20 20 21 22 22 22 20 20 22 24 19 22 26 26 26 26 26 25 25 25 26 26 27 26 24
31 31 29 31 33 33 34 33 34 33 32 34 27 24 26 27 25 23 21 20 20 21 22 22 21 19 17 19 19 19 21 19 22 25 26 26 26 26 25 25 26 26 26 26
28 30 29 30 31 32 31 32 34 34 35 32 30 25 25 25 23 23 22 21 20 21 22 22 21 20 18 17 17 19 19 18 20 24 25 26 26 26 26 26 26 26 26 25
26 29 28 25 28 31 30 31 33 33 32 33 27 23 22 23 21 22 22 22 22 21 21 22 21 21 20 18 17 17 17 19 19 20 20 23 25 26 26 25 26 26 26 25
28 27 29 29 29 30 31 31 32 31 31 30 24 24 22 22 22 22 22 22 22 22 22 22 22 21 21 19 18 17 16 16 17 17 17 19 22 23 24 25 25 25 25 26
28 26 27 27 29 29 29 30 31 31 31 29 27 24 24 23 23 22 22 23 23 23 23 22 22 22 21 20 20 18 18 17 18 16 17 17 18 19 20 22 24 24 25 25
26 26 26 25 28 29 27 29 30 30 31 31 26 25 24 23 23 22 23 23 23 23 23 23 23 22 22 21 20 20 19 19 19 18 17 17 16 17 18 19 20 21 23 24
25 25 26 25 27 25 29 30 30 30 30 30 28 25 25 25 24 23 24 23 23 23 23 23 23 22 22 21 20 20 20 20 19 19 19 18 17 17 17 18 19 18 20 21
26 25 25 24 25 27 28 27 28 29 29 29 26 25 25 25 24 23 23 23 23 22 22 21 21 21 20 20 20 19 20 20 20 19 19 19 19 17 17 17 17 18 18 20
26 25 24 25 24 25 24 27 28 29 26 29 26 24 23 23 21 21 23 23 22 21 20 20 20 21 20 19 19 18 19 19 19 18 17 18 18 19 18 17 17 17 17 18
23 23 23 24 24 25 26 26 27 24 24 28 27 25 24 21 22 21 22 21 21 20 19 19 19 19 18 17 17 17 17 17 16 16 16 16 17 17 19 19 18 18 17 17
23 22 22 23 23 23 25 24 23 23 25 26 27 20 19 21 21 21 20 21 20 20 20 19 19 18 17 17 16 16 16 15 15 15 15 15 16 16 17 18 18 18 18 17
20 23 22 23 22 23 24 23 24 25 24 24 24 24 23 22 22 21 21 20 20 19 19 18 18 17 17 16 15 15 15 15 14 14 15 15 15 15 16 17 18 19 19 19
23 23 22 22 23 23 23 23 23 24 23 23 23 22 22 22 22 21 21 20 19 19 18 18 17 16 16 15 14 14 13 13 13 13 14 15 15 16 16 17 18 19 20 21
22 21 21 21 22 23 22 23 22 22 23 22 22 22 21 22 21 21 20 19 18 18 17 16 16 16 15 14 13 13 12 12 12 13 13 14 15 16 17 17 18 19 20 21
21 21 20 19 22 21 22 23 22 21 21 21 21 21 21 21 20 20 19 19 18 17 16 16 15 14 13 12 12 12 11 11 11 12 13 14 15 16 16 17 18 19 20 20

GFSCGP_925_temp_105.txt.gz
Temp
30 26 24 26 28 30 32 32 31 32 30 26 25 23 25 24 23 23 29 28 29 30 29 29 29 28 27 27 28 26 26 26 26 25 24 25 25 24 25 24 24 24 24 25
27 25 28 30 31 31 32 32 28 26 27 25 25 23 24 24 24 23 25 29 29 28 28 29 29 27 27 27 27 26 26 26 26 25 26 26 25 24 25 24 25 24 24 24
26 28 31 31 31 32 31 30 27 28 25 23 24 24 23 23 23 22 23 26 30 28 28 28 29 27 27 27 27 26 26 26 26 25 26 26 25 25 25 25 24 24 24 24
28 31 32 31 31 32 29 33 28 25 25 24 26 22 23 23 23 22 22 23 26 27 29 29 28 27 26 27 27 26 25 26 25 25 26 26 25 25 25 25 25 25 25 25
28 30 30 31 32 33 32 31 28 27 24 27 26 24 24 24 23 23 22 22 24 27 28 27 29 28 27 27 26 26 25 26 25 25 25 25 25 25 25 25 25 25 25 25
30 32 32 32 34 34 35 34 30 26 23 24 27 26 23 23 24 22 23 23 24 27 28 29 31 29 27 26 26 26 25 25 25 25 25 25 26 26 25 25 25 25 25 25
30 31 32 33 32 32 33 31 27 28 23 25 28 27 25 23 22 20 21 22 24 26 29 27 28 29 27 27 26 25 25 25 25 25 25 25 25 25 25 25 25 25 25 25
26 27 31 33 31 30 30 29 26 27 28 29 29 23 22 23 22 21 21 21 23 23 23 24 23 26 28 27 26 25 25 25 25 25 25 25 25 25 25 25 25 25 25 25
27 28 32 33 33 31 30 29 30 27 29 28 24 24 24 23 22 22 21 21 21 21 21 22 20 22 25 27 26 25 25 25 25 25 25 25 25 26 26 26 26 26 25 26
27 25 30 33 33 32 31 29 27 26 28 28 24 25 24 22 22 21 21 20 20 20 20 20 20 20 22 23 25 25 25 24 24 25 25 25 25 25 26 25 26 26 26 26
27 25 27 30 30 29 29 27 28 28 27 26 24 22 24 22 21 21 20 20 21 20 20 19 18 19 19 19 22 22 22 22 22 21 22 25 25 25 26 26 26 26 26 26
26 26 25 27 30 32 30 28 28 24 26 27 24 21 21 22 21 19 19 20 21 21 20 19 18 17 17 18 18 21 22 22 23 22 21 24 26 25 26 26 26 25 25 26
24 22 22 25 28 30 30 29 29 28 28 28 26 21 21 21 21 20 19 20 20 20 20 19 18 17 17 17 18 19 22 23 24 21 20 24 25 25 26 26 26 26 25 25
23 24 23 20 22 25 26 29 29 29 26 24 23 21 20 21 20 21 20 20 20 20 20 20 19 18 17 16 16 17 18 18 18 19 19 20 23 25 25 25 25 25 26 25
24 22 23 24 27 28 28 28 29 29 26 25 21 22 21 21 21 21 21 20 20 21 20 20 20 19 18 17 17 17 17 18 19 19 20 18 20 21 22 24 24 25 25 25
25 22 23 22 27 28 27 28 30 29 26 23 22 20 21 20 21 21 21 22 21 21 21 20 19 20 19 18 17 18 18 18 18 18 17 18 20 20 19 19 22 24 24 24
23 22 21 22 24 25 24 27 27 28 28 25 21 21 21 20 20 21 21 22 21 20 20 20 19 19 20 19 19 18 18 18 18 18 18 18 17 17 18 19 19 20 21 23
22 22 21 21 23 22 25 27 27 27 28 26 23 22 22 21 21 22 22 22 20 19 19 18 20 20 20 19 19 19 19 18 18 17 17 18 18 18 18 17 18 19 18 20
22 21 20 20 21 23 25 26 26 25 24 24 22 22 23 22 22 21 22 21 18 18 19 20 20 19 18 18 18 19 18 18 17 17 17 17 17 17 18 19 19 18 19 19
22 20 19 19 21 22 23 24 26 26 20 23 23 22 22 22 20 20 21 21 18 19 19 19 18 18 17 17 17 17 16 16 16 15 16 16 16 17 18 18 18 18 19 19
20 19 19 19 20 22 23 24 24 22 20 21 23 21 20 19 19 19 19 18 19 19 19 19 18 17 17 16 16 16 15 15 15 15 15 15 15 16 16 17 17 18 18 18
19 18 18 19 20 19 22 22 20 20 17 18 17 18 17 18 18 18 19 18 19 18 19 18 17 17 16 15 15 15 14 14 14 14 14 14 15 15 16 16 17 18 18 18
17 18 18 18 18 20 20 20 20 19 18 17 17 17 17 19 19 18 18 17 18 18 18 17 17 16 15 14 14 13 13 13 12 13 13 13 14 15 15 16 16 17 18 19
20 20 18 18 19 21 19 20 20 20 18 19 18 17 17 17 17 16 16 16 17 18 17 17 16 15 14 13 13 12 12 11 11 11 12 12 13 15 15 16 16 17 18 18
18 18 20 19 21 21 20 20 21 21 20 20 20 20 20 18 17 16 15 16 17 17 16 16 15 14 13 12 12 11 11 10 10 10 11 12 13 13 14 15 16 16 17 17
15 14 15 15 17 17 19 20 20 19 21 20 20 19 20 20 17 18 16 17 17 15 15 14 14 13 12 12 11 11 10 10 10 10 10 10 11 12 13 14 14 15 16 17

GFSCGP_925_temp_108.txt.gz
Temp
27 24 24 24 24 26 27 29 29 27 25 26 23 23 22 23 24 25 24 24 27 28 27 27 25 25 25 25 25 25 25 24 24 24 24 23 24 24 24 24 24 24 24 24
23 24 25 26 27 27 27 28 27 25 25 24 23 23 23 23 24 24 24 24 27 27 26 26 25 25 25 26 26 26 26 25 24 25 24 25 24 24 24 24 24 24 24 24
23 25 28 27 26 27 27 27 25 26 25 24 24 23 23 23 24 22 22 23 25 27 27 26 25 25 26 26 26 25 25 26 25 25 24 24 25 24 24 24 24 24 24 24
25 28 28 27 27 28 25 29 29 25 25 23 24 24 22 23 23 22 22 22 23 27 27 26 25 25 25 26 26 26 26 26 25 25 25 25 25 25 24 24 24 24 24 24
25 28 27 27 28 29 29 29 26 26 24 24 23 23 22 23 23 23 22 23 23 24 27 26 26 25 25 26 26 26 26 25 25 24 25 25 25 25 24 24 24 24 24 24
26 28 28 28 30 30 30 27 25 23 22 23 25 23 23 22 24 25 23 22 24 23 24 25 26 26 25 25 25 25 25 25 25 25 25 25 25 25 25 25 24 24 24 24
26 27 29 30 29 29 30 25 22 23 23 23 23 24 23 23 23 24 23 22 21 22 22 24 24 26 25 25 25 25 25 25 25 25 25 25 25 25 25 25 25 25 25 24
23 24 29 31 29 28 29 27 23 25 23 24 26 24 25 22 21 21 22 21 21 23 21 22 23 25 25 25 24 24 25 25 25 25 25 25 25 25 25 25 25 25 25 25
24 25 28 30 30 29 29 28 27 25 26 25 23 22 22 22 21 22 21 21 20 20 21 21 21 23 25 25 24 25 25 24 24 25 25 25 25 25 25 25 25 25 25 25
26 24 26 28 30 30 28 28 27 25 26 27 22 23 22 22 22 21 20 20 20 20 20 20 20 20 21 23 24 24 24 24 23 23 24 24 25 26 26 25 25 25 25 25
24 22 24 27 27 27 26 26 25 24 23 24 22 23 22 22 21 20 20 20 19 19 19 19 19 19 20 20 20 23 23 23 23 23 23 23 24 24 25 25 25 25 25 25
23 20 21 24 25 28 27 27 23 23 26 21 20 22 20 20 20 20 20 20 19 19 18 18 18 18 19 19 18 19 21 22 23 23 24 25 25 24 25 25 25 25 26 26
23 19 19 21 22 25 25 27 25 22 21 23 20 21 19 19 19 20 20 19 19 19 18 17 17 17 18 18 18 17 19 21 21 21 23 23 25 25 25 25 25 25 25 25
22 18 19 18 20 21 23 25 26 23 22 22 20 21 19 19 18 19 19 19 19 19 18 17 16 16 16 17 17 17 18 20 18 20 21 20 20 24 24 24 25 25 25 25
21 21 22 21 23 25 25 26 26 26 23 23 20 21 20 19 19 19 19 19 19 19 19 18 17 17 16 16 16 17 18 18 18 18 19 19 19 21 22 23 23 24 24 25
20 21 21 22 24 24 24 25 25 24 22 21 20 19 20 21 20 20 20 20 20 19 19 19 18 18 17 17 16 17 17 17 18 18 17 18 19 21 21 21 21 21 23 24
19 19 19 21 22 22 22 23 25 24 22 21 20 19 20 20 20 20 20 20 20 20 19 19 18 18 18 18 17 17 17 17 17 17 17 17 17 18 18 19 20 20 19 20
19 18 19 19 21 21 24 23 25 23 23 21 19 20 20 21 21 21 21 20 19 18 18 17 17 17 17 18 17 17 17 17 17 16 17 17 17 17 17 17 18 19 17 17
18 16 17 18 17 20 23 24 23 23 20 21 20 20 20 20 21 20 20 19 17 15 16 16 17 17 17 17 17 16 16 16 16 16 16 16 17 17 17 17 17 17 16 17
16 14 17 17 19 20 22 23 23 22 18 20 20 20 20 20 18 18 18 18 17 16 17 16 17 17 17 16 16 16 15 15 14 15 15 15 16 16 16 17 17 17 17 18
15 15 16 16 18 20 21 21 21 22 19 19 20 20 19 19 17 17 17 17 17 16 16 17 16 16 15 15 15 14 13 13 13 14 14 14 15 15 16 16 16 17 17 18
16 14 15 14 18 19 19 20 19 17 14 16 15 15 14 15 16 16 16 16 16 15 16 16 15 15 15 14 14 12 12 12 13 13 13 13 14 14 15 16 16 17 17 18
15 15 15 15 15 16 17 17 17 16 14 14 14 15 15 16 16 16 15 14 15 15 16 15 15 14 13 13 13 12 11 11 11 12 12 12 13 13 14 15 15 16 16 16
15 16 14 15 16 18 18 17 18 17 16 15 15 15 15 16 16 15 15 15 15 15 15 15 14 12 12 12 12 11 11 11 11 10 10 11 12 12 13 14 14 15 15 16
14 14 14 14 15 18 17 18 17 18 16 16 16 16 15 15 14 16 14 13 14 14 14 14 13 12 11 11 11 10 10 10 9 9 10 10 10 11 11 12 13 13 14 13
13 13 12 12 13 14 16 16 18 18 18 17 17 17 16 15 14 14 13 13 14 13 13 13 12 12 11 11 10 10 10 9 9 9 9 9 9 10 10 10 11 13 13 14

GFSCGP_925_temp_111.txt.gz
Temp
25 23 23 24 24 25 27 27 27 25 26 25 24 22 22 23 25 24 24 24 26 25 25 24 24 23 23 24 24 24 24 24 24 23 23 23 23 24 24 24 24 24 24 24
22 23 24 26 25 26 26 27 23 24 23 23 22 23 21 22 22 23 23 23 26 25 25 24 24 24 23 24 24 24 24 24 24 24 24 24 24 24 24 24 23 23 24 24
23 25 26 26 26 26 26 26 25 24 25 25 23 23 23 22 23 23 22 23 23 26 24 24 24 24 24 23 24 24 24 25 25 24 24 24 24 24 23 23 23 23 24 24
24 26 27 26 25 25 25 26 28 25 23 24 24 24 22 22 22 23 23 22 22 23 23 24 24 24 24 24 25 25 25 24 24 24 24 24 24 25 24 24 24 24 23 24
24 27 26 25 26 27 26 29 28 25 23 22 22 22 22 22 22 23 23 23 23 23 24 24 24 24 24 24 25 25 25 24 24 25 25 24 24 24 24 24 24 23 23 24
25 27 27 25 28 27 27 25 22 20 21 23 23 24 22 22 23 23 24 23 22 23 22 23 25 25 24 24 24 25 25 24 25 25 25 24 24 24 24 24 24 23 23 24
24 26 27 27 27 28 25 22 20 22 22 22 22 23 24 22 23 24 24 22 22 21 21 22 23 25 24 24 24 24 25 24 24 24 25 24 25 25 25 24 24 24 24 24
23 23 27 28 27 26 22 23 22 24 22 23 22 23 22 21 21 21 22 24 21 21 21 21 23 24 24 23 24 24 24 24 24 24 25 25 24 24 24 25 24 24 24 24
22 24 27 28 29 27 27 26 25 22 24 24 22 23 22 21 21 20 20 21 21 21 21 21 22 22 23 24 23 24 24 24 24 24 24 24 24 25 24 24 24 24 24 24
23 24 25 26 29 27 26 25 25 21 24 26 22 22 23 21 21 21 19 20 19 19 20 21 21 21 22 24 23 23 24 24 23 23 23 24 24 24 24 24 24 24 24 24
22 21 24 25 24 26 25 25 22 22 22 23 23 22 20 21 20 20 20 20 19 20 20 20 19 20 20 21 22 22 23 23 22 23 23 24 24 24 24 24 24 24 25 25
22 18 21 25 24 23 26 25 22 22 24 19 19 22 20 20 19 19 19 19 19 19 19 19 18 19 18 19 19 18 20 23 22 23 23 23 23 24 24 24 25 25 25 25
23 18 19 22 21 21 22 23 22 20 21 21 21 21 19 19 20 20 18 19 18 18 18 17 18 18 18 18 18 18 19 19 21 21 22 22 23 24 24 24 24 24 25 25
20 16 18 18 21 21 21 23 25 22 22 20 21 21 19 18 18 19 19 19 18 18 17 17 17 17 18 17 17 18 18 18 21 21 20 21 21 21 22 24 24 24 24 24
19 19 20 18 20 23 22 24 24 23 22 23 21 20 19 19 19 19 19 19 18 18 18 17 16 16 16 17 17 17 17 18 18 19 19 19 19 18 20 22 23 23 24 23
17 19 21 21 20 22 23 22 23 22 21 20 21 21 20 19 18 19 19 19 19 18 18 18 18 17 16 16 16 16 17 17 17 17 17 17 18 18 19 20 21 21 22 22
18 17 17 20 20 22 20 22 21 22 21 21 20 20 20 19 18 18 19 19 19 18 18 17 17 17 16 16 15 15 15 16 16 16 16 16 17 16 17 19 20 20 20 20
18 16 15 17 19 19 22 23 23 21 20 19 19 19 20 19 18 18 19 19 19 18 17 16 16 16 16 16 15 15 16 15 15 15 16 16 16 16 17 17 17 18 19 19
15 15 15 16 16 20 22 23 22 20 19 19 19 19 19 20 20 20 20 18 17 16 15 15 16 15 15 15 15 15 15 15 15 14 14 15 15 16 16 16 16 16 17 16
14 13 15 15 18 18 18 23 22 20 19 19 20 19 19 19 17 16 17 17 16 15 15 15 15 16 15 15 15 15 14 14 13 13 14 15 15 15 15 16 16 17 17 17
14 13 15 14 17 18 22 21 21 21 19 18 19 18 18 18 16 15 16 16 16 15 15 15 15 14 14 14 15 13 13 12 12 13 14 14 14 14 15 16 16 16 17 18
16 13 14 13 16 19 18 20 22 18 15 16 17 17 14 14 16 15 14 14 14 13 13 14 14 13 13 14 14 12 12 11 12 13 13 13 13 13 14 15 15 16 16 16
14 14 14 14 13 15 15 17 16 15 14 14 13 13 14 15 15 14 14 13 13 13 13 14 13 12 12 12 13 12 10 11 11 12 11 12 12 13 13 13 14 14 14 14
15 14 13 14 17 15 16 16 16 15 13 13 13 14 14 14 14 13 13 13 13 12 12 13 13 12 11 12 11 11 10 10 11 10 10 10 11 11 12 12 12 12 12 12
13 14 13 13 15 16 16 16 16 14 14 14 14 14 14 14 14 14 14 13 12 12 12 13 12 12 11 11 11 10 10 10 9 9 9 9 9 9 10 10 10 11 11 10
11 13 12 12 13 13 14 13 17 15 15 14 15 14 14 15 13 14 14 13 12 11 12 12 12 11 11 11 10 10 10 9 9 9 8 8 8 9 9 9 9 9 10 11

GFSCGP_925_temp_114.txt.gz
Temp
23 21 21 23 24 24 25 26 25 24 25 25 23 22 23 23 24 24 24 24 25 24 24 23 23 23 23 23 22 22 22 22 23 22 22 22 23 23 23 23 23 23 23 24
22 22 23 24 24 25 26 26 23 24 23 23 23 23 22 23 24 24 24 22 25 24 22 22 22 23 23 23 23 22 23 23 23 23 23 23 23 23 23 23 23 23 24 24
22 25 24 25 25 25 25 25 23 24 23 23 24 23 23 22 21 23 22 22 22 24 23 23 23 23 23 23 23 23 23 23 23 23 23 23 23 23 23 23 23 23 23 23
24 25 26 25 25 24 25 25 25 23 23 23 23 23 22 22 21 22 22 22 21 22 23 23 23 22 23 24 23 23 23 24 23 23 23 24 24 23 24 24 23 23 23 23
24 26 25 25 25 24 25 26 25 24 21 22 23 22 23 22 22 21 23 22 21 22 22 23 23 23 23 24 24 24 23 24 24 24 24 24 24 24 24 24 23 23 23 23
24 26 25 25 25 25 25 24 21 20 20 22 23 23 22 22 23 22 23 23 22 22 21 22 23 23 23 23 23 23 23 24 24 24 24 24 24 24 24 24 23 23 23 23
24 25 25 26 26 25 22 21 20 21 21 22 20 22 22 20 22 23 23 23 23 22 21 22 22 24 24 23 23 23 24 23 24 24 24 24 24 24 24 24 24 23 23 23
21 23 25 26 25 24 22 22 21 23 21 22 21 22 22 20 20 22 23 24 23 21 21 21 22 24 24 23 23 23 23 24 23 23 24 24 24 24 24 24 24 24 24 24
21 23 25 26 27 25 24 23 23 21 21 21 21 22 21 21 20 21 23 23 21 21 21 21 21 22 23 24 23 23 22 23 23 23 24 24 23 23 24 24 24 24 24 24
22 23 24 25 26 26 24 24 24 20 22 24 21 22 21 21 21 21 21 21 21 21 21 21 21 21 22 23 23 23 22 23 23 23 23 24 24 23 24 23 24 24 24 24
20 21 23 24 24 24 23 24 21 20 20 21 21 21 21 21 21 21 21 19 19 20 21 21 20 20 21 21 22 23 23 23 23 23 23 24 24 23 23 23 21 23 24 24
21 17 21 24 23 21 23 23 21 21 22 18 20 20 20 21 21 21 20 20 18 19 19 19 19 20 19 20 21 22 22 21 23 22 22 22 23 23 24 24 23 23 23 25
21 17 19 22 22 21 21 21 21 18 18 19 22 20 19 19 18 19 19 20 19 18 18 18 19 19 19 18 18 18 18 19 19 20 21 22 22 23 23 23 24 24 24 24
18 15 19 19 21 20 21 21 23 20 20 20 20 20 19 19 18 18 19 19 19 18 18 17 18 18 18 18 18 18 18 18 18 18 20 20 21 22 23 23 23 24 24 24
18 19 20 19 20 21 22 21 21 22 22 24 21 20 20 18 17 19 19 18 18 18 17 17 17 17 17 17 17 18 18 18 18 17 17 18 18 18 19 20 22 23 24 24
16 18 20 21 21 22 23 21 21 20 20 19 19 20 18 17 18 18 19 19 18 18 18 17 16 16 17 17 17 17 17 19 18 17 17 17 18 17 18 18 19 20 21 21
18 18 17 19 19 22 22 21 20 20 21 20 19 19 18 17 18 19 19 19 18 17 16 16 16 15 15 15 15 15 15 16 17 17 17 16 16 17 17 17 17 19 19 19
17 16 16 17 18 20 20 22 20 19 19 19 19 18 18 18 17 18 19 19 18 17 16 16 15 14 13 13 13 13 13 13 15 15 15 16 16 16 16 16 16 16 17 18
15 14 14 17 17 18 21 21 21 20 19 18 18 18 18 18 19 18 19 18 16 15 15 15 14 13 13 13 13 13 13 13 14 14 14 15 16 16 16 16 16 17 16 17
14 13 16 14 18 18 18 21 20 19 19 18 18 18 18 19 18 16 17 16 15 14 14 13 14 13 13 13 14 14 13 13 13 13 14 14 15 15 16 16 16 16 17 17
13 12 15 14 16 17 19 18 19 20 19 18 18 17 18 17 16 14 16 16 14 14 13 14 14 13 13 13 14 12 12 11 12 13 13 14 14 14 15 15 16 16 17 17
15 13 13 12 16 18 15 18 21 17 15 16 17 17 16 14 14 14 14 13 13 12 12 13 12 12 12 13 14 11 11 11 12 12 12 13 13 13 14 15 15 15 16 16
14 13 14 14 13 14 14 15 15 14 15 15 14 13 14 14 14 14 12 12 12 12 12 12 12 12 12 13 13 11 10 11 11 11 11 11 12 12 12 13 13 14 14 13
15 12 13 14 15 15 15 16 15 14 14 13 13 14 14 13 13 13 12 12 12 11 11 11 11 11 10 11 11 11 10 10 11 10 10 10 11 11 11 11 11 12 12 12
12 13 12 13 14 15 16 15 15 14 13 13 13 14 14 13 13 13 12 13 12 11 11 12 12 11 10 10 10 10 10 10 10 9 9 9 9 10 10 10 10 9 9 10
11 12 12 13 13 13 14 13 15 14 14 13 13 13 14 14 15 15 14 13 12 11 12 12 12 11 10 10 10 10 10 10 9 9 8 8 8 8 9 9 9 9 9 9

GFSCGP_925_temp_117.txt.gz
Temp
25 27 27 28 29 29 29 29 28 27 27 27 27 26 26 24 23 23 23 26 27 27 26 25 24 24 23 22 21 21 21 21 22 22 21 21 22 23 23 23 24 24 24 24
26 26 27 28 28 29 29 29 26 25 26 26 26 26 26 26 25 25 23 24 25 27 26 25 24 24 24 23 22 21 21 21 22 22 22 22 22 23 22 23 23 24 23 23
27 27 26 27 27 28 28 29 27 28 25 26 27 25 24 25 25 24 22 22 24 26 27 26 25 24 24 23 22 22 21 22 21 21 22 22 22 23 22 22 23 23 23 23
27 27 27 27 28 28 29 29 28 27 28 28 26 27 24 25 25 24 22 22 23 24 26 27 26 25 25 24 23 22 22 22 21 22 22 22 23 23 23 23 23 23 23 23
27 26 27 27 28 28 29 28 29 28 27 28 26 28 27 24 24 24 24 24 22 24 25 26 26 26 25 24 23 22 21 22 21 21 22 22 23 23 23 23 23 23 23 23
27 27 28 29 28 28 27 27 27 26 26 27 29 29 27 24 26 26 26 26 24 23 25 26 25 25 25 24 23 23 22 22 21 22 23 23 24 24 24 23 23 23 22 22
27 28 28 28 28 27 27 29 26 26 26 28 26 27 30 26 26 27 26 26 26 23 25 26 25 25 25 24 24 23 22 22 22 21 23 23 24 24 24 23 24 23 23 23
26 26 28 28 29 28 27 29 30 28 27 29 25 27 29 24 24 25 26 26 24 24 25 25 26 26 25 24 24 23 23 22 22 22 23 23 23 23 22 23 23 23 23 23
25 26 27 27 28 29 27 27 30 28 26 29 27 27 26 23 24 25 26 25 24 24 24 24 25 25 25 23 23 23 23 22 22 22 23 23 23 23 23 23 23 23 24 23
26 27 27 28 28 27 29 30 29 28 27 28 26 26 29 23 24 25 26 26 25 25 24 23 24 24 24 23 23 23 22 22 22 23 23 23 23 23 23 23 23 22 24 24
25 26 28 27 28 28 28 28 28 30 29 30 28 28 24 25 24 24 26 26 25 25 24 24 22 23 23 22 22 23 22 22 22 23 23 23 23 23 23 23 23 23 23 23
24 27 27 27 26 24 26 27 28 29 27 27 29 29 23 24 24 24 23 23 25 25 24 24 22 21 21 21 21 21 22 22 22 23 23 22 23 23 23 23 23 24 24 23
24 25 26 27 27 26 26 26 26 26 27 28 30 29 22 23 23 22 22 22 22 22 22 22 21 21 21 19 18 19 19 19 19 20 20 21 21 21 21 21 23 23 23 24
23 23 25 27 26 25 25 25 25 27 29 29 29 26 21 22 22 21 21 21 20 21 21 21 21 20 18 19 18 18 18 18 18 18 19 19 21 22 23 22 21 23 23 24
24 24 23 24 24 25 24 24 25 26 27 29 29 27 26 22 21 21 20 20 19 19 19 19 19 19 18 18 18 18 18 17 17 17 18 18 18 19 20 21 22 21 22 23
21 23 23 24 24 24 25 25 25 25 25 26 25 27 24 23 21 20 19 19 19 19 19 18 17 17 17 17 18 17 17 17 17 17 17 18 17 17 18 18 19 19 20 22
23 23 24 24 23 24 24 25 25 24 23 24 26 24 22 21 21 20 20 20 19 19 18 17 17 16 16 16 16 16 16 16 16 16 17 17 18 17 18 18 18 18 18 19
21 21 22 23 23 23 24 24 24 24 23 23 24 23 22 21 21 20 22 21 19 18 17 15 14 13 13 14 14 14 15 15 16 15 15 16 17 16 16 16 16 16 17 17
21 22 21 23 23 23 24 23 23 24 25 23 23 21 21 21 20 20 21 19 18 17 15 13 12 12 12 12 12 13 12 12 13 13 13 14 15 15 16 16 16 16 16 16
20 21 24 20 22 22 22 23 22 22 24 22 22 21 21 21 19 17 17 17 16 15 14 12 12 11 12 12 12 12 12 12 13 13 13 14 15 16 16 16 16 16 16 16
21 20 22 21 21 22 21 21 21 23 23 22 22 21 21 22 23 18 16 14 15 14 13 13 12 11 11 11 12 12 12 12 12 13 14 14 15 15 15 16 16 15 15 16
21 21 21 19 20 21 19 21 22 20 20 19 20 21 21 18 19 18 17 14 14 13 13 12 12 12 12 13 13 11 11 12 12 13 13 13 13 14 15 15 15 15 15 16
19 20 21 21 21 18 18 18 19 18 19 19 20 19 18 18 17 17 17 17 13 13 13 13 12 11 11 12 12 10 10 11 11 12 11 12 12 13 13 14 13 13 13 14
17 16 19 18 18 19 19 19 18 17 18 18 18 18 18 16 15 15 15 15 15 14 14 13 13 12 11 11 10 10 9 10 10 10 10 10 10 10 10 10 10 11 12 13
17 16 18 18 18 18 19 18 18 17 17 17 17 18 17 17 16 14 12 14 13 13 13 13 13 13 11 10 10 10 10 10 10 9 9 9 9 9 9 9 9 9 8 9
16 18 18 19 18 18 18 17 17 18 17 17 17 17 16 16 15 14 12 12 12 11 12 13 12 12 11 10 10 9 10 10 10 9 9 9 9 9 9 10 9 9 9 9

GFSCGP_925_temp_120.txt.gz
Temp
30 30 30 32 33 34 34 34 33 32 31 29 28 29 27 24 23 23 25 27 31 31 30 29 28 27 27 26 25 24 24 22 23 23 24 25 25 25 25 25 24 24 24 24
29 30 32 33 32 32 33 33 33 30 30 30 29 29 28 27 24 24 24 28 30 31 30 29 28 28 27 26 25 24 24 23 22 24 24 25 25 25 25 25 24 24 24 24
31 32 31 30 31 32 33 34 32 32 30 31 30 27 27 27 27 26 24 25 26 28 31 30 28 28 28 27 25 24 24 23 22 23 23 23 23 23 23 24 24 24 24 24
32 31 30 30 31 32 33 33 32 31 31 29 31 28 27 28 27 28 27 23 24 28 30 31 30 29 28 27 26 25 24 23 22 22 24 24 25 25 25 24 25 25 24 24
30 30 30 31 31 32 33 33 33 33 33 32 31 33 33 30 27 27 28 25 24 26 30 30 30 29 29 28 27 26 24 23 23 23 23 24 25 25 24 25 23 24 23 24
30 32 31 32 32 31 32 32 32 32 33 32 34 33 31 30 29 28 28 28 27 26 30 30 30 30 29 28 27 26 24 23 23 22 23 23 24 25 25 25 24 24 25 24
29 30 31 31 31 31 31 32 31 31 31 32 34 32 34 32 30 30 30 28 29 26 28 29 29 29 28 28 27 27 25 24 23 23 23 23 23 24 24 24 24 25 25 26
29 29 31 31 31 31 31 33 33 30 32 33 32 31 34 33 31 31 31 30 30 27 27 27 29 29 28 28 27 27 25 24 24 24 24 23 23 23 23 24 26 25 26 25
29 30 32 32 32 32 31 31 34 33 34 34 33 33 30 30 30 29 30 30 29 27 25 29 30 29 29 28 27 27 26 25 24 24 24 24 24 23 23 24 24 24 25 24
30 30 31 31 32 32 32 33 31 32 31 31 33 32 34 30 30 30 30 30 30 27 26 28 29 29 29 28 26 26 26 25 25 25 24 24 24 24 24 24 23 24 24 25
31 30 30 31 31 31 31 31 32 34 34 33 33 33 33 32 31 30 30 30 30 29 28 28 28 27 27 26 25 27 26 25 25 25 25 24 24 24 23 24 24 24 24 24
30 31 30 31 30 31 32 33 33 31 31 32 33 31 30 30 30 30 30 31 30 29 28 25 26 26 26 25 25 25 25 26 25 25 24 24 24 24 24 23 24 23 23 23
30 30 29 29 30 30 31 31 32 33 34 32 32 33 28 29 29 29 29 29 29 28 28 28 25 25 25 25 24 24 24 25 25 25 25 24 24 24 24 24 24 23 23 23
26 30 29 30 29 31 29 30 31 32 32 33 33 33 28 29 28 27 26 24 25 25 26 26 25 25 24 23 22 22 22 22 23 24 24 24 23 23 23 23 23 24 24 24
29 28 28 29 29 29 29 29 30 30 32 32 33 33 34 30 29 26 24 22 22 23 23 24 25 24 21 21 21 21 20 20 20 20 21 21 21 21 21 21 22 23 24 24
28 27 27 28 28 28 28 29 30 30 30 30 32 32 29 30 28 24 24 23 24 23 23 23 23 21 21 19 19 19 18 18 19 19 19 19 19 19 19 20 20 21 23 24
27 27 27 27 27 28 27 29 29 29 29 29 30 28 29 27 24 23 22 23 23 23 23 22 22 20 19 18 17 16 16 17 17 17 18 18 19 19 19 19 19 19 20 21
27 26 27 27 27 25 28 28 28 28 28 28 28 28 27 27 23 21 22 21 21 22 20 17 15 14 15 16 16 15 16 16 16 16 16 16 16 17 17 18 19 19 19 19
26 27 27 26 26 28 27 27 27 27 28 28 28 26 26 22 21 20 23 24 24 21 16 14 13 13 13 14 15 14 14 15 14 14 14 15 15 15 16 17 17 18 19 19
26 26 26 26 25 25 25 26 26 27 26 27 27 26 22 21 21 19 22 23 21 17 14 13 12 11 12 12 12 13 12 13 13 13 13 14 14 14 15 15 16 16 17 17
25 25 25 26 24 26 25 25 26 25 24 25 25 25 23 21 24 21 20 19 18 16 14 13 11 11 11 11 12 11 11 11 11 12 13 13 13 13 14 14 15 15 17 17
24 24 24 25 24 24 24 24 24 24 24 25 24 25 24 21 21 20 16 16 14 14 13 12 12 11 11 12 12 11 11 11 12 12 13 13 13 13 13 13 14 16 16 16
22 24 24 24 24 23 24 23 23 23 23 23 24 24 22 23 20 16 15 14 14 15 15 13 11 11 12 12 12 11 11 11 11 11 11 12 12 13 13 13 13 15 15 18
22 22 23 23 23 24 23 23 22 22 22 22 23 22 22 22 20 18 18 16 14 14 14 15 13 11 11 11 11 12 11 11 12 12 12 12 12 12 12 12 13 14 15 15
23 21 23 23 23 23 23 23 22 22 22 22 22 22 22 22 20 19 18 16 15 14 14 14 13 13 12 11 11 11 11 12 13 13 13 13 12 12 11 10 11 10 10 12
22 22 22 23 24 23 23 22 22 22 22 22 21 21 21 20 18 16 15 12 12 13 14 15 15 14 13 13 13 12 12 13 13 13 13 14 14 13 13 12 9 9 9 10